     2              OBSERVATION DATA    GPS                 RINEX VERSION / TYPE
teqc 2000Feb29 Duncan Agnew 20031030 00:39:56UTC            PGM / RUN BY / DATE
                                                            COMMENT
L2: 1 -> 1; 150 -> 5; 250 -> 9                              COMMENT
L2: 1 -> 1; 150 -> 5; 250 -> 9                              COMMENT
L2: 1 -> 1; 150 -> 5; 250 -> 9                              COMMENT
L2: 1 -> 1; 150 -> 5; 250 -> 9                              COMMENT
L2: 1 -> 1; 150 -> 5; 250 -> 9                              COMMENT
Original Marker Name: CHAP                                  COMMENT
Campaign Name: CSUSB 2002-2003                              COMMENT
4-Character Station Name: CH2P                              COMMENT
6-Character Antenna Code: DMRCHT                            COMMENT
Vertical Measurement Point: BCR                             COMMENT
Vertical Offset to Rinex Ref. Point: 0.0348                 COMMENT
Radial Measurement Point: ECF                               COMMENT
Radial Offset to Rinex Ref. Point: 0.1897                   COMMENT
Antenna Height from Field Measurement: 1.0430 m             COMMENT
Additional Antenna Identification Info.:                    COMMENT
Turborogue and Ashtech Choke Ring                           COMMENT
Original XYZ: -2424309.5100 -4695156.6800 3560865.8300      COMMENT
New XYZ position is based on association with SCEC monument COMMENT
E1D0S4X6+0011. Position of that monument is believed to be  COMMENT
valid to within 1 m horizontally; vertical accuracy         COMMENT
should be no worse than 3-times this value.                 COMMENT
                                                            COMMENT
Revised Rinex header created by UCSD GPS archive for        COMMENT
GSAC on 09-Nov-2004 (2004:314) 22:43:28 GMT                 COMMENT
For assistance contact dagnew@ucsd.edu                      COMMENT
or anderson@python.ucsd.edu                                 COMMENT
                                                            COMMENT
UNKNOWN                                                     MARKER NAME
___ CAL STATE SAN BERNARDINO                                OBSERVER / AGENCY
1602 ASHTECH Z-X ZB00                                       REC # / TYPE / VERS
1403 DORNE-MARGOL. TYPE T                                   ANT # / TYPE
 -2424285.0000 -4695165.0000  3560857.0000                  APPROX POSITION XYZ
        0.9908        0.0000        0.0000                  ANTENNA: DELTA H/E/N
     1     1     0                                          WAVELENGTH FACT L1/2
     7    C1    L1    L2    P1    P2    S1    S2            # / TYPES OF OBSERV
     0                                                      INTERVAL
  2002     7     1    17     6   40.000000                  TIME OF FIRST OBS
  2002     7     2     0    59   40.000000                  TIME OF LAST OBS
                                                            END OF HEADER
 02  7  1 17  6 40.0000000  0  5G18G17G15G 6G29
  20709794.412    10752668.25353   8382527.54552  20709795.723    20709792.453
        56.000          50.000
  20763731.462    10795512.83353   8415951.76852  20763732.090    20763729.981
        55.000          49.000
  20847959.061    10764149.14153   8392915.23852  20847959.584    20847958.115
        56.000          49.000
  20902603.722    10944661.09553   8521656.18552  20902605.016    20902603.166
        56.000          49.000
  22754054.517     -136284.77753   -108326.69552  22754056.546    22754054.355
        51.000          44.000
 02  7  1 17  7  0.0000000  0  5G18G17G15G 6G29
  20705057.498    10727775.45643   8363130.57342  20705058.676    20705055.547
        56.000          50.000
  20761848.783    10785619.79543   8408242.91342  20761850.003    20761847.811
        55.000          49.000
  20844082.836    10743779.20143   8377042.57342  20844083.336    20844081.499
        56.000          49.000
  20909932.222    10983172.73043   8551665.22142  20909933.412    20909932.011
        56.000          49.000
  22758472.367     -113068.24043    -90235.89842  22758474.343    22758471.863
        50.000          44.000
 02  7  1 17  7 20.0000000  0  5G18G17G15G 6G29
  20700357.985    10703080.01843   8343887.38442  20700359.224    20700356.278
        56.000          50.000
  20759981.370    10775805.34743   8400595.29242  20759982.199    20759980.213
        55.000          49.000
  20840223.251    10723497.18443   8361238.41642  20840223.935    20840222.109
        56.000          49.000
  20917300.704    11021893.96043   8581837.57242  20917302.038    20917299.904
        56.000          49.000
  22762934.756      -89615.31443    -71960.91242  22762935.823    22762935.149
        50.000          44.000
 02  7  1 17  7 40.0000000  0  5G18G17G15G 6G29
  20695694.809    10678574.86843   8324792.47442  20695696.277    20695692.982
        56.000          50.000
  20758127.397    10766062.91443   8393003.79442  20758128.050    20758126.469
        55.000          49.000
  20836379.125    10703296.33043   8345497.50342  20836379.959    20836378.029
        56.000          49.000
  20924707.514    11060817.54243   8612167.60142  20924708.821    20924706.971
        56.000          49.000
  22767441.583      -65933.10543    -53507.26142  22767443.246    22767442.007
        50.000          44.000
 02  7  1 17  8  0.0000000  0  5G18G17G15G 6G29
  20691069.867    10654271.03043   8305854.42642  20691071.344    20691067.942
        56.000          50.000
  20756289.369    10756403.38343   8385476.88442  20756290.110    20756288.287
        55.000          49.000
  20832552.476    10683187.60943   8329828.37842  20832553.534    20832551.737
        56.000          49.000
  20932155.067    11099954.24143   8642663.69342  20932156.592    20932155.029
        56.000          49.000
  22771993.954      -42011.20243    -34866.83542  22771996.293    22771994.046
        50.000          44.000
 02  7  1 17  8 20.0000000  0  5G18G17G15G 6G29
  20686479.321    10630147.54543   8287056.91642  20686480.623    20686477.261
        56.000          50.000
  20754463.004    10746806.28543   8377998.63142  20754464.032    20754461.778
        55.000          49.000
  20828739.500    10663150.40543   8314214.98342  20828740.375    20828738.824
        56.000          49.000
  20939639.067    11139282.87043   8673309.34742  20939640.550    20939638.484
        56.000          49.000
  22776587.966      -17870.57543    -16055.96042  22776590.535    22776587.101
        50.000          44.000
 02  7  1 17  8 40.0000000  0  8G18G 2G17G15G23G 6G29G21
  20681920.604    10606191.47443   8268389.85942  20681921.833    20681918.470
        56.000          50.000
  25046997.955     -209492.81253   -143054.23452  25047000.839    25047000.589
        38.000          36.000
  20752646.141    10737258.44843   8370558.75942  20752647.117    20752644.815
        55.000          49.000
  20824937.689    10643171.78743   8298647.24042  20824938.258    20824936.915
        55.000          49.000
  22087635.340      -21291.25253    -26732.85552  22087636.652    22087634.472
        54.000          47.000
  20947157.113    11178790.00043   8704094.09042  20947158.701    20947156.605
        56.000          49.000
  22781220.405        6475.45443      2914.96142  22781221.797    22781220.602
        50.000          44.000
  22922510.642     -272985.62953   -187968.02752  22922511.902    22922511.516
        50.000          43.000
 02  7  1 17  9  0.0000000  0  8G18G 2G17G15G23G 6G29G21
  20677404.057    10582456.43043   8249895.02942  20677405.412    20677402.236
        56.000          50.000
  25043128.758     -229836.49943   -158906.44242  25043129.753    25043133.417
        41.000          36.000
  20750848.877    10727813.59443   8363199.13442  20750849.353    20750847.407
        55.000          49.000
  20821157.268    10623305.23143   8283166.81542  20821157.860    20821156.379
        56.000          49.000
  22096658.582       26126.30543     10215.87242  22096659.328    22096657.785
        54.000          47.000
  20954719.045    11218528.73943   8735059.30642  20954720.757    20954718.498
        56.000          49.000
  22785902.426       31080.02043     22087.33142  22785904.883    22785903.233
        49.000          44.000
  22913825.723     -318626.65343   -223532.42342  22913826.008    22913826.062
        50.000          43.000
 02  7  1 17  9 20.0000000  0  8G18G 2G17G15G23G 6G29G21
  20672923.928    10558913.30043   8231549.74442  20672925.247    20672922.350
        56.000          50.000
  25039294.780     -249991.77143   -174611.84442  25039297.415    25039297.372
        43.000          37.000
  20749065.732    10718442.94043   8355897.32742  20749066.170    20749064.251
        55.000          49.000
  20817392.588    10603521.99643   8267751.31542  20817393.602    20817391.587
        56.000          49.000
  22105696.401       73623.41843     47226.58942  22105697.629    22105695.979
        54.000          47.000
  20962319.620    11258469.81443   8766182.18842  20962321.408    20962319.014
        56.000          49.000
  22790628.896       55913.74143     41438.26742  22790630.311    22790628.868
        50.000          44.000
  22905162.470     -364149.90143   -259005.05142  22905163.157    22905163.932
        50.000          43.000
 02  7  1 17  9 40.0000000  0  8G18G 2G17G15G23G 6G29G21
  20668478.947    10535555.29043   8213348.70742  20668480.582    20668477.248
        56.000          50.000
  25035493.989     -269965.40543   -190175.72542  25035496.398    25035496.429
        43.000          37.000
  20747295.347    10709139.66643   8348648.02442  20747296.121    20747293.789
        56.000          49.000
  20813642.609    10583815.35443   8252395.49742  20813643.570    20813641.146
        56.000          49.000
  22114749.107      121192.71043     84293.55342  22114750.078    22114747.745
        54.000          47.000
  20969957.494    11298606.08443   8797457.16942  20969958.875    20969956.700
        56.000          49.000
  22795396.407       80969.44643     60962.17742  22795397.791    22795396.903
        50.000          44.000
  22896520.996     -409562.22943   -294391.25642  22896522.428    22896521.132
        50.000          43.000
 02  7  1 17 10  0.0000000  0  8G18G 2G17G15G23G 6G29G21
  20664069.993    10512385.60543   8195294.42042  20664071.432    20664068.191
        56.000          50.000
  25031727.311     -289753.77943   -205595.23142  25031729.301    25031731.581
        43.000          38.000
  20745538.574    10699907.56943   8341454.18542  20745539.383    20745537.154
        55.000          49.000
  20809907.776    10564188.94743   8237102.20142  20809908.826    20809906.637
        56.000          49.000
  22123815.234      168837.02543    121418.97142  22123816.538    22123814.681
        53.000          47.000
  20977632.806    11338940.63643   8828886.65742  20977634.395    20977632.225
        56.000          49.000
  22800206.934      106250.27743     80661.50742  22800208.190    22800206.932
        50.000          44.000
  22887901.130     -454860.07443   -329688.24542  22887903.078    22887902.987
        51.000          43.000
 02  7  1 17 10 20.0000000  0  8G18G 2G17G15G23G 6G29G21
  20659697.913    10489409.42343   8177390.91142  20659699.300    20659695.957
        56.000          50.000
  25027998.791     -309351.56643   -220866.19242  25027997.856    25028001.060
        42.000          38.000
  20743796.319    10690751.78743   8334319.81242  20743797.214    20743795.131
        56.000          49.000
  20806189.138    10544648.07343   8221875.55142  20806190.060    20806188.243
        56.000          49.000
  22132896.603      216561.00843    158606.46842  22132897.815    22132896.569
        53.000          46.000
  20985346.982    11379478.32843   8860474.42742  20985348.716    20985346.676
        56.000          49.000
  22805062.000      131761.14943    100540.09142  22805063.803    22805061.608
        49.000          43.000
  22879304.071     -500038.28743   -364892.01842  22879304.871    22879304.310
        51.000          43.000
 02  7  1 17 10 40.0000000  0  8G18G 2G17G15G23G 6G29G21
  20655361.456    10466622.23043   8159634.67042  20655363.080    20655359.623
        56.000          50.000
  25024304.150     -328763.20243   -235992.13442  25024304.630    25024307.982
        42.000          37.000
  20742067.553    10681667.94743   8327241.49842  20742068.470    20742066.149
        56.000          49.000
  20802486.200    10525188.21043   8206712.03042  20802486.917    20802485.285
        56.000          49.000
  22141992.783      264359.40143    195851.94342  22141993.873    22141991.623
        54.000          47.000
  20993098.944    11420214.24343   8892216.66542  20993100.205    20993098.622
        56.000          49.000
  22809958.940      157497.27343    120594.20742  22809960.511    22809959.219
        49.000          43.000
  22870728.359     -545100.96243   -400005.76442  22870730.643    22870729.282
        51.000          44.000
 02  7  1 17 11  0.0000000  0  8G18G 2G17G15G23G 6G29G21
  20651062.709    10444032.14543   8142032.02042  20651064.281    20651060.572
        56.000          50.000
  25020648.245     -347980.56443   -250966.71242  25020649.913    25020649.838
        44.000          37.000
  20740354.451    10672664.30043   8320225.67442  20740355.087    20740353.073
        56.000          49.000
  20798800.125    10505817.58243   8191618.04042  20798801.190    20798799.588
        56.000          49.000
  22151103.697      312239.64943    233161.20442  22151104.994    22151103.517
        53.000          47.000
  21000889.639    11461156.09043   8924119.36642  21000891.185    21000889.610
        56.000          49.000
  22814901.035      183466.20643    140829.72042  22814902.178    22814901.059
        49.000          43.000
  22862176.706     -590040.22343   -435023.34842  22862178.593    22862178.746
        51.000          43.000
 02  7  1 17 11 20.0000000  0  8G18G 2G17G15G23G 6G29G21
  20646800.508    10421633.56743   8124578.59742  20646801.815    20646798.393
        56.000          50.000
  25017027.862     -367008.97343   -265794.06142  25017028.105    25017029.744
        44.000          37.000
  20738655.294    10663735.56643   8313268.22342  20738656.216    20738654.044
        55.000          49.000
  20795130.081    10486530.81043   8176589.38942  20795131.041    20795129.247
        56.000          49.000
  22160230.022      360195.75643    270529.57242  22160231.011    22160228.599
        53.000          47.000
  21008718.892    11502298.10343   8956178.03842  21008720.188    21008718.913
        55.000          49.000
  22819886.330      209662.10443    161242.09342  22819887.318    22819886.053
        49.000          44.000
  22853648.101     -634861.03743   -469948.62642  22853648.058    22853649.085
        51.000          43.000
 02  7  1 17 11 40.0000000  0  8G18G 2G17G15G23G 6G29G21
  20642575.396    10399431.22143   8107278.08042  20642576.710    20642573.486
        56.000          50.000
  25013442.198     -385843.50243   -280470.33042  25013443.588    25013446.732
        43.000          37.000
  20736971.593    10654886.64043   8306372.96142  20736971.967    20736969.956
        56.000          49.000
  20791476.786    10467332.98143   8161630.04342  20791477.769    20791475.852
        56.000          49.000
  22169370.722      408231.95143    307960.34742  22169371.673    22169370.968
        53.000          46.000
  21016586.921    11543644.73443   8988396.15942  21016588.350    21016586.810
        55.000          49.000
  22824914.504      236089.53643    181834.88142  22824917.202    22824917.441
        50.000          43.000
  22845142.238     -679558.49743   -504777.78942  22845143.523    22845142.169
        51.000          43.000
 02  7  1 17 12  0.0000000  0  8G18G 2G17G15G23G 6G29G21
  20638386.790    10377419.41443   8090126.03642  20638388.193    20638384.706
        56.000          50.000
  25009892.294     -404489.88343   -294999.93442  25009894.664    25009899.610
        42.000          37.000
  20735301.789    10646112.11943   8299535.67342  20735302.434    20735300.394
        56.000          49.000
  20787839.290    10448218.41543   8146735.58342  20787840.152    20787838.348
        56.000          49.000
  22178525.843      456341.84543    345448.55142  22178527.234    22178525.344
        53.000          46.000
  21024492.662    11585189.89143   9020768.97742  21024494.259    21024492.662
        56.000          49.000
  22829987.035      262742.49543    202603.39542  22829988.651    22829986.732
        50.000          43.000
  22836659.058     -724138.65043   -539515.54142  22836660.360    22836659.637
        51.000          44.000
 02  7  1 17 12 20.0000000  0  8G18G 2G17G15G23G 6G29G21
  20634235.409    10355604.15543   8073127.14342  20634236.705    20634233.321
        56.000          50.000
  25006383.576     -422941.77843   -309377.98842  25006383.405    25006384.671
        43.000          37.000
  20733647.211    10637417.88743   8292760.94942  20733647.888    20733645.762
        56.000          49.000
  20784219.186    10429193.40743   8131910.90342  20784220.178    20784218.110
        56.000          49.000
  22187696.150      504530.91143    382998.45142  22187697.586    22187695.164
        53.000          46.000
  21032437.414    11626939.21243   9053300.88042  21032438.730    21032437.058
        55.000          49.000
  22835102.668      289626.53543    223552.00042  22835104.702    22835101.504
        50.000          43.000
  22828199.156     -768595.12143   -574156.92342  22828199.991    22828199.268
        51.000          44.000
 02  7  1 17 12 40.0000000  0  8G18G 2G17G15G23G 6G29G21
  20630119.879    10333976.32543   8056274.29842  20630121.484    20630118.168
        56.000          50.000
  25002906.470     -441208.14443   -323611.55042  25002907.138    25002911.817
        43.000          37.000
  20732006.276    10628795.36943   8286042.10442  20732007.054    20732005.118
        56.000          49.000
  20780614.048    10410249.05543   8117149.07142  20780614.547    20780613.125
        56.000          49.000
  22196879.135      552789.61843    420602.61342  22196880.590    22196877.986
        53.000          46.000
  21040419.264    11668883.46043   9085984.67642  21040420.492    21040418.697
        56.000          49.000
  22840260.212      316732.32443    244673.37442  22840261.994    22840261.171
        49.000          43.000
  22819760.724     -812936.58343   -608708.68742  22819762.192    22819762.529
        51.000          43.000
 02  7  1 17 13  0.0000000  0  8G18G 2G17G15G23G 6G29G21
  20626041.206    10312543.27543   8039573.23042  20626042.214    20626039.222
        56.000          50.000
  24999467.849     -459281.56943   -337694.74042  24999469.480    24999471.175
        43.000          37.000
  20730380.524    10620252.09243   8279385.00942  20730381.291    20730379.262
        55.000          49.000
  20777025.811    10391392.90443   8102455.96942  20777026.857    20777024.542
        56.000          49.000
  22206077.034      601124.76043    458266.33642  22206078.567    22206076.679
        53.000          46.000
  21048439.470    11711029.66543   9118825.84242  21048441.037    21048439.304
        55.000          49.000
  22845462.750      344066.91243    265973.03242  22845464.593    22845462.093
        49.000          43.000
  22811346.816     -857155.71943   -643165.12642  22811347.966    22811346.461
        51.000          44.000
 02  7  1 17 13 20.0000000  0  8G18G 2G17G15G23G 6G29G21
  20621998.770    10291299.66643   8023019.77642  20622000.129    20621996.811
        56.000          50.000
  24996062.992     -477167.41743   -351631.78242  24996065.486    24996067.777
        41.000          37.000
  20728768.972    10611782.70543   8272785.48642  20728770.012    20728767.864
        56.000          49.000
  20773453.429    10372619.65643   8087827.46642  20773454.300    20773452.489
        56.000          49.000
  22215288.299      649530.22143    495984.85642  22215289.980    22215288.106
        53.000          46.000
  21056496.949    11753371.87843   9151819.73742  21056498.540    21056496.436
        56.000          49.000
  22850706.295      371624.49743    287446.46642  22850707.874    22850705.841
        50.000          43.000
  22802954.306     -901257.70143   -677530.28642  22802956.103    22802954.338
        51.000          44.000
 02  7  1 17 13 40.0000000  0  8G18G 2G17G15G23G 6G29G21
  20617992.893    10270247.94743   8006615.85142  20617994.226    20617991.022
        56.000          50.000
  24992697.080     -494862.94343   -365420.48842  24992696.870    24992698.413
        42.000          37.000
  20727171.786    10603389.90243   8266245.64242  20727172.752    20727170.575
        55.000          49.000
  20769897.402    10353931.97143   8073265.63642  20769898.414    20769896.664
        56.000          49.000
  22224513.585      698007.94243    533759.68642  22224515.258    22224512.750
        53.000          46.000
  21064592.100    11795912.41243   9184968.17342  21064593.427    21064591.757
        55.000          48.000
  22855992.834      399407.33543    309095.43342  22855994.572    22855993.956
        49.000          43.000
  22794584.420     -945239.86743   -711802.07042  22794586.257    22794585.656
        51.000          44.000
 02  7  1 17 14  0.0000000  0  8G18G 2G17G15G23G 6G29G21
  20614023.285    10249388.10043   7990361.43142  20614024.464    20614021.300
        56.000          50.000
  24989365.699     -512368.06543   -379060.85942  24989365.931    24989368.508
        42.000          37.000
  20725589.551    10595074.04843   8259765.75842  20725590.543    20725588.120
        56.000          49.000
  20766357.581    10335330.18443   8058770.73842  20766358.351    20766356.739
        56.000          49.000
  22233752.211      746557.45543    571590.45142  22233753.535    22233751.976
        53.000          46.000
  21072724.981    11838650.97843   9218270.91642  21072726.785    21072724.919
        55.000          48.000
  22861323.166      427415.22643    330919.73342  22861323.972    22861323.892
        49.000          43.000
  22786238.233     -989102.12443   -745980.41942  22786238.840    22786238.738
        51.000          44.000
 02  7  1 17 14 20.0000000  0  8G18G 2G17G15G23G 6G29G21
  20610090.231    10228719.79343   7974256.26542  20610091.587    20610088.388
        56.000          50.000
  24986070.030     -529682.95543   -392552.99642  24986070.842    24986071.612
        44.000          36.000
  20724021.685    10586834.92043   8253345.66142  20724022.336    20724020.073
        56.000          49.000
  20762834.006    10316814.11843   8044342.64142  20762834.505    20762833.005
        56.000          49.000
  22243004.073      795177.97443    609476.54342  22243005.772    22243003.617
        53.000          46.000
  21080895.408    11881586.94343   9251727.47742  21080896.896    21080895.164
        55.000          48.000
  22866696.526      455647.50943    352918.91442  22866697.647    22866696.200
        50.000          43.000
  22777914.013    -1032844.48643   -780065.34542  22777915.189    22777915.319
        51.000          44.000
 02  7  1 17 14 40.0000000  0  9G18G 2G17G15G23G 6G29G21G22
  20606193.862    10208243.98143   7958301.09642  20606195.451    20606191.791
        56.000          50.000
  24982811.287     -546806.41043   -405895.95742  24982813.741    24982815.417
        42.000          37.000
  20722468.570    10578673.87843   8246986.41242  20722469.453    20722467.440
        56.000          49.000
  20759327.197    10298384.88443   8029982.19842  20759327.922    20759325.971
        56.000          49.000
  22252270.074      843869.91543    647418.29142  22252271.213    22252269.536
        53.000          46.000
  21089103.710    11924720.93443   9285338.34242  21089105.055    21089103.606
        55.000          48.000
  22872109.130      484104.73043    375093.36842  22872111.429    22872109.157
        49.000          43.000
  22769613.138    -1076465.84343   -814055.98242  22769614.799    22769615.151
        51.000          44.000
  23655526.363    -1514370.51453  -1180924.74752  23655525.284    23655527.948
        45.000          40.000
 02  7  1 17 15  0.0000000  0  9G18G 2G17G15G23G 6G29G21G22
  20602334.113    10187960.84043   7942496.05842  20602335.560    20602332.163
        56.000          50.000
  24979590.522     -563738.20543   -419089.55142  24979591.606    24979592.017
        43.000          37.000
  20720930.457    10570591.09143   8240688.14242  20720931.605    20720929.448
        55.000          49.000
  20755836.782    10280043.02743   8015689.85042  20755837.325    20755835.997
        56.000          49.000
  22261549.593      892632.81343    685415.33342  22261550.682    22261549.426
        53.000          46.000
  21097349.434    11968052.72843   9319103.34442  21097350.630    21097349.550
        55.000          48.000
  22877570.177      512786.72543    397442.94942  22877572.570    22877568.699
        50.000          43.000
  22761335.892    -1119965.93943   -847952.12642  22761337.161    22761336.705
        51.000          44.000
  23658702.725    -1497686.77843  -1167924.44842  23658702.212    23658701.412
        47.000          40.000
 02  7  1 17 15 20.0000000  0  9G18G 2G17G15G23G 6G29G21G22
  20598510.236    10167866.12243   7926837.84242  20598511.482    20598508.492
        56.000          50.000
  24976403.415     -580482.48743   -432137.07142  24976403.897    24976407.285
        43.000          37.000
  20719406.523    10562582.60543   8234447.76842  20719407.469    20719405.477
        55.000          49.000
  20752362.293    10261784.35943   8001462.31942  20752363.054    20752361.058
        56.000          49.000
  22270841.040      941461.88043    723463.93142  22270842.559    22270841.099
        53.000          46.000
  21105632.156    12011577.79043   9353018.94042  21105633.569    21105631.263
        55.000          48.000
  22883069.406      541688.78643    419964.03142  22883071.223    22883070.820
        50.000          43.000
  22753079.742    -1163348.53943   -881756.70842  22753081.315    22753080.826
        51.000          44.000
  23661916.724    -1480802.33243  -1154767.78642  23661916.519    23661913.411
        47.000          40.000
 02  7  1 17 15 40.0000000  0  9G18G 2G17G15G23G 6G29G21G22
  20594722.617    10147962.79443   7911328.76142  20594724.114    20594720.698
        56.000          50.000
  24973253.912     -597036.12943   -445036.00742  24973254.082    24973256.123
        43.000          37.000
  20717897.409    10554651.74043   8228267.87542  20717897.897    20717896.183
        56.000          49.000
  20748904.307    10243612.11543   7987302.13342  20748905.138    20748903.441
        56.000          49.000
  22280146.248      990359.67643    761566.08242  22280147.059    22280145.496
        53.000          46.000
  21113951.941    12055298.91643   9387087.31142  21113953.563    21113951.658
        55.000          48.000
  22888609.331      570813.88343    442658.89042  22888611.408    22888610.579
        49.000          43.000
  22744847.560    -1206610.65443   -915467.41042  22744848.898    22744847.935
        51.000          44.000
  23665168.321    -1463714.55743  -1141452.68342  23665168.707    23665166.580
        48.000          40.000
 02  7  1 17 16  0.0000000  0  9G18G 2G17G15G23G 6G29G21G22
  20590971.852    10128251.01843   7895968.94442  20590972.947    20590969.606
        56.000          50.000
  24970140.338     -613398.82943   -457786.15742  24970140.727    24970142.808
        44.000          37.000
  20716403.235    10546798.84143   8222148.73842  20716403.792    20716401.817
        56.000          49.000
  20745462.565    10225526.64143   7973209.56342  20745463.530    20745461.840
        56.000          49.000
  22289464.208     1039325.94743    799721.59842  22289465.438    22289463.914
        53.000          46.000
  21122309.102    12099215.82443   9421308.23942  21122310.841    21122309.018
        55.000          48.000
  22894196.674      600161.69343    465527.31042  22894197.908    22894195.183
        49.000          43.000
  22736638.140    -1249752.19943   -949084.15542  22736639.239    22736639.385
        51.000          44.000
  23668458.174    -1446423.66343  -1127979.30542  23668459.193    23668457.310
        47.000          40.000
 02  7  1 17 16 20.0000000  0  9G18G 2G17G15G23G 6G29G21G22
  20587257.328    10108731.81443   7880759.18142  20587259.032    20587255.006
        56.000          50.000
  24967063.174     -629569.27043   -470386.51342  24967064.131    24967065.815
        43.000          38.000
  20714923.723    10539025.37043   8216091.49042  20714924.736    20714922.495
        56.000          49.000
  20742037.777    10207529.30943   7959185.67442  20742038.470    20742036.652
        56.000          49.000
  22298795.236     1088361.20043    837930.85942  22298796.728    22298795.234
        53.000          46.000
  21130703.505    12143329.26743   9455682.31342  21130704.861    21130703.272
        55.000          48.000
  22899823.518      629732.94743    488569.83742  22899824.786    22899822.880
        50.000          43.000
  22728451.412    -1292771.71943   -982605.82442  22728453.689    22728451.226
        51.000          44.000
  23671786.904    -1428929.12243  -1114347.22142  23671787.291    23671789.408
        46.000          40.000
 02  7  1 17 16 40.0000000  0  9G18G 2G17G15G23G 6G29G21G22
  20583578.923    10089401.26043   7865696.42042  20583580.347    20583577.082
        56.000          50.000
  24964021.610     -645551.47743   -482840.17842  24964023.211    24964024.963
        44.000          37.000
  20713458.903    10531327.28743   8210092.98342  20713459.814    20713457.651
        56.000          49.000
  20738629.075    10189616.42343   7945227.58342  20738629.672    20738628.122
        56.000          49.000
  22308138.947     1137460.84643    876190.30642  22308140.011    22308138.401
        53.000          46.000
  21139134.616    12187634.89843   9490206.14442  21139135.885    21139134.464
        55.000          48.000
  22905491.543      659523.32743    511783.09942  22905492.659    22905493.276
        49.000          43.000
  22720287.648    -1335673.01243  -1016035.36842  22720289.345    22720288.259
        51.000          44.000
  23675154.157    -1411235.38243  -1100559.91142  23675154.844    23675155.834
        47.000          40.000
 02  7  1 17 17  0.0000000  0  9G18G 2G17G15G23G 6G29G21G22
  20579937.353    10070264.51243   7850784.67842  20579938.614    20579935.130
        56.000          50.000
  24961016.374     -661340.06843   -495142.97042  24961016.384    24961021.590
        41.000          37.000
  20712009.335    10523710.16443   8204157.56342  20712010.206    20712007.982
        55.000          49.000
  20735237.594    10171793.23643   7931339.39442  20735238.288    20735236.545
        56.000          49.000
  22317495.176     1186629.48543    914503.50842  22317496.254    22317494.199
        53.000          46.000
  21147603.368    12232137.51543   9524883.46742  21147604.776    21147603.152
        55.000          48.000
  22911203.790      689537.75843    535170.95642  22911205.924    22911203.517
        50.000          43.000
  22712147.354    -1378451.00843  -1049368.82542  22712149.403    22712147.522
        51.000          44.000
  23678560.661    -1393337.71743  -1086613.69142  23678561.806    23678561.799
        47.000          41.000
 02  7  1 17 17 20.0000000  0  9G18G 2G17G15G23G 6G29G21G22
  20576331.426    10051315.69643   7836019.37542  20576332.782    20576329.162
        56.000          50.000
  24958049.351     -676940.79743   -507299.38342  24958050.908    24958053.321
        43.000          37.000
  20710574.336    10516168.27043   8198280.76042  20710574.969    20710573.105
        56.000          49.000
  20731861.781    10154054.13743   7917516.72442  20731862.653    20731860.660
        56.000          49.000
  22326863.484     1235860.82143    952865.56842  22326864.694    22326863.320
        53.000          46.000
  21156108.200    12276830.93743   9559709.47042  21156109.660    21156107.944
        55.000          48.000
  22916957.074      719769.94943    558728.50542  22916958.906    22916955.915
        50.000          43.000
  22704029.341    -1421111.27843  -1082610.55942  22704030.458    22704029.084
        51.000          44.000
  23682003.381    -1375242.60243  -1072513.61942  23682004.198    23682005.363
        47.000          40.000
 02  7  1 17 17 40.0000000  0  9G18G 2G17G15G23G 6G29G21G22
  20572761.996    10032558.75743   7821403.58742  20572763.414    20572760.017
        56.000          50.000
  24955116.242     -692349.64943   -519306.28742  24955117.279    24955120.395
        43.000          37.000
  20709154.287    10508705.99343   8192466.00042  20709155.179    20709153.215
        56.000          49.000
  20728503.273    10136403.42343   7903762.92342  20728504.108    20728501.952
        56.000          49.000
  22336244.988     1285158.40443    991279.24842  22336246.450    22336244.316
        53.000          46.000
  21164650.271    12321718.98443   9594687.12842  21164651.691    21164649.991
        55.000          48.000
  22922751.505      750223.55543    582458.57342  22922755.329    22922753.494
        50.000          43.000
  22695934.435    -1463649.43343  -1115757.12842  22695936.424    22695935.086
        51.000          44.000
  23685485.808    -1356946.34743  -1058256.82442  23685485.885    23685485.072
        47.000          40.000
 02  7  1 17 18  0.0000000  0  9G18G 2G17G15G23G 6G29G21G22
  20569229.021    10013992.77643   7806936.59542  20569230.509    20569227.073
        56.000          50.000
  24952220.293     -707567.35443   -531164.24642  24952220.689    24952223.520
        42.000          37.000
  20707749.274    10501322.67643   8186712.76342  20707750.299    20707747.826
        56.000          49.000
  20725160.859    10118840.39143   7890077.44642  20725161.762    20725159.855
        56.000          49.000
  22345638.427     1334520.90243   1029743.51442  22345639.313    22345638.054
        53.000          46.000
  21173228.948    12366800.43743   9629815.49042  21173230.278    21173228.430
        55.000          48.000
  22928589.154      780897.41043    606360.25642  22928590.281    22928588.206
        49.000          43.000
  22687862.556    -1506066.32043  -1148809.21042  22687864.344    22687863.305
        51.000          44.000
  23689005.293    -1338450.31743  -1043844.36942  23689006.697    23689006.077
        47.000          40.000
 02  7  1 17 18 20.0000000  0  9G18G 2G17G15G23G 6G29G21G22
  20565732.213     9995617.00943   7792617.82542  20565733.525    20565730.150
        56.000          50.000
  24949361.137     -722594.46243   -542873.68142  24949361.903    24949363.656
        44.000          37.000
  20706359.287    10494017.87443   8181020.70742  20706360.028    20706357.779
        56.000          49.000
  20721835.461    10101364.56143   7876459.92142  20721836.207    20721834.241
        56.000          49.000
  22355043.581     1383946.98143   1068257.31342  22355045.126    22355043.912
        53.000          46.000
  21181844.509    12412074.24043   9665093.73442  21181846.201    21181844.581
        55.000          48.000
  22934466.819      811790.42143    630432.73542  22934467.972    22934467.466
        49.000          43.000
  22679814.114    -1548362.40743  -1181767.15542  22679815.236    22679814.311
        51.000          44.000
  23692562.106    -1319755.74143  -1029277.21842  23692561.359    23692563.666
        46.000          40.000
 02  7  1 17 18 40.0000000  0  9G18G 2G17G15G23G 6G29G21G22
  20562271.226     9977429.29743   7778445.59342  20562272.591    20562269.179
        56.000          50.000
  24946536.638     -737432.94743   -554436.14042  24946538.777    24946539.190
        43.000          37.000
  20704983.637    10486789.69343   8175388.35842  20704984.548    20704982.392
        55.000          49.000
  20718526.156    10083974.09643   7862908.91242  20718527.008    20718525.372
        56.000          49.000
  22364460.464     1433434.04343   1106818.63342  22364462.271    22364460.215
        53.000          46.000
  21190495.863    12457537.90143   9700519.92042  21190497.658    21190495.921
        55.000          48.000
  22940388.008      842900.20643    654674.09742  22940389.352    22940388.035
        49.000          43.000
  22671788.001    -1590539.97343  -1214632.75742  22671789.646    22671789.429
        52.000          44.000
  23696156.636    -1300865.25943  -1014557.37442  23696156.021    23696158.257
        46.000          40.000
 02  7  1 17 19  0.0000000  0  9G18G 2G17G15G23G 6G29G21G22
  20558846.527     9959432.30343   7764421.97142  20558848.023    20558844.725
        56.000          50.000
  24943749.676     -752079.80243   -565849.29142  24943750.344    24943754.215
        43.000          37.000
  20703623.239    10479641.20043   8169818.10442  20703624.070    20703622.002
        56.000          49.000
  20715233.621    10066671.97743   7849426.74342  20715234.106    20715232.807
        56.000          49.000
  22373890.075     1482984.52743   1145429.37942  22373891.029    22373889.133
        53.000          46.000
  21199183.822    12503193.84843   9736095.94042  21199185.501    21199183.816
        55.000          48.000
  22946349.784      874229.22243    679086.30342  22946352.101    22946349.364
        50.000          43.000
  22663785.102    -1632595.61043  -1247403.34842  22663785.851    22663786.403
        51.000          44.000
  23699789.971    -1281776.37143   -999682.95042  23699789.695    23699789.795
        47.000          40.000
 02  7  1 17 19 20.0000000  0  9G18G 2G17G15G23G 6G29G21G22
  20555458.128     9941626.00443   7750546.94642  20555459.533    20555456.274
        56.000          50.000
  24940999.752     -766535.26943   -577113.28242  24941002.587    24941003.345
        44.000          37.000
  20702278.468    10472572.69643   8164310.17842  20702279.181    20702277.091
        56.000          49.000
  20711957.839    10049458.27543   7836013.47042  20711958.927    20711956.867
        56.000          49.000
  22383331.051     1532597.67143   1184088.94442  22383332.385    22383330.659
        53.000          46.000
  21207908.503    12549041.68943   9771821.48442  21207910.237    21207908.276
        55.000          48.000
  22952350.815      905776.85543    703668.85342  22952353.422    22952352.239
        48.000          42.000
  22655805.524    -1674529.45443  -1280079.02542  22655806.753    22655806.451
        52.000          44.000
  23703459.185    -1262489.92943   -984654.58642  23703460.606    23703460.148
        46.000          40.000
 02  7  1 17 19 40.0000000  0  9G18G 2G17G15G23G 6G29G21G22
  20552105.864     9924009.93043   7736820.14842  20552107.162    20552103.916
        56.000          50.000
  24938284.823     -780799.88543   -588228.56442  24938288.062    24938286.441
        43.000          37.000
  20700948.406    10465583.48343   8158864.03742  20700949.271    20700946.898
        56.000          49.000
  20708699.044    10032332.76443   7822668.91942  20708699.916    20708697.924
        56.000          49.000
  22392784.127     1582272.41143   1222796.51142  22392784.644    22392783.495
        53.000          46.000
  21216669.333    12595080.40443   9807695.76042  21216670.958    21216668.963
        55.000          48.000
  22958398.466      937542.27943    728421.11442  22958399.837    22958397.531
        49.000          43.000
  22647848.096    -1716342.03543  -1312660.21342  22647849.923    22647848.076
        51.000          44.000
  23707166.853    -1243006.81443   -969472.97642  23707166.223    23707166.069
        46.000          40.000
 02  7  1 17 20  0.0000000  0  9G18G 2G17G15G23G 6G29G21G22
  20548790.161     9906585.82243   7723242.93042  20548791.634    20548788.403
        56.000          50.000
  24935606.630     -794871.66543   -599193.60542  24935606.658    24935610.112
        42.000          37.000
  20699633.883    10458675.91043   8153481.51442  20699634.617    20699632.866
        56.000          49.000
  20705457.574    10015297.62443   7809394.78442  20705458.453    20705456.506
        56.000          49.000
  22402248.312     1632010.13943   1261553.16242  22402249.206    22402248.448
        52.000          46.000
  21225467.048    12641311.49543   9843719.94042  21225468.310    21225466.872
        55.000          48.000
  22964483.527      969526.94043    753344.18842  22964484.799    22964484.800
        49.000          43.000
  22639915.332    -1758031.29443  -1345145.31142  22639915.405    22639916.840
        52.000          44.000
  23710912.062    -1223325.69343   -954137.07242  23710912.475    23710912.906
        46.000          40.000
 02  7  1 17 20 20.0000000  0  9G18G 2G17G15G23G 6G29G21G22
  20545509.407     9889345.25743   7709808.73642  20545510.791    20545507.377
        56.000          50.000
  24932963.851     -808758.80743   -610014.77242  24932965.548    24932967.780
        42.000          37.000
  20698333.365    10451841.77643   8148156.21742  20698334.308    20698331.881
        56.000          49.000
  20702231.483     9998344.53143   7796184.58442  20702232.426    20702230.198
        56.000          49.000
  22411723.492     1681802.09343   1300352.05542  22411725.405    22411723.565
        53.000          46.000
  21234299.303    12687726.22743   9879887.22342  21234300.673    21234299.243
        55.000          48.000
  22970610.929     1001722.21943    778431.41042  22970613.053    22970610.076
        49.000          43.000
  22632004.214    -1799605.30343  -1377540.60042  22632005.061    22632003.903
        52.000          44.000
  23714692.506    -1203455.51443   -938653.84742  23714692.897    23714693.671
        46.000          39.000
 02  7  1 17 20 40.0000000  0 10G18G 2G17G15G23G 6G29G 3G21G22
  20542264.167     9872291.29843   7696519.94842  20542265.351    20542262.177
        56.000          50.000
  24930356.148     -822457.98843   -620689.46042  24930357.588    24930360.162
        42.000          37.000
  20697047.551    10445084.58943   8142890.87642  20697048.206    20697046.358
        56.000          49.000
  20699021.585     9981476.97943   7783041.03742  20699022.710    20699020.434
        56.000          49.000
  22421209.888     1731650.75943   1339195.15542  22421210.607    22421209.401
        52.000          46.000
  21243167.266    12734327.38643   9916199.76742  21243168.722    21243166.903
        55.000          48.000
  22976777.161     1034130.77443    803684.81842  22976779.480    22976779.004
        49.000          43.000
  24629556.238    -2318217.55453  -1788590.89152  24629557.872    24629559.946
        43.000          36.000
  22624115.265    -1841060.89843  -1409843.62742  22624116.780    22624115.671
        52.000          44.000
  23718510.186    -1183393.56143   -923021.17942  23718510.388    23718511.736
        45.000          40.000
 02  7  1 17 21  0.0000000  0 10G18G 2G17G15G23G 6G29G 3G21G22
  20539056.440     9855434.36943   7683384.69042  20539057.682    20539054.393
        56.000          50.000
  24927787.473     -835958.96843   -631209.70442  24927789.042    24927791.398
        42.000          37.000
  20695778.445    10438414.82943   8137693.65842  20695779.366    20695777.060
        56.000          49.000
  20695829.931     9964705.51243   7769972.36642  20695830.700    20695828.952
        56.000          49.000
  22430708.065     1781565.98343   1378090.10142  22430709.900    22430708.347
        52.000          45.000
  21252072.523    12781124.89343   9952665.31542  21252073.954    21252072.354
        55.000          48.000
  22982988.122     1066762.51843    829112.11142  22982989.133    22982987.713
        50.000          43.000
  24616762.175    -2385454.47043  -1840983.24542  24616764.544    24616765.706
        43.000          36.000
  22616251.218    -1882387.60743  -1442046.21842  22616252.228    22616251.100
        52.000          44.000
  23722367.204    -1163130.06643   -907231.46542  23722365.247    23722367.709
        46.000          40.000
 02  7  1 17 21 20.0000000  0 10G18G 2G17G15G23G 6G29G 3G21G22
  20535884.585     9838767.28043   7670397.36142  20535886.476    20535882.699
        56.000          50.000
  24925255.173     -849268.51643   -641580.79042  24925256.947    24925258.577
        43.000          37.000
  20694524.527    10431825.85543   8132559.39542  20694525.370    20694523.098
        56.000          49.000
  20692655.645     9948023.43243   7756973.34942  20692656.466    20692654.516
        56.000          49.000
  22440217.949     1831540.34643   1417031.14042  22440218.926    22440217.913
        52.000          45.000
  21261013.918    12828111.55543   9989278.25142  21261015.335    21261013.926
        55.000          48.000
  22989237.819     1099610.13943    854707.66442  22989238.985    22989237.967
        49.000          43.000
  24603977.648    -2452634.40843  -1893331.16842  24603978.744    24603980.542
        43.000          36.000
  22608409.909    -1923592.01943  -1474153.50942  22608410.711    22608411.080
        52.000          44.000
  23726260.012    -1142672.50243   -891290.54342  23726259.391    23726259.240
        46.000          40.000
 02  7  1 17 21 40.0000000  0 10G18G 2G17G15G23G 6G29G 3G21G22
  20532748.744     9822287.81043   7657556.22842  20532750.210    20532746.728
        56.000          50.000
  24922758.164     -862388.87943   -651804.43742  24922759.482    24922763.537
        42.000          37.000
  20693285.600    10425315.83243   8127486.64942  20693286.678    20693284.212
        56.000          49.000
  20689497.713     9931428.84843   7744042.50942  20689498.458    20689496.520
        56.000          49.000
  22449738.643     1881571.25943   1456016.23442  22449740.235    22449738.014
        52.000          45.000
  21269990.757    12875284.81743  10026036.59642  21269992.068    21269990.256
        55.000          48.000
  22995528.838     1132671.18743    880469.49442  22995530.717    22995528.232
        49.000          43.000
  24591204.082    -2519758.71743  -1945635.72342  24591206.025    24591205.981
        44.000          36.000
  22600592.255    -1964676.22843  -1506167.14442  22600592.687    22600591.827
        52.000          44.000
  23730189.330    -1122023.44943   -875200.38942  23730188.178    23730189.075
        46.000          39.000
 02  7  1 17 22  0.0000000  0 10G18G 2G17G15G23G 6G29G 3G21G22
  20529648.701     9805997.21243   7644862.26142  20529650.342    20529646.615
        56.000          50.000
  24920298.800     -875318.77143   -661879.66842  24920298.637    24920303.118
        43.000          37.000
  20692062.152    10418886.08043   8122476.44642  20692062.712    20692060.755
        56.000          49.000
  20686356.995     9914923.03843   7731180.84342  20686357.774    20686355.215
        56.000          49.000
  22459270.603     1931659.27943   1495045.84142  22459270.950    22459269.907
        52.000          45.000
  21279003.298    12922645.43343  10062940.92642  21279004.570    21279003.387
        55.000          48.000
  23001862.279     1165946.40143    906398.19742  23001863.961    23001861.094
        50.000          43.000
  24578441.566    -2586825.59343  -1997895.56942  24578444.551    24578444.730
        43.000          36.000
  22592797.049    -2005638.97643  -1538086.13042  22592798.126    22592797.257
        52.000          44.000
  23734155.757    -1101182.22743   -858960.52342  23734153.794    23734155.081
        46.000          40.000
 02  7  1 17 22 20.0000000  0 10G18G 2G17G15G23G 6G29G 3G21G22
  20526585.185     9789897.36043   7632316.93242  20526586.556    20526583.169
        56.000          50.000
  24917874.953     -888056.11943   -671804.86642  24917875.615    24917877.199
        43.000          37.000
  20690854.274    10412538.89143   8117530.58242  20690855.190    20690853.286
        56.000          49.000
  20683233.150     9898508.27143   7718390.12142  20683233.827    20683232.028
        56.000          49.000
  22468812.441     1981806.00543   1534121.17842  22468813.686    22468812.707
        52.000          45.000
  21288051.595    12970194.99943  10099992.49342  21288053.315    21288051.712
        55.000          48.000
  23008233.985     1199437.34143    932495.04342  23008235.896    23008233.337
        49.000          43.000
  24565690.691    -2653832.33443  -2050108.52842  24565691.001    24565694.354
        43.000          37.000
  22585025.767    -2046478.34943  -1569908.98442  22585026.630    22585026.104
        52.000          44.000
  23738157.977    -1080147.55743   -842569.90342  23738157.689    23738158.213
        46.000          40.000
 02  7  1 17 22 40.0000000  0 10G18G 2G17G15G23G 6G29G 3G21G22
  20523557.234     9773986.37843   7619918.77542  20523558.856    20523555.194
        56.000          50.000
  24915486.646     -900602.58543   -681581.34242  24915487.249    24915489.953
        43.000          37.000
  20689661.938    10406272.77443   8112647.89342  20689662.737    20689660.761
        56.000          49.000
  20680126.631     9882183.19543   7705669.29042  20680127.584    20680125.924
        56.000          49.000
  22478366.454     2032009.16843   1573240.51342  22478367.431    22478365.582
        52.000          45.000
  21297135.674    13017931.37643  10137189.62142  21297137.400    21297135.812
        55.000          48.000
  23014648.687     1233141.92543    958758.32142  23014651.384    23014647.052
        50.000          43.000
  24552950.826    -2720779.65743  -2102275.18642  24552953.011    24552954.495
        42.000          36.000
  22577277.359    -2087195.69243  -1601636.74842  22577278.570    22577277.404
        52.000          45.000
  23742197.381    -1058921.59443   -826030.23742  23742197.579    23742197.479
        46.000          40.000
 02  7  1 17 23  0.0000000  0 10G18G 2G17G15G23G 6G29G 3G21G22
  20520565.420     9758262.56543   7607666.46042  20520566.782    20520563.170
        56.000          50.000
  24913136.045     -912959.61943   -691210.19442  24913136.669    24913139.153
        44.000          37.000
  20688484.728    10400086.39543   8107827.33542  20688485.408    20688483.332
        56.000          49.000
  20677036.896     9865946.44943   7693017.28442  20677037.420    20677035.880
        56.000          49.000
  22487929.569     2082266.71243   1612402.20242  22487931.861    22487929.675
        52.000          45.000
  21306254.777    13065852.56743  10174530.76042  21306256.118    21306254.823
        55.000          48.000
  23021101.632     1267058.08743    985186.48742  23021104.693    23021103.376
        49.000          43.000
  24540222.483    -2787668.41643  -2154396.21842  24540225.149    24540225.078
        43.000          37.000
  22569551.878    -2127792.63043  -1633270.68142  22569552.931    22569552.810
        52.000          45.000
  23746272.654    -1037506.54443   -809343.21742  23746272.518    23746273.828
        47.000          40.000
 02  7  1 17 23 20.0000000  0 10G18G 2G17G15G23G 6G29G 3G21G22
  20517609.244     9742728.68243   7595562.14542  20517610.687    20517607.323
        56.000          50.000
  24910821.064     -925124.54443   -700689.36842  24910820.761    24910823.778
        43.000          37.000
  20687323.198    10393982.65843   8103071.17342  20687324.132    20687321.884
        56.000          49.000
  20673964.447     9849800.95543   7680436.38742  20673965.637    20673963.443
        56.000          49.000
  22497504.548     2132580.83843   1651607.98942  22497505.419    22497504.527
        52.000          45.000
  21315409.464    13113961.00043  10212017.80542  21315411.087    21315409.547
        54.000          48.000
  23027597.634     1301188.32743   1011781.46542  23027599.683    23027597.171
        49.000          43.000
  24527505.425    -2854495.15343  -2206468.90242  24527506.620    24527508.429
        43.000          37.000
  22561849.527    -2168266.51643  -1664808.74542  22561850.594    22561850.909
        52.000          45.000
  23750384.389    -1015900.03043   -792507.00542  23750385.633    23750383.717
        47.000          40.000
 02  7  1 17 23 40.0000000  0 10G18G 2G17G15G23G 6G29G 3G21G22
  20514688.839     9727381.92143   7583603.64142  20514690.067    20514686.900
        56.000          50.000
  24908542.067     -937100.03743   -710020.92342  24908542.811    24908543.539
        43.000          37.000
  20686176.973    10387959.31943   8098377.66142  20686177.772    20686175.530
        56.000          49.000
  20670909.157     9833744.27043   7667924.69042  20670909.965    20670907.886
        56.000          49.000
  22507088.906     2182948.42943   1690855.43442  22507090.081    22507088.192
        52.000          45.000
  21324599.356    13162253.62043  10249648.37142  21324600.915    21324598.888
        54.000          48.000
  23034131.839     1335529.36943   1038540.70842  23034133.722    23034132.402
        49.000          43.000
  24514800.444    -2921261.97143  -2258494.90442  24514801.617    24514801.958
        43.000          36.000
  22554170.922    -2208619.49643  -1696252.59042  22554172.737    22554171.198
        52.000          45.000
  23754532.422     -994105.31343   -775524.13942  23754532.125    23754530.988
        47.000          40.000
 02  7  1 17 24  0.0000000  0 10G18G 2G17G15G23G 6G29G 3G21G22
  20511804.369     9712224.21143   7571792.44542  20511805.833    20511802.498
        56.000          50.000
  24906298.857     -948884.09043   -719203.31442  24906300.829    24906301.214
        43.000          37.000
  20685046.464    10382018.44743   8093748.40642  20685047.560    20685045.106
        56.000          49.000
  20667870.834     9817778.37143   7655483.73342  20667871.664    20667869.828
        56.000          49.000
  22516684.285     2233370.87843   1730145.63042  22516685.607    22516683.326
        52.000          45.000
  21333824.307    13210731.81743  10287423.53842  21333825.965    21333825.057
        55.000          48.000
  23040708.066     1370082.76943   1065465.42542  23040709.339    23040707.207
        49.000          43.000
  24502107.437    -2987966.29043  -2310472.22142  24502109.396    24502109.662
        44.000          37.000
  22546515.089    -2248849.56243  -1727600.65742  22546516.096    22546517.270
        52.000          45.000
  23758716.040     -972121.10643   -758393.62342  23758716.468    23758714.889
        47.000          40.000
 02  7  1 17 24 20.0000000  0 10G18G 2G17G15G23G 6G29G 3G21G22
  20508955.845     9697254.93843   7560128.08542  20508957.429    20508953.948
        56.000          50.000
  24904092.447     -960477.17943   -728236.91142  24904094.963    24904095.807
        42.000          37.000
  20683931.841    10376159.89543   8089183.29842  20683932.634    20683930.447
        56.000          49.000
  20664849.869     9801903.19443   7643113.47142  20664850.693    20664849.191
        56.000          49.000
  22526289.533     2283847.31043   1769477.89542  22526290.622    22526289.112
        52.000          45.000
  21343084.791    13259394.77443  10325342.67842  21343086.151    21343085.076
        54.000          48.000
  23047322.725     1404847.60043   1092554.89142  23047323.532    23047322.932
        49.000          43.000
  24489425.439    -3054607.61443  -2362400.43542  24489428.544    24489428.904
        44.000          37.000
  22538883.287    -2288957.17543  -1758853.31242  22538883.915    22538883.949
        52.000          45.000
  23762934.674     -949948.32943   -741116.18142  23762935.644    23762933.718
        47.000          40.000
 02  7  1 17 24 40.0000000  0 10G18G 2G17G15G23G 6G29G 3G21G22
  20506143.072     9682474.41043   7548610.79742  20506144.581    20506141.039
        56.000          50.000
  24901923.572     -971878.93643   -737121.40442  24901924.002    24901926.753
        42.000          37.000
  20682832.587    10370384.03843   8084682.62642  20682833.441    20682830.876
        56.000          49.000
  20661846.214     9786119.26943   7630814.31042  20661847.114    20661845.200
        56.000          49.000
  22535904.569     2334377.46443   1808852.00342  22535906.372    22535905.288
        52.000          45.000
  21352380.082    13308242.34343  10363405.66742  21352381.642    21352380.274
        54.000          47.000
  23053978.962     1439823.80643   1119809.07342  23053980.402    23053978.477
        49.000          43.000
  24476756.102    -3121184.94543  -2414278.78542  24476757.026    24476756.814
        44.000          37.000
  22531273.966    -2328942.10843  -1790010.37042  22531274.972    22531275.806
        52.000          45.000
  23767189.569     -927587.31243   -723692.03942  23767188.590    23767189.774
        47.000          40.000
 02  7  1 17 25  0.0000000  0 10G18G 2G17G15G23G 6G29G 3G21G22
  20503365.913     9667879.53043   7537238.17242  20503367.276    20503363.606
        56.000          50.000
  24899789.105     -983092.09343   -745858.94342  24899790.024    24899793.947
        43.000          37.000
  20681748.610    10364688.71343   8080244.71042  20681749.526    20681747.503
        55.000          49.000
  20658859.561     9770424.08343   7618584.30142  20658860.583    20658858.148
        56.000          49.000
  22545529.826     2384958.06543   1848265.42642  22545531.204    22545529.898
        52.000          45.000
  21361709.840    13357271.37243  10401610.06242  21361711.681    21361710.355
        54.000          47.000
  23060674.008     1475008.28043   1147225.52142  23060677.209    23060674.769
        49.000          43.000
  24464098.948    -3187700.23243  -2466108.82542  24464099.951    24464101.700
        43.000          37.000
  22523688.291    -2368806.97943  -1821073.87142  22523689.456    22523688.522
        52.000          45.000
  23771480.233     -905041.44343   -706123.85642  23771478.895    23771480.176
        47.000          40.000
 02  7  1 17 25 20.0000000  0 10G18G 2G17G15G23G 6G29G 3G21G22
  20500624.772     9653475.53443   7526014.28642  20500626.308    20500622.718
        56.000          50.000
  24897692.893     -994111.50343   -754445.49842  24897694.307    24897695.961
        43.000          37.000
  20680681.316    10359079.05343   8075873.54242  20680682.254    20680679.911
        56.000          49.000
  20655890.940     9754823.01443   7606427.62542  20655891.815    20655889.569
        56.000          49.000
  22555165.495     2435593.81943   1887721.82342  22555166.996    22555165.698
        52.000          45.000
  21371075.488    13406486.60543  10439959.54242  21371077.361    21371074.458
        54.000          47.000
  23067410.048     1510405.63143   1174807.86442  23067412.686    23067409.206
        49.000          43.000
  24451453.900    -3254147.51143  -2517885.81442  24451454.610    24451455.195
        44.000          37.000
  22516126.203    -2408546.34643  -1852039.58742  22516126.300    22516127.176
        52.000          45.000
  23775806.618     -882305.97943   -688407.94942  23775806.279    23775807.034
        47.000          40.000
 02  7  1 17 25 40.0000000  0 10G18G 2G17G15G23G 6G29G 3G21G22
  20497918.957     9639255.62443   7514933.84342  20497920.133    20497916.929
        56.000          50.000
  24895631.350    -1004943.85543   -762886.30642  24895631.228    24895634.403
        43.000          37.000
  20679629.011    10353548.69943   8071564.16642  20679629.971    20679627.396
        56.000          49.000
  20652938.768     9739309.45843   7594339.13942  20652939.578    20652937.371
        56.000          49.000
  22564811.241     2486277.46943   1927215.55342  22564812.410    22564810.875
        52.000          45.000
  21380474.852    13455880.79643  10478448.47542  21380476.241    21380475.389
        54.000          47.000
  23074184.637     1546008.58043   1202550.39742  23074186.824    23074185.659
        49.000          42.000
  24438821.661    -3320532.90443  -2569614.62042  24438821.475    24438823.551
        44.000          37.000
  22508586.630    -2448167.22743  -1882912.96542  22508587.670    22508586.476
        52.000          45.000
  23780167.841     -859388.20443   -670549.98242  23780167.002    23780170.220
        46.000          40.000
 02  7  1 17 26  0.0000000  0 10G18G 2G17G15G23G 6G29G 3G21G22
  20495249.159     9625225.80143   7504001.51742  20495250.721    20495246.985
        56.000          50.000
  24893607.792    -1015582.97243   -771176.54642  24893608.652    24893609.464
        43.000          37.000
  20678592.983    10348104.06243   8067321.58542  20678593.974    20678591.797
        56.000          49.000
  20650004.475     9723890.00743   7582323.98342  20650005.360    20650003.234
        56.000          49.000
  22574466.019     2537014.74343   1966751.06242  22574466.754    22574466.869
        52.000          45.000
  21389909.491    13505459.78943  10517081.40242  21389911.408    21389909.730
        54.000          47.000
  23081000.789     1581822.99643   1230457.71842  23081002.772    23081001.075
        49.000          42.000
  24426202.535    -3386849.29743  -2621289.66042  24426204.101    24426203.573
        44.000          38.000
  22501070.606    -2487662.86043  -1913688.75642  22501071.545    22501071.087
        52.000          45.000
  23784564.306     -836282.65743   -652545.68942  23784563.329    23784565.521
        46.000          40.000
 02  7  1 17 26 20.0000000  0 10G18G 2G17G15G23G 6G29G 3G21G22
  20492614.879     9611382.65143   7493214.65542  20492616.537    20492612.959
        56.000          50.000
  24891619.294    -1026032.15543   -779318.78442  24891619.947    24891622.264
        43.000          37.000
  20677572.544    10342742.00143   8063143.35042  20677573.163    20677571.261
        56.000          49.000
  20647087.571     9708561.47243   7570379.67542  20647088.278    20647086.577
        56.000          49.000
  22584130.309     2587801.69143   2006325.27342  22584131.724    22584129.752
        52.000          45.000
  21399378.683    13555219.71443  10555855.32742  21399379.985    21399378.846
        54.000          47.000
  23087854.626     1617845.13743   1258526.91042  23087857.237    23087853.479
        49.000          42.000
  24413594.858    -3453099.37243  -2672913.00742  24413595.091    24413596.073
        44.000          38.000
  22493578.041    -2527036.49143  -1944369.48042  22493578.818    22493578.277
        52.000          45.000
  23788996.214     -812993.13043   -634398.04242  23788996.310    23788998.908
        47.000          40.000
 02  7  1 17 26 40.0000000  0 10G18G 2G17G15G23G 6G29G 3G21G22
  20490016.562     9597728.18143   7482574.81442  20490017.882    20490014.292
        56.000          50.000
  24889667.390    -1036289.51243   -787311.54442  24889668.572    24889669.266
        44.000          38.000
  20676568.271    10337464.78543   8059031.22742  20676569.144    20676567.008
        56.000          49.000
  20644188.213     9693326.06643   7558507.93342  20644189.102    20644186.864
        56.000          49.000
  22593804.082     2638639.80443   2045939.35842  22593805.415    22593803.695
        52.000          45.000
  21408882.403    13605162.19643  10594771.49742  21408883.847    21408882.814
        54.000          47.000
  23094749.716     1654076.47243   1286759.09842  23094751.122    23094749.178
        49.000          42.000
  24401001.441    -3519280.32743  -2724482.50342  24401003.399    24401003.461
        44.000          38.000
  22486109.068    -2566285.99743  -1974953.48442  22486110.470    22486109.221
        52.000          45.000
  23793463.584     -789518.34443   -616106.03542  23793461.886    23793466.126
        46.000          40.000
 02  7  1 17 27  0.0000000  0 10G18G 2G17G15G23G 6G29G 3G21G22
  20487452.531     9584255.13443   7472076.34042  20487454.137    20487450.855
        56.000          50.000
  24887751.033    -1046362.04043   -795160.29442  24887751.555    24887753.573
        44.000          38.000
  20675578.918    10332265.75943   8054980.03042  20675579.741    20675577.883
        56.000          49.000
  20641305.485     9678176.99643   7546703.46742  20641306.383    20641304.927
        56.000          49.000
  22603486.878     2689521.61343   2085587.48542  22603488.158    22603486.397
        52.000          45.000
  21418419.478    13655279.82743  10633824.14442  21418421.362    21418420.076
        54.000          47.000
  23101682.341     1690509.50543   1315148.46142  23101685.181    23101682.744
        49.000          42.000
  24388418.870    -3585398.35643  -2776002.96942  24388420.640    24388421.297
        44.000          38.000
  22478662.678    -2605418.56243  -2005446.36342  22478663.361    22478662.251
        52.000          45.000
  23797963.480     -765865.84643   -597675.56742  23797963.371    23797966.859
        47.000          40.000
 02  7  1 17 27 20.0000000  0 10G18G 2G17G15G23G 6G29G 3G21G22
  20484925.392     9570973.90643   7461727.33842  20484926.857    20484923.220
        56.000          50.000
  24885871.484    -1056239.03743   -802856.66242  24885872.734    24885874.860
        45.000          38.000
  20674606.493    10327155.73843   8050998.19342  20674607.649    20674605.170
        56.000          49.000
  20638441.400     9663125.11543   7534974.73242  20638441.954    20638439.881
        56.000          49.000
  22613180.186     2740457.39443   2125277.68342  22613181.465    22613179.233
        52.000          45.000
  21427991.864    13705582.80343  10673021.21742  21427993.169    21427991.876
        54.000          47.000
  23108655.777     1727154.45343   1343702.95642  23108657.622    23108655.962
        48.000          42.000
  24375851.268    -3651442.10343  -2827465.53242  24375853.939    24375852.540
        44.000          38.000
  22471240.093    -2644423.31943  -2035839.65042  22471241.456    22471240.374
        52.000          45.000
  23802501.078     -742025.53443   -579098.73242  23802499.766    23802503.833
        46.000          40.000
 02  7  1 17 27 40.0000000  0 10G18G 2G17G15G23G 6G29G 3G21G22
  20482433.456     9557879.27843   7451523.73642  20482434.765    20482431.822
        56.000          50.000
  24884028.255    -1065925.88843   -810404.88442  24884029.651    24884031.454
        45.000          39.000
  20673650.282    10322129.74443   8047081.83142  20673651.476    20673649.119
        56.000          49.000
  20635594.414     9648165.36543   7523317.79142  20635595.401    20635593.472
        56.000          49.000
  22622881.367     2791441.30743   2165005.37442  22622882.309    22622880.856
        51.000          45.000
  21437598.652    13756065.27643  10712358.16242  21437599.867    21437598.500
        54.000          47.000
  23115667.893     1764005.58143   1372418.08642  23115668.992    23115669.210
        48.000          42.000
  24363296.251    -3717416.10443  -2878873.79042  24363298.133    24363299.819
        43.000          38.000
  22463841.040    -2683305.68343  -2066137.56442  22463841.522    22463840.936
        53.000          45.000
  23807071.670     -718003.26443   -560380.11342  23807071.360    23807074.769
        46.000          40.000
 02  7  1 17 28  0.0000000  0 10G18G 2G17G15G23G 6G29G 3G21G22
  20479980.489     9544988.53343   7441479.00142  20479981.846    20479978.050
        56.000          50.000
  24882224.633    -1075405.23343   -817791.41242  24882225.649    24882227.133
        45.000          39.000
  20672713.124    10317205.31643   8043244.60642  20672713.958    20672711.846
        55.000          49.000
  20632768.707     9633315.53843   7511746.49942  20632769.328    20632767.704
        56.000          49.000
  22632595.763     2842490.33643   2204783.79742  22632597.275    22632596.522
        52.000          45.000
  21447242.381    13806744.30843  10751848.26442  21447243.998    21447242.785
        54.000          47.000
  23122724.475     1801079.91043   1401307.16042  23122725.953    23122725.364
        49.000          42.000
  24350759.498    -3783302.13443  -2930213.43442  24350760.865    24350759.967
        45.000          38.000
  22456468.217    -2722047.92743  -2096326.30442  22456469.479    22456468.866
        52.000          45.000
  23811680.880     -693782.18443   -541506.58042  23811680.979    23811682.286
        46.000          40.000
 02  7  1 17 28 20.0000000  0 10G18G 2G17G15G23G 6G29G 3G21G22
  20477555.419     9532244.75943   7431548.79342  20477556.927    20477553.215
        56.000          50.000
  24880449.478    -1084733.90343   -825060.54042  24880451.412    24880452.465
        46.000          39.000
  20671784.549    10312326.20343   8039442.69642  20671785.255    20671783.125
        56.000          49.000
  20629952.877     9618519.02443   7500216.75342  20629953.754    20629951.768
        56.000          49.000
  22642312.127     2893547.16643   2244568.31742  22642313.425    22642311.255
        52.000          45.000
  21456912.829    13857562.67943  10791446.94642  21456914.551    21456913.124
        54.000          47.000
  23129808.640     1838320.14643   1430325.50642  23129811.401    23129810.100
        48.000          42.000
  24338227.192    -3849156.21643  -2981528.25642  24338228.387    24338227.416
        45.000          38.000
  22449112.252    -2760706.97943  -2126450.21342  22449112.907    22449111.824
        52.000          45.000
  23816317.266     -669419.72643   -522522.88442  23816316.912    23816320.278
        46.000          40.000
 02  7  1 17 28 40.0000000  0 10G18G 2G17G15G23G 6G29G 3G21G22
  20475169.908     9519708.64843   7421780.40142  20475171.215    20475167.616
        56.000          50.000
  24878714.725    -1093851.00043   -832164.79242  24878716.121    24878718.221
        46.000          39.000
  20670876.163    10307553.23543   8035723.49542  20670877.247    20670874.920
        55.000          49.000
  20627159.208     9603837.05443   7488776.26142  20627160.024    20627157.993
        56.000          49.000
  22652040.949     2944672.12543   2284405.91642  22652042.328    22652039.106
        52.000          45.000
  21466621.470    13908580.85943  10831201.31542  21466623.071    21466621.364
        54.000          47.000
  23136940.023     1875786.62643   1459520.12742  23136942.323    23136941.210
        48.000          42.000
  24325713.768    -3914916.66643  -3032770.08242  24325716.017    24325716.860
        46.000          38.000
  22441782.871    -2799221.60043  -2156461.57942  22441784.400    22441783.340
        52.000          45.000
  23820991.798     -644855.61343   -503382.05842  23820990.911    23820994.602
        46.000          40.000
 02  7  1 17 29  0.0000000  0 10G18G 2G17G15G23G 6G29G 3G21G22
  20472819.164     9507355.80243   7412154.80942  20472820.680    20472817.096
        56.000          50.000
  24877014.976    -1102780.74643   -839123.04342  24877016.529    24877018.128
        47.000          39.000
  20669983.820    10302862.68343   8032068.51342  20669984.508    20669982.585
        56.000          49.000
  20624382.436     9589245.58743   7477406.29042  20624383.407    20624381.091
        56.000          49.000
  22661777.765     2995840.59443   2324277.41942  22661778.814    22661778.249
        52.000          45.000
  21476363.363    13959774.20843  10871092.18642  21476364.756    21476362.884
        54.000          47.000
  23144107.937     1913454.77143   1488871.92242  23144109.101    23144107.198
        48.000          42.000
  24313212.951    -3980606.95143  -3083957.22642  24313213.959    24313216.973
        45.000          39.000
  22434476.480    -2837616.14143  -2186379.37642  22434476.686    22434477.612
        52.000          45.000
  23825700.529     -620114.55643   -484103.36142  23825700.804    23825701.465
        46.000          40.000
 02  7  1 17 29 20.0000000  0 10G18G 2G17G15G23G 6G29G 3G21G22
  20470504.419     9495191.32143   7402675.99742  20470505.775    20470502.368
        56.000          50.000
  24875352.512    -1111517.95543   -845931.27442  24875353.839    24875355.422
        46.000          39.000
  20669107.905    10298259.90943   8028481.93242  20669108.345    20669106.403
        56.000          49.000
  20621623.996     9574750.06743   7466111.08542  20621624.893    20621622.702
        56.000          49.000
  22671524.214     3047057.22243   2364186.45342  22671525.014    22671523.654
        52.000          45.000
  21486139.285    14011147.35843  10911123.16142  21486141.247    21486139.064
        54.000          47.000
  23151314.839     1951329.23943   1518384.45442  23151317.646    23151315.322
        48.000          42.000
  24300726.632    -4046221.17343  -3135085.11942  24300728.660    24300728.918
        45.000          38.000
  22427194.413    -2875885.33043  -2216199.49942  22427195.572    22427194.734
        53.000          45.000
  23830442.716     -595192.05643   -464683.27242  23830441.651    23830444.255
        46.000          40.000
 02  7  1 17 29 40.0000000  0 10G18G 2G17G15G23G 6G29G 3G21G22
  20468223.995     9483207.64443   7393338.07342  20468225.392    20468222.136
        56.000          50.000
  24873725.163    -1120070.15843   -852595.34742  24873726.436    24873728.016
        45.000          39.000
  20668247.346    10293737.74443   8024958.15742  20668248.265    20668246.256
        56.000          49.000
  20618882.573     9560343.26743   7454885.01042  20618883.142    20618881.368
        56.000          49.000
  22681277.582     3098314.12743   2404126.86442  22681279.447    22681278.250
        51.000          45.000
  21495947.946    14062692.43043  10951288.10542  21495949.834    21495948.311
        54.000          47.000
  23158560.884     1989402.13143   1548051.62242  23158561.831    23158560.836
        49.000          42.000
  24288254.255    -4111765.93643  -3186158.88242  24288255.278    24288256.444
        45.000          39.000
  22419934.049    -2914036.51143  -2245927.66242  22419935.335    22419934.937
        53.000          45.000
  23835218.346     -570096.20543   -445128.09942  23835217.795    23835219.956
        46.000          40.000
 02  7  1 17 30  0.0000000  0 10G18G 2G17G15G23G 6G29G 3G21G22
  20465980.001     9471416.10543   7384149.86642  20465981.616    20465978.199
        56.000          50.000
  24872135.248    -1128425.87043   -859106.30442  24872136.284    24872137.377
        46.000          39.000
  20667404.439    10289307.83043   8021506.26942  20667405.137    20667403.531
        56.000          49.000
  20616160.302     9546036.95043   7443737.23742  20616161.255    20616159.183
        56.000          49.000
  22691040.926     3149622.31043   2444107.23342  22691043.295    22691042.324
        51.000          45.000
  21505791.541    14114420.45943  10991595.60442  21505793.345    21505791.681
        54.000          47.000
  23165844.414     2027684.39543   1577881.94042  23165846.661    23165843.805
        48.000          42.000
  24275797.392    -4177229.06543  -3237169.02942  24275798.604    24275798.531
        45.000          38.000
  22412699.241    -2952057.96143  -2275554.74342  22412699.735    22412698.947
        53.000          45.000
  23840029.206     -544816.11443   -425429.37142  23840027.819    23840031.931
        46.000          40.000
 02  7  1 17 30 20.0000000  0 10G18G 2G17G15G23G 6G29G 3G21G22
  20463770.799     9459806.29343   7375103.26442  20463771.844    20463768.505
        56.000          50.000
  24870580.224    -1136595.30243   -865472.10742  24870582.146    24870582.875
        45.000          39.000
  20666577.120    10284960.33343   8018118.59942  20666577.809    20666575.759
        56.000          49.000
  20613455.063     9531821.09143   7432659.94842  20613455.924    20613453.284
        56.000          49.000
  22700812.731     3200971.14543   2484119.28242  22700813.975    22700812.545
        51.000          45.000
  21515667.844    14166320.73643  11032037.32942  21515669.483    21515667.930
        54.000          47.000
  23173168.690     2066165.29443   1607867.03242  23173169.915    23173167.796
        49.000          42.000
  24263352.359    -4242620.07243  -3288123.00242  24263355.126    24263356.386
        45.000          38.000
  22405486.435    -2989959.98343  -2305088.75842  22405488.069    22405485.856
        53.000          45.000
  23844872.920     -519362.53543   -405595.45942  23844870.947    23844874.335
        47.000          40.000
 02  7  1 17 30 40.0000000  0 10G18G 2G17G15G23G 6G29G 3G21G22
  20461596.516     9448380.32243   7366199.91742  20461597.971    20461594.332
        56.000          50.000
  24869061.691    -1144576.50643   -871691.25142  24869063.534    24869063.436
        44.000          38.000
  20665766.078    10280697.48743   8014796.89642  20665766.861    20665764.791
        56.000          49.000
  20610767.264     9517698.02143   7421654.96542  20610768.514    20610766.744
        56.000          49.000
  22710592.028     3252362.12543   2524164.17242  22710594.184    22710591.910
        51.000          44.000
  21525577.210    14218394.82743  11072614.49142  21525578.445    21525577.165
        54.000          47.000
  23180527.934     2104846.43643   1638008.14242  23180530.802    23180528.692
        48.000          42.000
  24250924.282    -4307936.04543  -3339018.48842  24250925.987    24250926.131
        47.000          38.000
  22398297.193    -3027740.56443  -2334528.13842  22398297.714    22398297.063
        53.000          45.000
  23849750.050     -493734.14643   -385625.32542  23849749.178    23849751.993
        46.000          40.000
 02  7  1 17 31  0.0000000  0 10G18G 2G17G15G23G 6G29G 3G21G22
  20459457.305     9437138.98543   7357440.44242  20459458.841    20459455.115
        56.000          50.000
  24867578.549    -1152368.47643   -877762.93942  24867581.068    24867580.694
        44.000          38.000
  20664971.100    10276520.70343   8011542.25742  20664972.138    20664970.101
        56.000          49.000
  20608097.625     9503668.94843   7410723.22442  20608098.536    20608096.650
        56.000          49.000
  22720380.315     3303795.94943   2564242.45742  22720382.074    22720379.507
        52.000          44.000
  21535519.677    14270643.35943  11113327.58242  21535520.728    21535520.254
        54.000          47.000
  23187928.574     2143728.52743   1668305.85442  23187929.783    23187927.856
        49.000          43.000
  24238509.163    -4373175.02243  -3389853.99842  24238511.621    24238511.600
        46.000          38.000
  22391130.552    -3065398.31343  -2363871.81842  22391132.040    22391131.761
        53.000          45.000
  23854660.962     -467930.40843   -365518.55742  23854660.503    23854661.715
        46.000          40.000
 02  7  1 17 31 20.0000000  0 10G18G 2G17G15G23G 6G29G 3G21G22
  20457353.311     9426082.05343   7348824.65742  20457355.033    20457351.465
        55.000          50.000
  24866132.019    -1159971.40143   -883687.32942  24866132.703    24866134.657
        45.000          38.000
  20664192.699    10272430.24943   8008354.88542  20664193.519    20664191.653
        56.000          49.000
  20605446.114     9489734.11743   7399864.92342  20605446.963    20605445.189
        56.000          49.000
  22730175.484     3355271.97643   2604353.62642  22730175.893    22730174.957
        51.000          44.000
  21545495.277    14323065.78043  11154176.17642  21545497.162    21545495.453
        54.000          47.000
  23195364.416     2182810.84343   1698759.56742  23195366.470    23195365.574
        49.000          42.000
  24226109.718    -4438336.41243  -3440629.02842  24226110.354    24226111.585
        45.000          38.000
  22383988.157    -3102933.40543  -2393119.90642  22383989.535    22383988.445
        53.000          45.000
  23859605.103     -441952.03743   -345275.71542  23859603.599    23859604.011
        46.000          40.000
 02  7  1 17 31 40.0000000  0 10G18G 2G17G15G23G 6G29G 3G21G22
  20455284.996     9415212.64643   7340354.99942  20455286.236    20455283.000
        55.000          50.000
  24864721.943    -1167381.95743   -889461.80742  24864722.606    24864725.162
        44.000          38.000
  20663431.478    10268429.58543   8005237.48042  20663432.106    20663430.245
        56.000          49.000
  20602813.104     9475897.18243   7389082.90242  20602813.810    20602811.957
        56.000          49.000
  22739978.870     3406793.09543   2644499.91742  22739981.253    22739978.870
        51.000          44.000
  21555504.816    14375664.87243  11195162.43142  21555506.335    21555505.663
        54.000          47.000
  23202841.593     2222096.25943   1729371.55542  23202843.950    23202841.918
        49.000          42.000
  24213725.120    -4503416.29043  -3491340.56842  24213727.053    24213725.957
        45.000          38.000
  22376869.667    -3140342.43143  -2422269.77542  22376870.864    22376869.613
        53.000          45.000
  23864581.908     -415796.35943   -324894.69942  23864582.373    23864579.119
        47.000          40.000
 02  7  1 17 32  0.0000000  0 10G18G 2G17G15G23G 6G29G 3G21G22
  20453250.790     9404523.34543   7332025.68242  20453252.289    20453248.608
        56.000          50.000
  24863346.740    -1174607.50243   -895092.12142  24863346.696    24863350.418
        44.000          38.000
  20662685.991    10264511.79443   8002184.65142  20662686.937    20662684.400
        56.000          49.000
  20600197.146     9462150.97544   7378371.58142  20600198.164    20600196.035
        57.000          49.000
  22749791.264     3458351.55043   2684675.31342  22749792.407    22749790.689
        51.000          44.000
  21565546.202    14428432.90243  11236280.32442  21565547.689    21565546.373
        54.000          47.000
  23210352.746     2261577.07543   1760135.80342  23210354.282    23210354.191
        48.000          42.000
  24201355.402    -4568420.91943  -3541993.44742  24201355.609    24201357.301
        46.000          38.000
  22369773.550    -3177632.36443  -2451326.83242  22369774.606    22369774.266
        53.000          45.000
  23869590.746     -389471.24943   -304381.66642  23869591.305    23869590.053
        47.000          40.000
 02  7  1 17 32 20.0000000  0 10G18G 2G17G15G23G 6G29G 3G21G22
  20451252.108     9394020.65443   7323841.77942  20451253.293    20451249.965
        56.000          50.000
  24862008.307    -1181641.50843   -900573.17642  24862010.004    24862012.361
        45.000          38.000
  20661957.448    10260683.72043   7999201.73642  20661958.354    20661956.298
        56.000          49.000
  20597599.932     9448502.48743   7367736.40242  20597600.747    20597598.762
        56.000          49.000
  22759610.359     3509953.59643   2724884.68342  22759611.371    22759611.580
        51.000          44.000
  21575621.079    14481376.01043  11277534.64042  21575622.519    21575621.636
        54.000          47.000
  23217905.231     2301259.36243   1791057.03042  23217906.997    23217903.831
        49.000          42.000
  24189000.462    -4633342.98543  -3592582.01842  24189000.933    24189003.784
        44.000          38.000
  22362701.217    -3214796.68343  -2480286.01842  22362702.959    22362701.173
        53.000          45.000
  23874634.037     -362970.58143   -283731.83842  23874634.368    23874632.551
        47.000          40.000
 02  7  1 17 32 40.0000000  0 10G18G 2G17G15G23G 6G29G 3G21G22
  20449288.076     9383699.54043   7315799.36142  20449289.645    20449286.265
        56.000          50.000
  24860705.263    -1188488.98943   -905908.90142  24860707.177    24860709.093
        45.000          38.000
  20661245.064    10256940.74643   7996285.13342  20661246.023    20661243.763
        56.000          49.000
  20595020.383     9434947.01143   7357173.69842  20595021.310    20595019.258
        56.000          49.000
  22769436.753     3561593.82443   2765123.78242  22769437.985    22769437.433
        51.000          44.000
  21585728.124    14534488.73543  11318921.13042  21585729.958    21585728.372
        54.000          47.000
  23225493.681     2341137.62043   1822130.97742  23225495.341    23225493.961
        49.000          42.000
  24176661.737    -4698186.66743  -3643109.48942  24176662.628    24176662.067
        46.000          38.000
  22355652.036    -3251840.29843  -2509151.13842  22355653.474    22355651.986
        53.000          45.000
  23879708.698     -336300.07843   -262949.67842  23879708.394    23879708.353
        47.000          40.000
 02  7  1 17 33  0.0000000  0 10G18G 2G17G15G23G 6G29G 3G21G22
  20447359.139     9373562.44443   7307900.33542  20447360.472    20447357.042
        56.000          50.000
  24859437.632    -1195147.52443   -911097.39142  24859440.954    24859442.115
        45.000          38.000
  20660549.598    10253285.64443   7993437.00042  20660550.472    20660548.514
        56.000          49.000
  20592459.153     9421487.28644   7346685.60442  20592460.209    20592458.293
        57.000          49.000
  22779271.624     3613274.11843   2805394.11442  22779273.110    22779271.439
        51.000          44.000
  21595867.808    14587773.12143  11360441.38042  21595868.832    21595868.315
        53.000          47.000
  23233119.231     2381213.84143   1853359.16542  23233121.626    23233121.023
        48.000          42.000
  24164337.266    -4762948.67643  -3693573.32142  24164338.670    24164340.039
        45.000          38.000
  22348625.971    -3288760.70343  -2537920.25842  22348627.283    22348627.227
        53.000          45.000
  23884816.452     -309457.81743   -242033.68842  23884816.851    23884816.361
        47.000          40.000
 02  7  1 17 33 20.0000000  0 10G18G 2G17G15G23G 6G29G 3G21G22
  20445465.405     9363611.11143   7300146.05842  20445466.962    20445463.450
        55.000          50.000
  24858206.957    -1201615.12443   -916137.09542  24858209.233    24858210.726
        44.000          38.000
  20659871.277    10249720.71043   7990659.12542  20659872.226    20659869.736
        56.000          49.000
  20589916.591     9408125.62744   7336273.92742  20589917.544    20589915.267
        57.000          49.000
  22789114.009     3664996.22943   2845697.03742  22789115.065    22789114.267
        51.000          44.000
  21606040.356    14641230.74743  11402096.62242  21606041.629    21606041.190
        54.000          47.000
  23240784.343     2421489.52543   1884742.79042  23240785.205    23240784.712
        49.000          42.000
  24152030.056    -4827626.26043  -3743971.38542  24152031.248    24152032.186
        45.000          38.000
  22341624.518    -3325555.79443  -2566591.73042  22341625.413    22341624.489
        53.000          45.000
  23889957.044     -282442.33543   -220982.71142  23889958.048    23889959.755
        48.000          40.000
 02  7  1 17 33 40.0000000  0 10G18G 2G17G15G23G 6G29G 3G21G22
  20443605.854     9353839.20743   7292531.59342  20443607.173    20443603.676
        55.000          50.000
  24857011.651    -1207898.14343   -921032.97242  24857011.907    24857014.718
        45.000          38.000
  20659209.015    10246240.04743   7987946.91842  20659209.791    20659207.666
        55.000          49.000
  20587391.508     9394856.04844   7325933.99742  20587392.610    20587390.261
        57.000          49.000
  22798962.941     3716753.48043   2886027.32042  22798964.741    22798961.278
        51.000          44.000
  21616245.080    14694854.86643  11443881.59542  21616246.526    21616245.557
        54.000          47.000
  23248484.365     2461958.21743   1916276.80042  23248485.887    23248484.564
        48.000          42.000
  24139736.805    -4892224.71043  -3794307.77142  24139739.984    24139737.615
        45.000          38.000
  22334645.518    -3362231.92643  -2595170.51242  22334646.401    22334645.744
        53.000          45.000
  23895130.083     -255260.69343   -199802.25642  23895128.659    23895131.310
        46.000          40.000
 02  7  1 17 34  0.0000000  0 10G18G 2G17G15G23G 6G29G 3G21G22
  20441782.205     9344255.56243   7285063.82542  20441783.499    20441780.054
        55.000          50.000
  24855853.116    -1213987.49443   -925777.95142  24855853.827    24855856.365
        45.000          38.000
  20658564.352    10242852.98543   7985307.65042  20658565.087    20658562.955
        56.000          49.000
  20584885.618     9381687.93844   7315673.13842  20584886.542    20584884.702
        57.000          49.000
  22808820.589     3768554.39743   2926391.64542  22808822.311    22808820.004
        51.000          44.000
  21626482.522    14748654.07543  11485803.00742  21626484.728    21626483.145
        53.000          46.000
  23256224.773     2502628.30543   1947967.76042  23256226.847    23256222.881
        48.000          42.000
  24127461.285    -4956734.14443  -3844574.79642  24127461.652    24127463.537
        44.000          38.000
  22327690.837    -3398779.63743  -2623649.21642  22327691.659    22327690.829
        53.000          45.000
  23900334.866     -227904.25843   -178485.58642  23900334.979    23900338.075
        46.000          39.000
 02  7  1 17 34 20.0000000  0 10G18G 2G17G15G23G 6G29G 3G21G22
  20439992.364     9334849.93843   7277734.77342  20439993.851    20439990.518
        56.000          50.000
  24854728.663    -1219893.50643   -930380.05242  24854729.549    24854731.861
        44.000          38.000
  20657935.744    10239549.60943   7982733.59142  20657936.400    20657934.478
        56.000          49.000
  20582397.185     9368611.41243   7305483.63942  20582398.107    20582396.181
        56.000          49.000
  22818684.840     3820388.47643   2966781.81742  22818685.033    22818684.748
        51.000          44.000
  21636751.627    14802617.67643  11527852.51942  21636753.172    21636751.849
        54.000          47.000
  23263999.519     2543489.07443   1979807.29042  23264002.353    23263999.260
        48.000          42.000
  24115200.276    -5021164.02443  -3894779.82742  24115202.139    24115205.406
        45.000          38.000
  22320758.243    -3435209.22343  -2652035.87642  22320759.252    22320757.675
        53.000          45.000
  23905573.110     -200383.81943   -157041.13342  23905572.805    23905574.976
        45.000          39.000
 02  7  1 17 34 40.0000000  0 10G18G 2G17G15G23G 6G29G 3G21G22
  20438237.178     9325625.91143   7270547.22642  20438238.354    20438234.913
        56.000          50.000
  24853640.530    -1225612.24043   -934836.24742  24853641.086    24853644.122
        44.000          38.000
  20657323.904    10236334.13443   7980228.02642  20657324.853    20657322.598
        56.000          49.000
  20579926.992     9355630.56344   7295368.69542  20579927.808    20579925.769
        57.000          49.000
  22828555.093     3872259.13443   3007200.48442  22828555.808    22828554.489
        51.000          44.000
  21647052.357    14856749.13143  11570032.82542  21647054.043    21647052.794
        53.000          46.000
  23271812.941     2584543.91643   2011798.05542  23271814.773    23271812.314
        48.000          42.000
  24102955.779    -5085509.71243  -3944919.26342  24102957.212    24102959.515
        45.000          38.000
  22313849.380    -3471516.61743  -2680327.32142  22313850.636    22313849.244
        53.000          45.000
  23910841.892     -172696.17743   -135466.39442  23910840.112    23910841.475
        46.000          39.000
 02  7  1 17 35  0.0000000  0 10G18G 2G17G15G23G 6G29G 3G21G22
  20436516.942     9316586.17343   7263503.27742  20436518.265    20436514.838
        56.000          50.000
  24852588.265    -1231140.96243   -939144.36942  24852589.856    24852591.306
        45.000          38.000
  20656729.416    10233209.66643   7977793.37442  20656730.249    20656728.262
        56.000          49.000
  20577475.639     9342748.47943   7285330.70942  20577476.647    20577474.337
        56.000          49.000
  22838432.868     3924168.72843   3047649.49242  22838434.216    22838433.097
        51.000          44.000
  21657385.686    14911050.78443  11612345.74842  21657387.737    21657386.313
        53.000          46.000
  23279661.206     2625795.15943   2043941.85942  23279663.029    23279662.788
        47.000          42.000
  24090728.157    -5149767.54143  -3994990.24042  24090729.046    24090730.364
        45.000          38.000
  22306963.330    -3507698.86543  -2708521.25542  22306964.635    22306963.349
        53.000          45.000
  23916142.442     -144839.14243   -113759.64842  23916143.206    23916142.112
        46.000          39.000
 02  7  1 17 35 20.0000000  0 10G18G 2G17G15G23G 6G29G 3G21G22
  20434831.277     9307728.45043   7256601.16242  20434832.905    20434829.257
        56.000          50.000
  24851572.571    -1236482.02943   -943306.26242  24851575.059    24851576.517
        44.000          38.000
  20656151.847    10230174.24343   7975428.11142  20656152.853    20656150.469
        56.000          49.000
  20575042.783     9329963.25744   7275368.20142  20575043.639    20575041.697
        57.000          49.000
  22848317.626     3976114.56743   3088126.74342  22848318.235    22848318.197
        51.000          44.000
  21667750.847    14965519.87643  11654789.14342  21667753.121    21667750.915
        53.000          46.000
  23287549.477     2667240.03243   2076236.52542  23287551.307    23287549.891
        48.000          42.000
  24078515.632    -5213938.90643  -4044993.83342  24078517.007    24078518.054
        44.000          37.000
  22300102.289    -3543758.30543  -2736619.49542  22300103.129    22300101.708
        53.000          45.000
  23921475.560     -116815.50043    -91923.09542  23921474.606    23921478.445
        46.000          39.000
 02  7  1 17 35 40.0000000  0 10G18G 2G17G15G23G 6G29G 3G21G22
  20433180.231     9299052.21843   7249840.46542  20433181.969    20433178.338
        55.000          50.000
  24850591.904    -1241636.03343   -947322.38342  24850590.985    24850595.778
        44.000          38.000
  20655590.954    10227227.72943   7973132.12442  20655591.711    20655589.695
        56.000          49.000
  20572628.151     9317274.84744   7265481.13042  20572629.203    20572627.060
        57.000          49.000
  22858209.443     4028095.73843   3128631.52542  22858210.454    22858209.119
        50.000          44.000
  21678147.748    15020155.53143  11697362.33042  21678149.247    21678148.281
        53.000          46.000
  23295471.971     2708877.66343   2108681.40842  23295473.358    23295473.053
        48.000          41.000
  24066322.621    -5278023.38443  -4094929.72142  24066324.728    24066324.085
        46.000          38.000
  22293263.199    -3579695.45943  -2764622.44242  22293264.919    22293263.627
        53.000          46.000
  23926839.806      -88626.41543    -69957.62842  23926840.996    23926839.495
        46.000          39.000
 02  7  1 17 36  0.0000000  0 10G18G 2G17G15G23G 6G29G 3G21G22
  20431563.636     9290556.25743   7243220.24342  20431564.927    20431561.338
        56.000          50.000
  24849646.739    -1246603.86643   -951193.42442  24849647.397    24849648.897
        45.000          38.000
  20655047.028    10224369.62843   7970905.03342  20655048.121    20655045.695
        56.000          49.000
  20570231.888     9304682.55544   7255668.95842  20570232.831    20570230.864
        57.000          49.000
  22868107.564     4080110.97243   3169162.85242  22868108.920    22868106.922
        50.000          44.000
  21688576.008    15074956.29543  11740064.17242  21688577.579    21688576.463
        54.000          46.000
  23303431.970     2750706.68343   2141275.42442  23303435.217    23303431.311
        48.000          42.000
  24054142.774    -5342021.10343  -4144798.01242  24054143.841    24054145.144
        44.000          38.000
  22286447.816    -3615511.02543  -2792530.64942  22286448.802    22286447.884
        53.000          46.000
  23932235.303      -60273.38943    -47864.40842  23932235.051    23932236.359
        46.000          39.000
 02  7  1 17 36 20.0000000  0 10G18G 2G17G15G23G 6G29G 3G21G22
  20429981.455     9282242.31243   7236741.84442  20429982.972    20429979.250
        56.000          50.000
  24848736.616    -1251383.66643   -954917.96942  24848738.869    24848739.961
        45.000          38.000
  20654520.414    10221602.04743   7968748.47342  20654521.120    20654519.197
        56.000          49.000
  20567854.309     9292188.41644   7245933.26642  20567855.662    20567853.205
        57.000          49.000
  22878012.991     4132161.72743   3209721.84742  22878014.125    22878014.248
        51.000          44.000
  21699035.984    15129923.64143  11782895.81542  21699037.854    21699037.158
        54.000          46.000
  23311428.599     2792728.40243   2174019.59642  23311430.319    23311430.364
        48.000          42.000
  24041983.439    -5405929.23043  -4194596.49842  24041983.988    24041983.589
        45.000          38.000
  22279655.318    -3651202.85043  -2820342.44142  22279657.517    22279656.562
        53.000          46.000
  23937662.121      -31755.12243    -25642.43442  23937661.754    23937664.299
        46.000          39.000
 02  7  1 17 36 40.0000000  0 10G18G 2G17G15G23G 6G29G 3G21G22
  20428433.769     9274109.84443   7230404.86342  20428435.339    20428431.394
        55.000          50.000
  24847862.718    -1255976.22343   -958496.59842  24847864.019    24847865.473
        45.000          38.000
  20654011.055    10218924.89643   7966662.38242  20654011.908    20654009.816
        56.000          49.000
  20565495.547     9279792.19644   7236273.87742  20565496.334    20565494.199
        57.000          49.000
  22887924.799     4184247.08343   3250307.82942  22887925.481    22887923.339
        50.000          44.000
  21709527.488    15185056.52943  11825856.45842  21709529.502    21709528.800
        53.000          46.000
  23319461.532     2834941.76443   2206913.10942  23319461.935    23319461.451
        48.000          41.000
  24029837.428    -5469747.76243  -4244325.15842  24029840.108    24029838.640
        45.000          38.000
  22272887.469    -3686771.48143  -2848058.22742  22272887.709    22272887.931
        53.000          46.000
  23943120.731       -3072.79743     -3292.61842  23943119.333    23943121.987
        46.000          39.000
 02  7  1 17 37  0.0000000  0 10G18G 2G17G15G23G 6G29G 3G21G22
  20426920.415     9266156.88843   7224207.75742  20426922.079    20426918.571
        55.000          50.000
  24847024.404    -1260383.11543   -961930.57642  24847024.550    24847026.672
        45.000          38.000
  20653518.615    10216336.60843   7964645.53342  20653519.781    20653517.232
        56.000          49.000
  20563155.048     9267492.59344   7226689.77042  20563155.863    20563153.806
        57.000          49.000
  22897841.894     4236365.03543   3290919.18542  22897843.403    22897841.578
        50.000          44.000
  21720050.019    15240352.78343  11868944.39742  21720051.321    21720050.950
        53.000          46.000
  23327531.428     2877344.59543   2239954.24042  23327531.595    23327531.770
        49.000          42.000
  24017710.624    -5533477.43743  -4293984.57142  24017713.854    24017711.491
        46.000          38.000
  22266141.660    -3722218.72743  -2875679.43442  22266142.952    22266141.860
        53.000          46.000
  23948608.870       25771.28943     19183.24542  23948608.974    23948609.694
        46.000          39.000
 02  7  1 17 37 20.0000000  0 10G18G 2G17G15G23G 6G29G 3G21G22
  20425441.186     9258383.02743   7218150.20742  20425442.693    20425439.133
        55.000          50.000
  24846221.392    -1264604.92343   -965220.32342  24846221.897    24846222.742
        45.000          39.000
  20653042.861    10213837.18043   7962697.92642  20653043.696    20653041.590
        56.000          49.000
  20560832.881     9255289.64544   7217180.98242  20560833.637    20560831.432
        57.000          49.000
  22907765.123     4288514.70943   3331555.26042  22907767.363    22907766.044
        50.000          44.000
  21730603.422    15295811.50943  11912158.93742  21730605.433    21730603.664
        53.000          46.000
  23335635.192     2919935.98643   2273142.30442  23335637.266    23335636.166
        48.000          42.000
  24005598.792    -5597117.93143  -4343574.51342  24005600.557    24005604.023
        46.000          38.000
  22259419.974    -3757544.54343  -2903206.02442  22259420.567    22259419.675
        53.000          46.000
  23954128.175       54776.06443     41784.31742  23954126.839    23954131.071
        45.000          39.000
 02  7  1 17 37 40.0000000  0 10G18G 2G17G15G23G 6G29G 3G21G22
  20423997.247     9250794.64843   7212237.18742  20423998.839    20423995.100
        56.000          50.000
  24845453.689    -1268635.09543   -968360.74642  24845455.401    24845458.443
        45.000          38.000
  20652585.665    10211433.76543   7960825.13542  20652586.381    20652584.235
        56.000          49.000
  20558530.434     9243190.36244   7207752.97342  20558531.600    20558528.845
        57.000          49.000
  22917696.721     4340702.43643   3372220.99042  22917698.959    22917696.762
        51.000          44.000
  21741189.357    15351439.01843  11955504.99342  21741190.860    21741190.078
        53.000          46.000
  23343777.798     2962722.20343   2306482.20442  23343779.634    23343777.992
        48.000          42.000
  23993508.443    -5660661.65543  -4393089.02542  23993509.374    23993508.016
        45.000          38.000
  22252721.880    -3792742.40243  -2930632.90242  22252722.605    22252721.695
        53.000          46.000
  23959678.496       83947.54643     64515.28842  23959677.712    23959681.250
        45.000          39.000
 02  7  1 17 38  0.0000000  0 10G18G 2G17G15G23G 6G29G 3G21G22
  20422586.627     9243381.98043   7206461.08542  20422588.072    20422584.497
        55.000          50.000
  24844721.540    -1272483.36343   -971359.40842  24844722.317    24844724.016
        45.000          39.000
  20652144.685    10209116.84443   7959019.74242  20652145.528    20652143.172
        56.000          49.000
  20556245.870     9231185.19544   7198398.29942  20556246.820    20556244.924
        57.000          49.000
  22927634.085     4392918.07343   3412908.48042  22927635.158    22927632.935
        51.000          44.000
  21751805.096    15407225.07643  11998974.60342  21751807.274    21751804.867
        53.000          46.000
  23351954.346     3005693.01243   2339965.91042  23351957.040    23351955.130
        48.000          42.000
  23981432.273    -5724117.45543  -4442535.03842  23981434.114    23981433.446
        45.000          38.000
  22246046.363    -3827821.92243  -2957967.56642  22246047.728    22246045.757
        53.000          46.000
  23965260.332      113275.58443     87368.25642  23965259.742    23965263.234
        45.000          39.000
 02  7  1 17 38 20.0000000  0 10G18G 2G17G15G23G 6G29G 3G21G22
  20421209.915     9236147.41343   7200823.76442  20421211.488    20421207.949
        56.000          50.000
  24844024.871    -1276147.38743   -974214.51042  24844025.128    24844028.104
        45.000          39.000
  20651720.780    10206889.37943   7957284.05742  20651721.675    20651719.544
        56.000          49.000
  20553979.733     9219276.98843   7189119.18242  20553980.486    20553978.410
        56.000          49.000
  22937575.477     4445163.70443   3453619.33942  22937576.536    22937575.339
        50.000          44.000
  21762451.371    15463171.66943  12042569.30142  21762452.966    21762451.613
        53.000          46.000
  23360167.508     3048850.42243   2373595.06142  23360168.949    23360165.590
        48.000          42.000
  23969374.768    -5787481.85743  -4491909.82242  23969376.337    23969375.755
        45.000          38.000
  22239393.888    -3862780.28743  -2985207.82642  22239395.290    22239393.867
        53.000          46.000
  23970871.737      142762.01243    110344.65342  23970870.238    23970873.952
        45.000          39.000
 02  7  1 17 38 40.0000000  0 10G18G 2G17G15G23G 6G29G 3G21G22
  20419868.409     9229097.51543   7195330.33842  20419869.933    20419866.258
        56.000          50.000
  24843363.772    -1279620.31943   -976920.70642  24843364.730    24843367.547
        44.000          38.000
  20651315.303    10204758.51143   7955623.63942  20651315.915    20651314.296
        56.000          49.000
  20551733.634     9207472.91144   7179921.20242  20551734.437    20551732.548
        57.000          49.000
  22947524.044     4497445.88543   3494358.67142  22947524.582    22947525.078
        50.000          44.000
  21773129.286    15519285.21743  12086294.08542  21773131.625    21773130.196
        53.000          46.000
  23368416.809     3092200.90643   2407374.60242  23368418.119    23368417.415
        48.000          42.000
  23957336.374    -5850747.26643  -4541207.47142  23957337.340    23957337.228
        45.000          38.000
  22232765.574    -3897610.93943  -3012348.56842  22232766.593    22232765.932
        53.000          46.000
  23976513.093      172412.98643    133449.26942  23976513.121    23976517.740
        45.000          39.000
 02  7  1 17 39  0.0000000  0 10G18G 2G17G15G23G 6G29G 3G21G22
  20418560.882     9222226.88943   7189976.60342  20418562.326    20418559.020
        55.000          50.000
  24842738.481    -1282907.59843   -979482.23942  24842738.693    24842740.860
        44.000          38.000
  20650927.243    10202719.12543   7954034.50742  20650928.287    20650926.278
        56.000          49.000
  20549506.360     9195767.86744   7170800.38942  20549506.922    20549505.154
        57.000          49.000
  22957478.646     4549758.84043   3535121.97842  22957481.368    22957479.518
        50.000          43.000
  21783838.124    15575559.90643  12130144.43842  21783840.168    21783839.051
        53.000          46.000
  23376701.560     3135738.26943   2441299.81042  23376703.485    23376701.109
        48.000          42.000
  23945314.515    -5913918.39243  -4590431.64342  23945316.188    23945316.794
        45.000          39.000
  22226161.319    -3932319.30343  -3039394.02242  22226162.554    22226161.334
        53.000          46.000
  23982186.326      202222.52543    156677.44342  23982185.584    23982189.426
        45.000          39.000
 02  7  1 17 39 20.0000000  0 10G18G 2G17G15G23G 6G29G 3G21G22
  20417287.106     9215533.25543   7184760.78942  20417288.716    20417285.179
        56.000          50.000
  24842147.656    -1286011.43943   -981900.84542  24842149.395    24842152.010
        43.000          38.000
  20650556.322    10200769.61843   7952515.41242  20650557.702    20650554.777
        56.000          49.000
  20547297.264     9184160.07844   7161755.36642  20547298.238    20547296.311
        57.000          49.000
  22967438.992     4602100.04143   3575907.30542  22967440.187    22967439.145
        50.000          43.000
  21794577.146    15631993.18643  12174118.37442  21794579.017    21794577.816
        53.000          46.000
  23385021.584     3179460.15043   2475368.77442  23385023.444    23385021.741
        48.000          42.000
  23933310.129    -5976996.29143  -4639583.17042  23933311.818    23933313.563
        45.000          39.000
  22219578.834    -3966906.91643  -3066345.38042  22219580.913    22219579.604
        53.000          46.000
  23987889.140      232188.01143    180027.10742  23987888.234    23987890.462
        45.000          39.000
 02  7  1 17 39 40.0000000  0 10G18G 2G17G15G23G 6G29G 3G21G22
  20416046.990     9209015.85743   7179682.30142  20416048.344    20416044.637
        56.000          50.000
  24841591.559    -1288932.47043   -984177.00742  24841591.798    24841594.683
        44.000          38.000
  20650202.390    10198909.65143   7951066.08742  20650203.289    20650201.241
        56.000          49.000
  20545106.761     9172649.35844   7152785.98042  20545107.761    20545105.666
        57.000          49.000
  22977404.612     4654468.60243   3616713.95842  22977406.473    22977404.114
        50.000          43.000
  21805345.885    15688583.89743  12218214.98142  21805347.304    21805346.408
        53.000          46.000
  23393375.500     3223365.44343   2509580.66242  23393378.443    23393376.605
        47.000          42.000
  23921325.513    -6039980.79243  -4688661.92942  23921326.816    23921327.079
        45.000          39.000
  22213020.624    -4001374.27843  -3093203.03642  22213021.595    22213020.434
        54.000          46.000
  23993621.678      262308.16043    203497.29242  23993621.110    23993624.312
        45.000          39.000
 02  7  1 17 40  0.0000000  0 10G18G 2G17G15G23G 6G29G 3G21G22
  20414840.378     9202675.52243   7174741.78442  20414841.838    20414838.552
        55.000          50.000
  24841070.890    -1291669.99843   -986310.16442  24841071.561    24841073.123
        44.000          38.000
  20649865.621    10197140.46843   7949687.50142  20649866.414    20649864.372
        56.000          49.000
  20542935.348     9161236.93644   7143893.18642  20542936.093    20542934.075
        57.000          49.000
  22987375.515     4706864.93143   3657542.23742  22987376.893    22987375.517
        50.000          44.000
  21816144.948    15745332.42043  12262434.55542  21816146.315    21816145.329
        53.000          46.000
  23401767.029     3267454.50843   2543935.75442  23401767.579    23401767.086
        48.000          42.000
  23909357.432    -6102870.19743  -4737666.58142  23909359.202    23909360.120
        45.000          39.000
  22206484.154    -4035720.85243  -3119966.57542  22206485.406    22206484.531
        54.000          46.000
  23999381.961      292583.25943    227088.22142  23999381.459    23999384.252
        46.000          39.000
 02  7  1 17 40 20.0000000  0 10G18G 2G17G15G23G 6G29G 3G21G22
  20413668.809     9196518.43243   7169944.05442  20413670.250    20413666.945
        56.000          50.000
  24840586.121    -1294217.67743   -988295.38942  24840587.573    24840588.983
        44.000          38.000
  20649547.613    10195468.90143   7948384.97942  20649548.631    20649546.207
        56.000          49.000
  20540783.527     9149929.59444   7135082.27342  20540784.562    20540782.165
        57.000          49.000
  22997352.923     4759295.11143   3698396.89542  22997354.264    22997353.238
        50.000          43.000
  21826974.988    15802244.70543  12306781.73542  21826976.726    21826976.106
        53.000          46.000
  23410192.012     3311733.21943   2578438.60142  23410192.466    23410193.397
        47.000          42.000
  23897410.220    -6165657.09143  -4786591.35742  23897411.676    23897411.879
        46.000          39.000
  22199973.071    -4069940.19943  -3146630.97242  22199973.398    22199972.739
        54.000          46.000
  24005173.237      323018.98343    250804.33142  24005172.421    24005177.685
        46.000          39.000
 02  7  1 17 40 40.0000000  0 10G18G 2G17G15G23G 6G29G 3G21G22
  20412530.537     9190537.18743   7165283.34742  20412532.065    20412528.514
        55.000          50.000
  24840136.185    -1296582.91243   -990138.45942  24840137.195    24840139.274
        44.000          38.000
  20649246.809    10193888.03743   7947153.13542  20649247.512    20649245.396
        56.000          49.000
  20538650.485     9138720.36644   7126347.81542  20538651.355    20538648.856
        57.000          49.000
  23007335.065     4811751.59443   3739272.05042  23007335.971    23007334.816
        50.000          44.000
  21837834.843    15859313.09543  12351250.55842  21837836.726    21837835.212
        53.000          46.000
  23418653.234     3356193.87243   2613083.25442  23418654.772    23418651.890
        48.000          42.000
  23885479.616    -6228347.89943  -4835441.26142  23885480.026    23885482.743
        46.000          39.000
  22193483.041    -4104039.07943  -3173201.50342  22193485.424    22193484.349
        53.000          46.000
  24010994.887      353607.54843    274639.51542  24010994.977    24010998.017
        46.000          39.000
 02  7  1 17 41  0.0000000  0 10G18G 2G17G15G23G 6G29G 3G21G22
  20411426.062     9184733.42443   7160760.94042  20411427.648    20411424.121
        56.000          50.000
  24839720.634    -1298764.10343   -991838.11242  24839721.585    24839723.639
        44.000          38.000
  20648963.656    10192399.85143   7945993.50442  20648964.707    20648962.080
        56.000          49.000
  20536536.498     9127611.20444   7117691.32842  20536537.315    20536535.259
        57.000          49.000
  23017321.979     4864235.63943   3780168.68042  23017323.151    23017322.153
        51.000          44.000
  21848724.514    15916538.65343  12395841.85242  21848726.197    21848724.915
        53.000          46.000
  23427147.985     3400837.68343   2647870.59942  23427150.172    23427149.657
        47.000          42.000
  23873567.395    -6290940.13243  -4884214.35242  23873568.744    23873570.889
        45.000          39.000
  22187017.925    -4138016.27543  -3199677.21342  22187019.784    22187018.387
        53.000          46.000
  24016845.827      384350.00343    298594.62642  24016846.317    24016847.822
        46.000          39.000
 02  7  1 17 41 20.0000000  0 10G18G 2G17G15G23G 6G29G 3G21G22
  20410355.364     9179106.54243   7156376.36342  20410356.912    20410353.141
        56.000          50.000
  24839340.814    -1300761.45743   -993394.52942  24839341.777    24839344.300
        44.000          38.000
  20648698.076    10191004.31143   7944906.07042  20648698.755    20648696.689
        56.000          49.000
  20534441.379     9116602.23044   7109112.91242  20534442.660    20534440.200
        57.000          49.000
  23027314.693     4916746.66543   3821086.33642  23027316.300    23027314.786
        50.000          44.000
  21859644.063    15973920.67143  12440555.06342  21859644.815    21859644.873
        53.000          46.000
  23435678.490     3445663.83743   2682800.04242  23435679.843    23435679.322
        47.000          41.000
  23861677.971    -6353433.25243  -4932910.22342  23861680.408    23861678.394
        47.000          39.000
  22180575.716    -4171871.58243  -3226057.94142  22180576.846    22180575.775
        53.000          46.000
  24022724.332      415245.39443    322668.90642  24022724.201    24022726.057
        46.000          39.000
 02  7  1 17 41 40.0000000  0 10G18G 2G17G15G23G 6G29G 3G21G22
  20409318.564     9173658.09543   7152130.82442  20409320.038    20409316.327
        56.000          50.000
  24838996.457    -1302573.51543   -994806.54842  24838997.095    24839000.197
        43.000          38.000
  20648450.430    10189703.69543   7943892.59942  20648451.190    20648449.142
        56.000          49.000
  20532366.155     9105695.54244   7100614.20142  20532366.756    20532364.471
        57.000          49.000
  23037312.650     4969285.85843   3862025.93942  23037314.078    23037313.396
        50.000          44.000
  21870593.492    16031460.31643  12485391.09742  21870595.361    21870594.470
        53.000          46.000
  23444243.048     3490673.31043   2717872.33942  23444245.242    23444245.316
        47.000          41.000
  23849803.829    -6415824.66343  -4981526.81542  23849805.346    23849807.954
        46.000          39.000
  22174156.796    -4205603.20343  -3252342.29342  22174157.590    22174156.059
        54.000          46.000
  24028632.872      446294.90843    346863.27942  24028632.909    24028634.656
        46.000          39.000
 02  7  1 17 42  0.0000000  0 10G18G 2G17G15G23G 6G29G 3G21G22
  20408315.263     9168386.01643   7148022.71542  20408316.774    20408313.066
        56.000          50.000
  24838685.362    -1304202.44643   -996075.87742  24838685.868    24838690.674
        43.000          38.000
  20648220.815    10188496.27643   7942951.74942  20648221.709    20648219.537
        56.000          49.000
  20530309.751     9094889.46944   7092193.88842  20530310.539    20530308.663
        57.000          49.000
  23047315.033     5021851.01743   3902985.76442  23047317.067    23047314.762
        50.000          43.000
  21881572.386    16089155.15443  12530348.05942  21881574.037    21881573.135
        53.000          46.000
  23452843.804     3535863.84143   2753085.70042  23452846.377    23452843.584
        48.000          41.000
  23837950.772    -6478115.55343  -5030065.11142  23837951.151    23837951.252
        47.000          39.000
  22167760.929    -4239213.04143  -3278531.75042  22167762.435    22167762.037
        54.000          46.000
  24034569.734      477495.75443    371175.57942  24034569.149    24034572.683
        45.000          39.000
 02  7  1 17 42 20.0000000  0 10G18G 2G17G15G23G 6G29G 3G21G22
  20407346.053     9163292.28543   7144053.58042  20407347.712    20407344.053
        55.000          50.000
  24838411.459    -1305646.16343   -997200.88842  24838414.070    24838415.667
        43.000          38.000
  20648009.159    10187384.49843   7942085.42942  20648010.234    20648007.969
        56.000          49.000
  20528272.989     9084186.50644   7083853.92042  20528274.158    20528271.709
        57.000          49.000
  23057323.159     5074443.90643   3943967.19742  23057325.696    23057323.214
        50.000          43.000
  21892581.255    16147006.83443  12575427.23942  21892583.023    21892582.211
        53.000          46.000
  23461477.275     3581236.92743   2788441.33642  23461478.273    23461477.371
        47.000          41.000
  23826116.644    -6540303.07243  -5078522.84442  23826116.163    23826119.245
        46.000          40.000
  22161388.606    -4272699.18643  -3304624.81942  22161390.491    22161388.723
        54.000          46.000
  24040536.084      508849.60343    395607.10842  24040534.403    24040536.971
        45.000          39.000
 02  7  1 17 42 40.0000000  0 10G18G 2G17G15G23G 6G29G 3G21G22
  20406410.427     9158375.44943   7140222.28642  20406411.899    20406408.461
        56.000          50.000
  24838171.707    -1306906.16443   -998182.74242  24838172.557    24838175.500
        43.000          38.000
  20647815.559    10186367.38943   7941292.87442  20647816.738    20647814.240
        56.000          49.000
  20526255.760     9073585.60144   7075593.47942  20526256.774    20526254.445
        57.000          49.000
  23067336.773     5127062.82843   3984968.94242  23067338.869    23067336.989
        50.000          43.000
  21903619.671    16205013.48543  12620627.17142  21903621.199    21903620.187
        53.000          46.000
  23470145.446     3626790.79343   2823937.81542  23470146.676    23470146.798
        47.000          41.000
  23814302.111    -6602387.59943  -5126900.31942  23814302.925    23814305.859
        46.000          39.000
  22155039.432    -4306063.08543  -3330622.63242  22155041.026    22155039.331
        54.000          46.000
  24046531.172      540354.34343    420156.20442  24046530.599    24046532.082
        45.000          38.000
 02  7  1 17 43  0.0000000  0 10G18G 2G17G15G23G 6G29G 3G21G22
  20405507.715     9153631.32343   7136525.57142  20405509.041    20405505.739
        55.000          50.000
  24837965.697    -1307986.56143   -999024.63942  24837966.838    24837970.574
        43.000          38.000
  20647639.521    10185441.51943   7940571.41642  20647640.409    20647638.135
        56.000          49.000
  20524257.164     9063083.13344   7067409.73842  20524257.817    20524255.879
        57.000          49.000
  23077354.560     5179703.39543   4025987.53342  23077354.538    23077353.345
        50.000          43.000
  21914686.747    16263170.62043  12665944.36142  21914688.374    21914687.183
        53.000          46.000
  23478847.988     3672520.95443   2859571.69042  23478849.716    23478847.053
        48.000          41.000
  23802507.080    -6664372.16243  -5175199.90342  23802509.030    23802508.956
        46.000          40.000
  22148713.320    -4339308.42543  -3356528.06842  22148714.468    22148713.533
        54.000          46.000
  24052555.588      572005.43343    444819.33642  24052554.475    24052556.124
        46.000          39.000
 02  7  1 17 43 20.0000000  0 10G18G 2G17G15G23G 6G29G 3G21G22
  20404638.448     9149063.77243   7132966.44642  20404640.077    20404636.359
        55.000          50.000
  24837795.226    -1308883.24043   -999723.37542  24837794.985    24837799.720
        43.000          38.000
  20647481.354    10184611.10343   7939924.33242  20647482.046    20647480.213
        56.000          49.000
  20522278.097     9052683.51844   7059306.14542  20522279.032    20522276.950
        57.000          50.000
  23087375.970     5232369.41943   4067025.96342  23087377.930    23087376.993
        50.000          43.000
  21925783.007    16321481.94343  12711381.71142  21925784.806    21925782.836
        52.000          45.000
  23487584.387     3718430.89743   2895345.64042  23487586.750    23487584.887
        48.000          41.000
  23790731.841    -6726251.78343  -5223417.72142  23790733.516    23790732.651
        47.000          40.000
  22142410.763    -4372430.63343  -3382337.55242  22142411.799    22142410.546
        54.000          46.000
  24058607.796      603806.38143    469599.22142  24058606.182    24058608.992
        46.000          39.000
 02  7  1 17 43 40.0000000  0 10G18G 2G17G15G23G 6G29G 3G21G22
  20403802.854     9144672.80843   7129544.92142  20403804.168    20403800.565
        56.000          50.000
  24837659.404    -1309596.31843  -1000279.05342  24837660.302    24837664.341
        42.000          38.000
  20647341.730    10183876.72543   7939352.08742  20647342.659    20647340.294
        56.000          49.000
  20520318.786     9042387.08344   7051282.94842  20520319.812    20520317.952
        57.000          50.000
  23097402.299     5285060.61643   4108084.00542  23097403.951    23097404.620
        50.000          43.000
  21936908.431    16379946.96243  12756938.80742  21936910.778    21936909.051
        52.000          45.000
  23496354.660     3764520.29843   2931259.44942  23496358.013    23496354.068
        48.000          41.000
  23778977.654    -6788025.57243  -5271553.06942  23778978.646    23778977.839
        47.000          40.000
  22136131.185    -4405429.83543  -3408051.19042  22136131.708    22136129.994
        54.000          46.000
  24064686.219      635756.56343    494495.42342  24064686.880    24064686.020
        45.000          38.000
 02  7  1 17 44  0.0000000  0 10G18G 2G17G15G23G 6G29G 3G21G22
  20403000.539     9140456.46443   7126259.46842  20403001.972    20402998.445
        56.000          50.000
  24837557.934    -1310127.81043  -1000693.21642  24837558.828    24837562.381
        42.000          38.000
  20647219.986    10183236.95143   7938853.55442  20647220.952    20647218.619
        56.000          49.000
  20518378.909     9032192.47744   7043339.10342  20518379.696    20518377.853
        57.000          50.000
  23107433.419     5337774.82543   4149159.98642  23107435.224    23107434.586
        50.000          43.000
  21948062.921    16438563.44743  12802613.93842  21948064.701    21948064.131
        53.000          45.000
  23505160.411     3810786.85243   2967311.27242  23505162.642    23505159.346
        49.000          42.000
  23767241.906    -6849694.62243  -5319606.81442  23767243.190    23767242.192
        46.000          40.000
  22129874.191    -4438307.65143  -3433670.24142  22129875.369    22129874.713
        54.000          46.000
  24070794.627      667853.55343    519506.01042  24070794.396    24070796.340
        46.000          38.000
 02  7  1 17 44 20.0000000  0 10G18G 2G17G15G23G 6G29G 3G21G22
  20402231.556     9136416.03643   7123111.09142  20402232.824    20402229.646
        56.000          50.000
  24837491.945    -1310476.34443  -1000964.82042  24837493.641    24837495.383
        42.000          37.000
  20647116.618    10182693.61143   7938430.17042  20647117.697    20647115.332
        56.000          49.000
  20516458.574     9022101.60944   7035476.09142  20516459.067    20516457.259
        57.000          50.000
  23117469.816     5390513.24643   4190254.83642  23117472.767    23117471.066
        50.000          43.000
  21959246.311    16497332.36943  12848407.84842  21959247.710    21959247.187
        53.000          45.000
  23513996.674     3857231.47043   3003501.87442  23513997.904    23513997.210
        48.000          41.000
  23755526.766    -6911256.53043  -5367577.02842  23755527.988    23755527.158
        47.000          40.000
  22123641.149    -4471062.72243  -3459193.64242  22123642.305    22123641.501
        54.000          46.000
  24076930.738      700098.22443    544631.66942  24076930.720    24076931.129
        46.000          38.000
 02  7  1 17 44 40.0000000  0 10G18G 2G17G15G23G 6G29G 3G21G22
  20401495.780     9132549.28843   7120098.04842  20401497.369    20401493.993
        56.000          50.000
  24837459.047    -1310644.09043  -1001095.56842  24837460.624    24837464.626
        42.000          37.000
  20647031.113    10182245.00443   7938080.60142  20647031.856    20647030.189
        56.000          49.000
  20514557.764     9012112.66944   7027692.50542  20514558.178    20514556.559
        57.000          50.000
  23127510.253     5443273.48743   4231366.70542  23127511.438    23127508.735
        50.000          43.000
  21970458.015    16556251.09443  12894318.48842  21970460.127    21970458.518
        53.000          45.000
  23522869.742     3903851.46143   3039829.11642  23522871.511    23522869.830
        49.000          42.000
  23743830.233    -6972712.51743  -5415464.74042  23743830.724    23743834.516
        46.000          40.000
  22117431.319    -4503697.04443  -3484622.95842  22117432.592    22117431.395
        54.000          46.000
  24083093.091      732487.84743    569870.27942  24083093.768    24083094.455
        45.000          38.000
 02  7  1 17 45  0.0000000  0 10G18G 2G17G15G23G 6G29G 3G21G22
  20400793.449     9128858.90843   7117222.44042  20400795.179    20400791.431
        56.000          50.000
  24837462.351    -1310628.22143  -1001083.25242  24837462.921    24837466.582
        42.000          37.000
  20646964.505    10181894.31443   7937807.33342  20646965.514    20646963.673
        56.000          49.000
  20512677.022     9002228.94044   7019990.90042  20512677.893    20512675.584
        57.000          50.000
  23137554.882     5496058.04143   4272497.50442  23137557.064    23137555.263
        50.000          43.000
  21981699.087    16615321.99643  12940347.71142  21981700.347    21981700.054
        52.000          45.000
  23531773.382     3950649.41443   3076295.03342  23531778.867    23531774.974
        47.000          41.000
  23732158.049    -7034058.80143  -5463266.98842  23732157.810    23732160.273
        46.000          40.000
  22111244.354    -4536207.60143  -3509955.83242  22111246.270    22111244.614
        54.000          46.000
  24089285.019      765024.57343    595223.53342  24089285.039    24089285.946
        45.000          38.000
 02  7  1 17 45 20.0000000  0 10G18G 2G17G15G23G 6G29G 3G21G22
  20400124.073     9125341.08943   7114481.29142  20400125.598    20400122.029
        56.000          50.000
  24837500.072    -1310432.52543  -1000930.79442  24837501.638    24837502.865
        41.000          37.000
  20646915.861    10181638.55243   7937608.03542  20646916.959    20646914.571
        56.000          49.000
  20510815.622     8992447.20244   7012368.77142  20510816.555    20510814.252
        57.000          50.000
  23147602.843     5548863.14043   4313644.30642  23147604.879    23147603.405
        49.000          43.000
  21992968.005    16674541.01243  12986492.34342  21992969.389    21992968.474
        52.000          45.000
  23540712.710     3997621.01543   3112896.27042  23540715.818    23540713.730
        48.000          41.000
  23720503.753    -7095298.02143  -5510985.77942  23720505.409    23720507.300
        46.000          40.000
  22105080.938    -4568597.72943  -3535194.86342  22105081.952    22105080.292
        54.000          46.000
  24095502.323      797704.37243    620688.26442  24095502.199    24095505.371
        44.000          38.000
 02  7  1 17 45 40.0000000  0 10G18G 2G17G15G23G 6G29G 3G21G22
  20399487.228     9121994.02443   7111873.19742  20399488.622    20399485.360
        55.000          50.000
  24837572.276    -1310058.89743  -1000639.69942  24837573.989    24837573.830
        42.000          36.000
  20646884.778    10181476.02643   7937481.38542  20646885.865    20646883.532
        56.000          49.000
  20508973.335     8982766.13144   7004825.08042  20508974.039    20508971.956
        57.000          49.000
  23157653.878     5601686.71243   4354805.49342  23157656.099    23157655.313
        49.000          43.000
  22004264.820    16733905.87443  13032750.62142  22004265.470    22004265.536
        52.000          45.000
  23549683.447     4044764.09143   3149631.08842  23549685.724    23549683.039
        48.000          41.000
  23708872.324    -7156431.02543  -5558621.82642  23708874.273    23708872.740
        47.000          40.000
  22098940.034    -4600869.31343  -3560341.53042  22098941.147    22098939.684
        54.000          46.000
  24101749.347      830524.68543    646262.46142  24101748.792    24101750.993
        44.000          38.000
 02  7  1 17 46  0.0000000  0 10G18G 2G17G15G23G 6G29G 3G21G22
  20398884.512     9118826.93043   7109405.34242  20398886.221    20398882.551
        55.000          50.000
  24837678.149    -1309498.12643  -1000202.76242  24837678.985    24837681.955
        43.000          37.000
  20646873.503    10181416.64343   7937435.10842  20646874.500    20646872.404
        56.000          49.000
  20507151.998     8973195.31444   6997367.30542  20507152.884    20507150.906
        57.000          49.000
  23167711.371     5654537.64943   4395987.99342  23167713.571    23167711.202
        49.000          43.000
  22015590.979    16793425.46743  13079129.46942  22015592.804    22015591.675
        52.000          45.000
  23558688.420     4092087.43543   3186506.41442  23558690.753    23558689.011
        48.000          41.000
  23697260.155    -7217447.65043  -5606167.18942  23697261.878    23697259.954
        46.000          40.000
  22092823.143    -4633013.30843  -3585388.77542  22092823.633    22092822.967
        54.000          46.000
  24108023.352      863494.25243    671952.96842  24108022.905    24108024.381
        45.000          38.000
 02  7  1 17 46 20.0000000  0 10G18G 2G17G15G23G 6G29G 3G21G22
  20398313.450     9115826.14043   7107067.07542  20398315.067    20398311.310
        55.000          50.000
  24837818.353    -1308763.82843   -999630.62742  24837819.497    24837820.259
        43.000          37.000
  20646879.478    10181447.41543   7937459.08242  20646880.297    20646878.076
        56.000          49.000
  20505349.191     8963721.65144   6989985.23342  20505350.178    20505347.934
        57.000          50.000
  23177771.313     5707402.09743   4437181.03842  23177773.418    23177773.207
        49.000          43.000
  22026944.170    16853085.92843  13125618.08542  22026945.981    22026945.601
        52.000          45.000
  23567727.377     4139577.10843   3223511.31242  23567729.960    23567725.475
        48.000          41.000
  23685669.051    -7278360.50143  -5653631.67342  23685670.005    23685670.932
        46.000          40.000
  22086727.867    -4665042.96143  -3610346.91742  22086729.330    22086727.551
        54.000          46.000
  24114323.280      896599.00343    697748.84542  24114324.489    24114324.646
        45.000          38.000
 02  7  1 17 46 40.0000000  0 10G18G 2G17G15G23G 6G29G 3G21G22
  20397775.872     9113001.25843   7104865.88042  20397777.238    20397774.024
        55.000          50.000
  24837993.819    -1307846.37143   -998915.75742  24837992.507    24837994.193
        44.000          37.000
  20646904.368    10181578.39243   7937561.13542  20646905.196    20646903.549
        56.000          49.000
  20503566.934     8954355.29344   6982686.77342  20503567.557    20503565.375
        57.000          50.000
  23187836.054     5760289.59943   4478392.05442  23187837.904    23187837.671
        49.000          43.000
  22038325.784    16912896.47143  13172223.63842  22038327.416    22038326.690
        52.000          45.000
  23576795.350     4187242.31143   3260653.01442  23576798.454    23576797.194
        47.000          41.000
  23674098.434    -7339158.86543  -5701006.95142  23674099.328    23674100.764
        46.000          40.000
  22080656.822    -4696948.23743  -3635208.15142  22080657.831    22080656.508
        54.000          46.000
  24120650.023      929848.13343    723657.19642  24120649.200    24120651.477
        44.000          38.000
 02  7  1 17 47  0.0000000  0 10G18G 2G17G15G23G 6G29G 3G21G22
  20397271.250     9110349.89143   7102799.89042  20397272.777    20397269.501
        55.000          50.000
  24838202.694    -1306748.03843   -998059.94742  24838204.368    24838203.953
        43.000          37.000
  20646948.095    10181807.84843   7937739.92342  20646948.863    20646946.779
        56.000          49.000
  20501804.720     8945094.42444   6975470.51442  20501805.487    20501803.258
        57.000          50.000
  23197904.724     5813197.68543   4519619.11542  23197906.106    23197904.792
        49.000          43.000
  22049735.518    16972854.28743  13218943.95842  22049736.829    22049735.931
        52.000          45.000
  23585900.625     4235080.35743   3297929.37742  23585902.771    23585902.350
        47.000          41.000
  23662551.031    -7399844.16543  -5748294.13842  23662553.007    23662552.545
        47.000          40.000
  22074608.177    -4728731.23743  -3659974.10442  22074609.550    22074608.302
        54.000          46.000
  24127004.675      963238.67643    749675.74642  24127005.100    24127005.942
        45.000          38.000
 02  7  1 17 47 20.0000000  0 10G18G 2G17G15G23G 6G29G 3G21G22
  20396799.240     9107869.46243   7100867.10142  20396800.847    20396797.136
        56.000          50.000
  24838444.951    -1305471.37843   -997065.20742  24838446.179    24838447.796
        43.000          37.000
  20647009.999    10182133.67743   7937993.81442  20647010.863    20647009.138
        56.000          49.000
  20500062.058     8935937.05544   6968334.90442  20500063.133    20500060.892
        57.000          50.000
  23207976.351     5866123.64543   4560860.10342  23207976.954    23207976.138
        50.000          43.000
  22061172.650    17032956.50843  13265776.80042  22061173.813    22061173.767
        52.000          45.000
  23595035.310     4283088.31743   3335338.14842  23595038.137    23595036.354
        47.000          41.000
  23651024.263    -7460417.76743  -5795494.28142  23651024.687    23651024.599
        46.000          40.000
  22068582.954    -4760394.30343  -3684646.59642  22068585.023    22068582.853
        54.000          46.000
  24133385.910      996767.60743    775802.13142  24133385.225    24133385.705
        45.000          38.000
 02  7  1 17 47 40.0000000  0 10G18G 2G17G15G23G 6G29G 3G21G22
  20396360.323     9105563.03043   7099069.89242  20396361.647    20396358.254
        55.000          50.000
  24838722.290    -1304013.47043   -995929.20942  24838723.965    24838725.291
        43.000          37.000
  20647091.029    10182559.25843   7938325.42942  20647092.137    20647089.821
        56.000          49.000
  20498339.965     8926886.63144   6961282.63142  20498340.774    20498338.141
        57.000          50.000
  23218051.517     5919070.31543   4602117.21242  23218051.184    23218050.328
        50.000          43.000
  22072637.768    17093205.64943  13312724.12542  22072638.841    22072638.587
        52.000          45.000
  23604203.684     4331268.70543   3372881.27642  23604205.721    23604204.769
        47.000          41.000
  23639518.184    -7520875.81243  -5842604.38142  23639519.848    23639521.317
        47.000          40.000
  22062581.525    -4791934.29443  -3709223.18842  22062581.930    22062581.987
        54.000          46.000
  24139791.103     1030437.41443    802038.30442  24139790.668    24139792.130
        44.000          38.000
 02  7  1 17 48  0.0000000  0 10G18G 2G17G15G23G 6G29G 3G21G22
  20395953.452     9103424.31743   7097403.37242  20395954.587    20395950.955
        56.000          50.000
  24839032.907    -1302380.41243   -994656.74942  24839034.587    24839036.545
        43.000          37.000
  20647190.111    10183079.18743   7938730.56542  20647191.104    20647188.425
        56.000          49.000
  20496636.969     8917937.54744   6954309.32342  20496637.902    20496635.717
        57.000          50.000
  23228128.850     5972031.42843   4643385.58042  23228130.449    23228128.721
        49.000          42.000
  22084129.335    17153595.30143  13359780.93742  22084131.192    22084130.426
        52.000          45.000
  23613403.787     4379615.08843   3410553.73342  23613406.346    23613404.576
        47.000          41.000
  23628036.572    -7581223.40143  -5889628.42342  23628038.646    23628036.399
        47.000          40.000
  22056601.519    -4823357.05343  -3733708.43042  22056603.000    22056601.536
        54.000          46.000
  24146223.257     1064241.45143    828379.05442  24146225.967    24146223.950
        44.000          37.000
 02  7  1 17 48 20.0000000  0 10G18G 2G17G15G23G 6G29G 3G21G22
  20395579.352     9101459.53643   7095872.38842  20395581.081    20395577.654
        56.000          50.000
  24839379.083    -1300566.03443   -993242.98742  24839378.581    24839381.351
        43.000          38.000
  20647308.163    10183700.36543   7939214.59642  20647309.141    20647306.897
        56.000          49.000
  20494954.329     8909096.65444   6947420.31742  20494955.121    20494953.368
        57.000          50.000
  23238211.138     6025013.00843   4684669.90942  23238212.265    23238210.875
        49.000          42.000
  22095649.212    17214131.52243  13406951.95942  22095650.783    22095651.140
        52.000          45.000
  23622636.384     4428133.46743   3448360.23842  23622638.196    23622636.895
        47.000          41.000
  23616573.279    -7641453.36443  -5936560.80542  23616575.445    23616574.160
        47.000          39.000
  22050645.568    -4854656.23043  -3758097.37642  22050647.430    22050645.671
        54.000          46.000
  24152686.366     1098185.70343    854829.06642  24152685.203    24152682.871
        44.000          38.000
 02  7  1 17 48 40.0000000  0 10G18G 2G17G15G23G 6G29G 3G21G22
  20395238.009     9099665.02043   7094474.07442  20395239.607    20395236.136
        55.000          50.000
  24839758.344    -1298573.94243   -991690.76242  24839759.444    24839762.822
        44.000          37.000
  20647445.021    10184419.47443   7939774.93742  20647445.828    20647444.239
        56.000          49.000
  20493292.036     8900360.72944   6940613.10842  20493292.999    20493290.775
        57.000          50.000
  23248296.636     6078011.18843   4725967.17542  23248296.808    23248296.540
        49.000          42.000
  22107196.113    17274810.16343  13454233.96042  22107198.070    22107197.210
        52.000          45.000
  23631902.055     4476819.69943   3486297.51142  23631904.848    23631900.387
        47.000          41.000
  23605135.454    -7701568.10443  -5983403.39142  23605136.454    23605135.396
        46.000          40.000
  22044712.397    -4885835.17343  -3782392.62642  22044714.064    22044712.002
        54.000          46.000
  24159172.435     1132265.73643    881384.89242  24159172.928    24159171.278
        46.000          38.000
 02  7  1 17 49  0.0000000  0 10G18G 2G17G15G23G 6G29G 3G21G22
  20394928.768     9098040.05843   7093207.88242  20394930.380    20394926.708
        55.000          50.000
  24840171.853    -1296404.74943   -990000.51542  24840172.685    24840173.966
        44.000          38.000
  20647600.577    10185236.53943   7940411.60542  20647601.385    20647599.367
        55.000          49.000
  20491649.727     8891729.68144   6933887.62142  20491650.765    20491648.401
        57.000          50.000
  23258385.057     6131025.31343   4767276.85542  23258385.798    23258385.765
        49.000          42.000
  22118769.483    17335630.32243  13501626.23342  22118771.158    22118769.973
        52.000          45.000
  23641198.473     4525672.75243   3524364.80142  23641199.483    23641198.935
        47.000          41.000
  23593716.627    -7761567.32143  -6030155.96042  23593718.532    23593718.259
        46.000          39.000
  22038801.846    -4916894.54743  -3806594.71242  22038803.336    22038801.553
        54.000          46.000
  24165681.931     1166480.60843    908045.79242  24165682.112    24165683.034
        46.000          39.000
 02  7  1 17 49 20.0000000  0 10G18G 2G17G15G23G 6G29G 3G21G22
  20394652.124     9096585.89343   7092074.77942  20394653.706    20394649.870
        56.000          50.000
  24840617.611    -1294057.33343   -988171.38942  24840618.915    24840619.726
        44.000          38.000
  20647774.845    10186153.25443   7941125.93342  20647775.907    20647773.987
        56.000          49.000
  20490027.449     8883205.21944   6927245.18942  20490028.520    20490026.339
        57.000          50.000
  23268476.388     6184056.44443   4808599.77842  23268478.375    23268476.337
        49.000          42.000
  22130370.726    17396592.81843  13549129.43142  22130372.610    22130371.775
        52.000          45.000
  23650526.815     4574693.44443   3562562.71142  23650527.228    23650526.987
        47.000          41.000
  23582322.708    -7821448.74543  -6076816.75642  23582324.449    23582322.259
        47.000          40.000
  22032914.613    -4947832.83043  -3830702.43942  22032916.135    22032915.504
        54.000          46.000
  24172217.222     1200830.91343    934812.20842  24172217.446    24172220.648
        46.000          38.000
 02  7  1 17 49 40.0000000  0 10G18G 2G17G15G23G 6G29G 3G21G22
  20394408.332     9095304.83343   7091076.56042  20394409.778    20394405.794
        56.000          50.000
  24841099.070    -1291529.54243   -986201.71242  24841100.716    24841101.042
        44.000          38.000
  20647968.966    10187172.42443   7941920.08842  20647969.902    20647967.797
        56.000          49.000
  20488426.107     8874790.18344   6920688.02442  20488426.820    20488424.860
        57.000          50.000
  23278571.306     6237106.62543   4849937.55842  23278571.512    23278570.939
        49.000          42.000
  22141998.937    17457699.43543  13596744.91142  22141999.928    22141999.486
        52.000          45.000
  23659886.853     4623883.62343   3600892.69242  23659888.670    23659887.275
        47.000          41.000
  23570950.567    -7881209.28143  -6123383.33242  23570952.805    23570951.468
        47.000          39.000
  22027050.854    -4978647.61543  -3854713.93542  22027051.588    22027050.953
        54.000          46.000
  24178780.007     1235318.40243    961685.51042  24178780.330    24178783.760
        46.000          38.000
 02  7  1 17 50  0.0000000  0 10G18G 2G17G15G23G 6G29G 3G21G22
  20394196.724     9094192.23343   7090209.61042  20394198.448    20394194.388
        56.000          50.000
  24841613.339    -1288825.78543   -984094.93542  24841614.619    24841616.409
        44.000          38.000
  20648181.713    10188290.14543   7942791.03842  20648182.850    20648180.483
        56.000          49.000
  20486844.792     8866480.60144   6914213.02842  20486845.819    20486844.107
        57.000          50.000
  23288669.686     6290171.21243   4891286.54942  23288671.642    23288668.159
        49.000          42.000
  22153653.533    17518945.33743  13644468.92842  22153655.196    22153654.368
        52.000          45.000
  23669279.096     4673238.45643   3639350.97242  23669281.091    23669279.174
        48.000          41.000
  23559600.200    -7940852.22443  -6169858.30442  23559601.960    23559600.691
        47.000          39.000
  22021209.659    -5009343.12643  -3878632.49242  22021211.266    22021209.673
        54.000          46.000
  24185368.391     1269938.16543    988661.89842  24185368.004    24185369.555
        46.000          38.000
 02  7  1 17 50 20.0000000  0 10G18G 2G17G15G23G 6G29G 3G21G22
  20394017.216     9093248.75843   7089474.44442  20394018.715    20394015.046
        56.000          50.000
  24842161.051    -1285945.45443   -981850.54942  24842160.922    24842162.225
        43.000          37.000
  20648413.379    10189507.45343   7943739.58642  20648414.464    20648412.110
        56.000          49.000
  20485283.940     8858277.56344   6907821.05442  20485284.431    20485282.551
        57.000          50.000
  23298770.287     6343250.71143   4932647.15842  23298770.234    23298770.331
        49.000          42.000
  22165334.875    17580330.84243  13692301.73342  22165336.122    22165336.241
        52.000          45.000
  23678702.004     4722758.09543   3677937.65642  23678703.650    23678701.944
        48.000          40.000
  23548273.224    -8000375.92243  -6216240.34442  23548274.018    23548274.476
        47.000          40.000
  22015391.384    -5039918.61143  -3902457.51742  22015392.512    22015391.045
        54.000          46.000
  24191981.478     1304690.17843   1015741.32642  24191983.204    24191980.844
        46.000          38.000
 02  7  1 17 50 40.0000000  0 10G18G 2G17G15G23G 6G29G 3G21G22
  20393869.781     9092475.13943   7088871.63142  20393871.474    20393867.620
        55.000          50.000
  24842742.812    -1282887.94443   -979468.11542  24842743.326    24842745.351
        43.000          37.000
  20648664.251    10190825.79743   7944766.86342  20648665.446    20648663.069
        56.000          49.000
  20483743.432     8850182.41544   6901513.15442  20483744.791    20483742.108
        57.000          50.000
  23308873.912     6396345.71043   4974019.84842  23308874.935    23308874.430
        49.000          42.000
  22177042.982    17641856.23843  13740243.53442  22177045.182    22177043.139
        52.000          45.000
  23688156.858     4772442.92743   3716653.09142  23688158.596    23688155.464
        47.000          41.000
  23536968.657    -8059778.72943  -6262528.17542  23536971.340    23536970.873
        48.000          39.000
  22009595.859    -5070373.14343  -3926188.29542  22009597.752    22009596.529
        54.000          46.000
  24198619.982     1339574.68843   1042924.00442  24198620.515    24198621.883
        46.000          38.000
 02  7  1 17 51  0.0000000  0 10G18G 2G17G15G23G 6G29G 3G21G22
  20393754.265     9091867.68443   7088398.29842  20393755.931    20393752.145
        56.000          50.000
  24843357.170    -1279656.86743   -976950.41242  24843357.999    24843362.706
        41.000          36.000
  20648933.782    10192241.86843   7945870.29342  20648934.737    20648932.042
        56.000          49.000
  20482222.934     8842191.88044   6895286.77342  20482223.479    20482221.794
        57.000          50.000
  23318980.081     6449452.39943   5015401.63542  23318980.398    23318979.579
        49.000          42.000
  22188776.684    17703517.53943  13788291.24542  22188779.172    22188777.519
        52.000          44.000
  23697642.415     4822288.99143   3755494.13542  23697643.685    23697639.434
        48.000          40.000
  23525687.218    -8119063.19643  -6308723.79942  23525687.979    23525688.082
        47.000          40.000
  22003822.934    -5100709.84843  -3949827.25742  22003824.618    22003823.653
        54.000          47.000
  24205280.438     1374587.72043   1070206.83742  24205280.707    24205285.553
        45.000          38.000
 02  7  1 17 51 20.0000000  0 10G18G 2G17G15G23G 6G29G 3G21G22
  20393671.469     9091433.60943   7088060.06142  20393673.438    20393669.798
        55.000          50.000
  24844005.775    -1276244.97143   -974291.81542  24844006.025    24844010.249
        42.000          36.000
  20649223.219    10193763.75643   7947056.17342  20649223.833    20649222.037
        56.000          49.000
  20480723.759     8834313.85044   6889148.05442  20480724.523    20480722.379
        57.000          50.000
  23329089.163     6502577.86843   5056798.07142  23329090.378    23329088.967
        49.000          42.000
  22200537.801    17765321.66943  13836450.24342  22200539.561    22200538.136
        52.000          44.000
  23707158.870     4872303.07843   3794466.12842  23707161.613    23707160.101
        47.000          40.000
  23514428.862    -8178221.12543  -6354820.83542  23514431.376    23514430.953
        45.000          39.000
  21998073.987    -5130921.67943  -3973368.92042  21998075.002    21998073.525
        54.000          47.000
  24211969.690     1409735.86443   1097594.95342  24211969.829    24211974.575
        44.000          38.000
 02  7  1 17 51 40.0000000  0 10G18G 2G17G15G23G 6G29G 3G21G22
  20393620.051     9091162.95643   7087849.17042  20393621.773    20393618.054
        56.000          50.000
  24844687.588    -1272662.28043   -971500.14142  24844689.435    24844690.669
        41.000          36.000
  20649531.026    10195381.89243   7948317.05842  20649532.036    20649529.947
        56.000          49.000
  20479244.271     8826538.93844   6883089.68742  20479244.914    20479243.039
        57.000          50.000
  23339200.152     6555712.08743   5098201.33042  23339201.236    23339202.179
        49.000          42.000
  22212323.651    17827258.26743  13884712.46442  22212325.053    22212324.105
        52.000          45.000
  23716707.293     4922474.93843   3833561.04442  23716708.984    23716706.057
        47.000          40.000
  23503195.285    -8237261.34743  -6400826.12142  23503199.081    23503198.286
        47.000          40.000
  21992346.465    -5161018.21643  -3996820.74142  21992347.658    21992347.124
        54.000          47.000
  24218684.036     1445008.70043   1125080.23042  24218684.716    24218686.231
        46.000          39.000
 02  7  1 17 52  0.0000000  0 10G18G 2G17G15G23G 6G29G 3G21G22
  20393601.293     9091063.42643   7087771.61642  20393602.542    20393598.865
        55.000          50.000
  24845403.804    -1268900.95843   -968569.28542  24845405.561    24845407.563
        41.000          36.000
  20649858.901    10197104.76443   7949659.54742  20649859.947    20649857.830
        56.000          49.000
  20477785.995     8818875.51144   6877118.19342  20477786.869    20477784.985
        57.000          50.000
  23349314.887     6608862.86343   5139617.48842  23349315.672    23349315.028
        49.000          42.000
  22224136.687    17889334.88043  13933083.79142  22224138.630    22224137.076
        52.000          44.000
  23726284.242     4972812.01543   3872784.71942  23726285.775    23726285.415
        47.000          40.000
  23491984.015    -8296175.02843  -6446732.82942  23491984.193    23491983.801
        46.000          39.000
  21986642.817    -5190991.63943  -4020176.63042  21986643.863    21986643.248
        54.000          47.000
  24225422.358     1480413.63643   1152668.43142  24225422.184    24225421.915
        47.000          39.000
 02  7  1 17 52 20.0000000  0 10G18G 2G17G15G23G 6G29G 3G21G22
  20393614.122     9091131.48943   7087824.65942  20393615.692    20393612.136
        55.000          50.000
  24846152.762    -1264964.71443   -965502.13342  24846152.430    24846157.354
        40.000          36.000
  20650206.354    10198929.05043   7951081.06542  20650207.206    20650205.352
        56.000          49.000
  20476348.239     8811320.54744   6871231.21342  20476349.054    20476347.031
        57.000          50.000
  23359431.043     6662026.37343   5181043.55642  23359433.122    23359429.949
        50.000          42.000
  22235975.469    17951547.48843  13981561.08542  22235976.471    22235976.126
        52.000          44.000
  23735895.286     5023310.22643   3912133.94542  23735898.426    23735896.537
        47.000          40.000
  23480796.635    -8354964.57443  -6492542.81142  23480797.662    23480798.819
        47.000          40.000
  21980962.293    -5220844.81043  -4043438.82042  21980963.538    21980961.875
        54.000          47.000
  24232183.352     1515946.52343   1180356.33042  24232182.738    24232182.442
        46.000          38.000
 02  7  1 17 52 40.0000000  0 10G18G 2G17G15G23G 6G29G 3G21G22
  20393658.521     9091364.65543   7088006.34942  20393660.096    20393656.375
        56.000          50.000
  24846934.879    -1260856.04043   -962300.59242  24846936.391    24846938.161
        42.000          37.000
  20650572.355    10200853.12743   7952580.33742  20650573.502    20650571.423
        56.000          49.000
  20474930.893     8803872.11344   6865427.24942  20474931.927    20474929.407
        57.000          50.000
  23369549.625     6715200.06543   5222477.57742  23369551.441    23369550.763
        49.000          42.000
  22247839.334    18013893.24543  14030142.13242  22247840.649    22247840.103
        51.000          44.000
  23745533.576     5073966.78343   3951606.56442  23745536.691    23745534.375
        46.000          39.000
  23469632.883    -8413631.42443  -6538257.16442  23469634.037    23469634.344
        47.000          40.000
  21975303.401    -5250580.58343  -4066609.53242  21975305.453    21975303.118
        54.000          47.000
  24238966.243     1551604.32843   1208141.57442  24238967.706    24238968.052
        45.000          38.000
 02  7  1 17 53  0.0000000  0 10G18G 2G17G15G23G 6G29G 3G21G22
  20393735.138     9091767.62543   7088320.35742  20393736.745    20393732.977
        56.000          50.000
  24847750.754    -1256570.19843   -958961.01842  24847751.584    24847755.274
        41.000          37.000
  20650958.285    10202882.30143   7954161.51042  20650959.234    20650957.311
        56.000          49.000
  20473534.803     8796535.44744   6859710.37042  20473535.333    20473533.266
        57.000          50.000
  23379671.054     6768388.64043   5263923.18842  23379674.145    23379671.046
        49.000          42.000
  22259729.757    18076376.60743  14078830.40742  22259731.129    22259731.542
        51.000          44.000
  23755205.643     5124786.00943   3991205.93542  23755208.254    23755207.284
        47.000          40.000
  23458493.979    -8472169.74443  -6583871.37042  23458495.085    23458493.966
        47.000          40.000
  21969668.394    -5280193.63443  -4089684.60742  21969669.655    21969668.126
        54.000          47.000
  24245775.914     1587391.38043   1236027.53142  24245775.987    24245780.274
        44.000          38.000
 02  7  1 17 53 20.0000000  0 10G18G 2G17G15G23G 6G29G 3G21G22
  20393844.893     9092344.20343   7088769.64542  20393846.428    20393842.558
        56.000          50.000
  24848599.994    -2827523.35643  -2183080.40542  24848601.859    24848604.000
        41.000          36.000
  20651365.371    10205020.95943   7955827.98942  20651366.438    20651363.946
        56.000          49.000
  20472160.767     8789314.98444   6854084.04242  20472161.700    20472159.670
        57.000          50.000
  23389796.386     6821595.85143   5305383.32142  23389797.887    23389797.219
        49.000          42.000
  22271646.643    18139001.01943  14127628.58042  22271648.040    22271649.026
        51.000          44.000
  23764907.844     5175771.40943   4030934.76542  23764910.423    23764908.376
        47.000          39.000
  23447378.920    -8530574.72143  -6629381.66442  23447381.043    23447379.356
        47.000          40.000
  21964057.410    -5309680.41443  -4112661.29042  21964058.468    21964056.792
        54.000          47.000
  24252612.218     1623311.03443   1264016.81142  24252611.118    24252618.378
        45.000          38.000
 02  7  1 17 53 40.0000000  0 10G18G 2G17G15G23G 6G29G 3G21G22
  20393983.229     9093070.87143   7089335.88442  20393984.843    20393980.902
        56.000          50.000
  24849480.485    -2822899.15843  -2179477.18842  24849481.790    24849482.821
        41.000          36.000
  20651788.811    10207246.16243   7957561.91042  20651789.855    20651787.645
        56.000          49.000
  20470804.520     8782187.79044   6848530.38842  20470805.312    20470803.616
        57.000          50.000
  23399920.634     6874798.00843   5346839.51842  23399922.084    23399922.142
        49.000          42.000
  22283586.150    18201742.50843  14176517.99142  22283587.985    22283586.760
        51.000          44.000
  23774637.137     5226899.10343   4070774.53042  23774639.376    23774640.274
        46.000          39.000
  23436286.154    -8588868.81843  -6674805.59242  23436286.980    23436287.598
        47.000          40.000
  21958465.554    -5339063.77443  -4135557.38642  21958466.986    21958466.379
        54.000          47.000
  24259469.272     1659339.30043   1292090.72942  24259469.640    24259473.869
        45.000          38.000
 02  7  1 17 54  0.0000000  0 10G18G 2G17G15G23G 6G29G 3G21G22
  20394154.560     9093970.93143   7090037.23242  20394156.143    20394152.494
        56.000          50.000
  24850394.475    -2818094.20443  -2175733.11642  24850396.566    24850397.291
        40.000          36.000
  20652233.485    10209581.85543   7959381.92742  20652234.314    20652232.437
        56.000          49.000
  20469470.553     8775177.69744   6843067.98042  20469471.536    20469469.323
        57.000          50.000
  23410048.060     6928018.37443   5388309.89442  23410049.898    23410049.695
        49.000          42.000
  22295551.970    18264624.04443  14225516.51742  22295553.806    22295552.734
        51.000          44.000
  23784398.635     5278192.02943   4110742.99942  23784401.173    23784398.399
        46.000          39.000
  23425219.064    -8647027.78943  -6720124.21142  23425219.347    23425219.979
        48.000          40.000
  21952898.445    -5368320.05643  -4158354.46642  21952899.839    21952898.291
        54.000          47.000
  24266350.122     1695498.89543   1320266.96842  24266350.063    24266353.543
        44.000          38.000
 02  7  1 17 54 20.0000000  0 10G18G 2G17G15G23G 6G29G 3G21G22
  20394356.821     9095034.43643   7090865.94542  20394358.592    20394354.495
        56.000          50.000
  24851341.497    -2813118.47343  -2171855.96342  24851342.981    24851345.145
        41.000          36.000
  20652697.140    10212018.67643   7961280.74742  20652698.403    20652695.986
        56.000          49.000
  20468156.980     8768275.50244   6837689.64942  20468158.189    20468155.799
        57.000          50.000
  23420177.303     6981246.95443   5429786.67942  23420179.004    23420177.212
        49.000          42.000
  22307542.726    18327635.44043  14274616.24242  22307544.952    22307543.801
        51.000          44.000
  23794187.827     5329639.93943   4150832.26342  23794190.169    23794188.911
        45.000          39.000
  23414175.412    -8705060.43043  -6765344.38842  23414176.150    23414174.857
        48.000          40.000
  21947353.334    -5397459.53443  -4181060.52842  21947354.542    21947353.121
        55.000          47.000
  24273251.832     1731779.43543   1348537.47542  24273251.739    24273255.407
        43.000          37.000
 02  7  1 17 54 40.0000000  0 10G18G 2G17G15G23G 6G29G 3G21G22
  20394591.164     9096266.29343   7091825.83942  20394592.814    20394589.279
        56.000          50.000
  24852321.925    -2807967.08143  -2167841.93142  24852320.919    24852324.968
        41.000          36.000
  20653181.015    10214562.03143   7963262.57742  20653181.884    20653179.885
        55.000          49.000
  20466865.094     8761486.60144   6832399.59842  20466865.968    20466863.950
        57.000          50.000
  23430309.081     7034488.55443   5471273.60542  23430309.668    23430309.849
        49.000          42.000
  22319559.013    18390781.32443  14323820.75842  22319561.372    22319560.367
        51.000          44.000
  23804009.646     5381247.42943   4191045.84542  23804011.872    23804009.225
        47.000          40.000
  23403157.868    -8762960.84943  -6810461.54042  23403158.753    23403157.982
        48.000          41.000
  21941831.703    -5426476.56543  -4203671.17042  21941833.255    21941831.663
        55.000          47.000
  24280182.984     1768185.42243   1376905.73742  24280180.902    24280181.528
        44.000          37.000
 02  7  1 17 55  0.0000000  0 10G18G 2G17G15G23G 6G29G 3G21G22
  20394856.493     9097659.82343   7092911.71042  20394857.892    20394853.942
        55.000          50.000
  24853334.014    -2802646.69343  -2163696.20842  24853335.001    24853339.308
        39.000          36.000
  20653684.211    10217206.02043   7965322.82642  20653685.435    20653683.097
        56.000          49.000
  20465593.834     8754804.97244   6827193.13542  20465594.679    20465592.536
        57.000          50.000
  23440441.377     7087736.58443   5512765.52942  23440444.384    23440442.159
        49.000          42.000
  22331599.799    18454054.62543  14373124.55542  22331601.246    22331600.565
        51.000          44.000
  23813857.986     5433007.37043   4231378.24442  23813859.887    23813858.457
        46.000          40.000
  23392162.835    -8820734.50143  -6855479.91842  23392164.528    23392163.648
        48.000          40.000
  21936331.777    -5455377.66743  -4226191.48742  21936333.393    21936332.267
        54.000          47.000
  24287135.452     1804709.82843   1405366.21942  24287133.392    24287134.189
        46.000          38.000
 02  7  1 17 55 20.0000000  0 10G18G 2G17G15G23G 6G29G 3G21G22
  20395153.215     9099219.36243   7094126.94042  20395154.988    20395151.059
        56.000          50.000
  24854379.962    -2797152.99343  -2159415.42842  24854379.095    24854382.884
        40.000          36.000
  20654207.360    10219955.46443   7967465.24642  20654208.275    20654205.933
        56.000          49.000
  20464343.587     8748235.38444   6822073.97842  20464344.679    20464342.166
        57.000          50.000
  23450576.559     7140995.17543   5554265.69642  23450577.401    23450577.464
        49.000          42.000
  22343665.292    18517459.35143  14422530.76242  22343666.729    22343666.422
        51.000          44.000
  23823739.670     5484923.77243   4271832.54642  23823741.141    23823738.322
        47.000          40.000
  23381195.426    -8878375.97143  -6900395.28942  23381196.043    23381195.631
        49.000          41.000
  21930855.061    -5484158.30643  -4248617.93742  21930856.169    21930853.956
        54.000          47.000
  24294107.576     1841356.40043   1433921.90242  24294108.246    24294110.140
        47.000          38.000
 02  7  1 17 55 40.0000000  0 10G18G 2G17G15G23G 6G29G 3G21G22
  20395481.352     9100943.83243   7095470.68742  20395482.923    20395479.349
        56.000          50.000
  24855457.289    -2791486.96443  -2155000.36842  24855456.877    24855462.360
        39.000          35.000
  20654750.701    10222810.08743   7969689.62742  20654751.831    20654749.565
        56.000          49.000
  20463114.766     8741777.52844   6817041.88442  20463115.583    20463113.518
        57.000          50.000
  23460712.932     7194263.30343   5595773.29442  23460714.951    23460712.949
        49.000          42.000
  22355755.371    18580994.25443  14472038.41242  22355756.483    22355757.024
        51.000          44.000
  23833646.515     5536995.29343   4312407.73242  23833647.857    23833647.922
        46.000          40.000
  23370250.496    -8935885.04643  -6945207.49442  23370252.837    23370254.816
        48.000          41.000
  21925401.109    -5512819.19643  -4270951.06842  21925402.624    21925401.106
        54.000          47.000
  24301101.156     1878123.69243   1462571.67842  24301102.329    24301105.913
        46.000          38.000
 02  7  1 17 56  0.0000000  0 10G18G 2G17G15G23G 6G29G 3G21G22
  20395840.774     9102831.99443   7096941.98242  20395842.261    20395838.651
        56.000          50.000
  24856567.960    -2785650.03343  -2150452.12842  24856567.735    24856574.561
        40.000          35.000
  20655313.636    10225769.08943   7971995.33842  20655314.801    20655312.483
        55.000          49.000
  20461906.873     8735430.52344   6812096.16742  20461907.959    20461905.869
        57.000          50.000
  23470851.008     7247539.56743   5637287.23842  23470852.438    23470852.380
        48.000          42.000
  22367870.416    18644657.60843  14521646.14642  22367871.685    22367871.005
        51.000          44.000
  23843585.563     5589220.35443   4353102.54542  23843586.711    23843584.527
        47.000          40.000
  23359331.167    -8993262.15743  -6989916.86342  23359334.385    23359331.648
        48.000          41.000
  21919969.275    -5541361.70443  -4293191.96342  21919970.696    21919969.522
        54.000          47.000
  24308120.210     1915009.80343   1491314.07142  24308121.558    24308121.818
        45.000          38.000
 02  7  1 17 56 20.0000000  0 10G18G 2G17G15G23G 6G29G 3G21G22
  20396231.186     9104884.32843   7098541.20642  20396232.856    20396229.063
        56.000          50.000
  24857712.303    -2779641.84243  -2145770.50842  24857710.584    24857717.828
        40.000          35.000
  20655896.842    10228833.46243   7974383.15642  20655897.774    20655895.814
        56.000          49.000
  20460720.557     8729195.53844   6807237.73942  20460721.303    20460718.932
        57.000          50.000
  23480990.922     7300824.29843   5678807.77742  23480992.987    23480990.381
        48.000          42.000
  22380009.684    18708449.51043  14571354.04642  22380011.362    22380011.238
        51.000          44.000
  23853552.668     5641598.73543   4393916.82142  23853555.225    23853553.399
        47.000          41.000
  23348439.262    -9050505.79643  -7034522.26142  23348439.933    23348441.322
        49.000          41.000
  21914560.823    -5569785.04643  -4315339.99342  21914562.043    21914560.506
        54.000          47.000
  24315164.325     1952014.79643   1520149.08142  24315161.999    24315163.119
        45.000          38.000
 02  7  1 17 56 40.0000000  0 10G18G 2G17G15G23G 6G29G 3G21G22
  20396652.278     9107097.07043   7100265.42142  20396653.666    20396650.134
        56.000          50.000
  24858886.733    -2773465.94953  -2140958.18652  24858888.339    24858891.150
        40.000          35.000
  20656499.468    10232000.22143   7976850.76242  20656500.537    20656498.321
        56.000          49.000
  20459554.663     8723069.53044   6802464.22942  20459555.608    20459553.350
        57.000          50.000
  23491131.839     7354113.81343   5720332.03142  23491132.690    23491132.025
        48.000          42.000
  22392172.244    18772365.95743  14621158.99842  22392174.875    22392174.753
        51.000          44.000
  23863548.229     5694126.61443   4434847.61442  23863549.857    23863549.580
        47.000          41.000
  23337571.395    -9107618.49743  -7079025.60742  23337571.038    23337572.389
        49.000          41.000
  21909174.040    -5598092.38443  -4337397.63642  21909175.426    21909173.800
        54.000          47.000
  24322228.894     1989134.58243   1549073.52242  24322230.274    24322226.070
        47.000          38.000
 02  7  1 17 57  0.0000000  0 10G18G 2G17G15G23G 6G29G 3G21G22
  20397105.381     9109477.65243   7102120.42242  20397107.055    20397103.079
        56.000          50.000
  24860095.475    -2767115.04343  -2136009.48242  24860094.408    24860098.754
        40.000          35.000
  20657123.063    10235277.43343   7979404.43142  20657124.132    20657121.834
        56.000          49.000
  20458411.164     8717060.59044   6797781.93942  20458412.218    20458409.614
        57.000          50.000
  23501274.121     7407415.48543   5761865.77242  23501274.754    23501276.880
        48.000          42.000
  22404360.531    18836413.94043  14671066.43542  22404363.120    22404361.489
        50.000          44.000
  23873573.740     5746810.92543   4475900.28742  23873575.132    23873575.480
        47.000          41.000
  23326729.254    -9164591.77443  -7123420.29842  23326731.294    23326730.938
        49.000          41.000
  21903811.031    -5626276.26743  -4359359.08442  21903811.778    21903810.604
        54.000          47.000
  24329314.861     2026375.99343   1578092.71042  24329314.488    24329315.302
        46.000          38.000
 02  7  1 17 57 20.0000000  0 10G18G 2G17G15G23G 6G29G 3G21G22
  20397588.699     9112016.84843   7104099.01842  20397590.132    20397586.402
        56.000          50.000
  24861336.446    -2760598.56343  -2130931.76042  24861338.150    24861339.853
        41.000          36.000
  20657766.041    10238656.17543   7982037.21342  20657767.172    20657764.739
        56.000          49.000
  20457288.348     8711159.78144   6793183.90642  20457289.373    20457286.977
        57.000          50.000
  23511418.174     7460719.95443   5803401.69042  23511419.632    23511417.738
        48.000          41.000
  22416571.729    18900583.67343  14721068.74942  22416573.348    22416573.424
        50.000          44.000
  23883627.964     5799642.18543   4517067.46942  23883630.389    23883626.629
        47.000          41.000
  23315911.106    -9221433.90243  -7167712.83242  23315913.325    23315913.474
        48.000          41.000
  21898469.180    -5654346.04943  -4381231.61642  21898470.514    21898469.223
        54.000          47.000
  24336421.426     2063729.16743   1607199.00942  24336421.248    24336423.604
        45.000          38.000
 02  7  1 17 57 40.0000000  0 10G18G 2G17G15G23G 6G29G 3G21G22
  20398102.652     9114718.46043   7106204.17342  20398104.221    20398100.275
        56.000          50.000
  24862609.055    -2753912.69243  -2125722.02142  24862610.649    24862613.204
        42.000          36.000
  20658429.229    10242141.04943   7984752.69742  20658430.302    20658428.121
        56.000          49.000
  20456186.683     8705371.53244   6788673.58242  20456187.693    20456185.573
        57.000          50.000
  23521563.242     7514031.15043   5844942.83842  23521563.649    23521563.271
        48.000          41.000
  22428806.849    18964878.78743  14771168.76042  22428808.405    22428807.331
        50.000          44.000
  23893709.155     5852623.80443   4558351.80942  23893712.249    23893710.064
        47.000          41.000
  23305121.976    -9278139.78743  -7211899.18542  23305124.615    23305122.274
        48.000          41.000
  21893150.436    -5682297.66643  -4403012.07242  21893151.420    21893150.399
        55.000          47.000
  24343552.072     2101197.65643   1636395.17542  24343551.409    24343554.059
        45.000          38.000
 02  7  1 17 58  0.0000000  0 10G18G 2G17G15G23G 6G29G 3G21G22
  20398647.525     9117581.94943   7108435.46342  20398648.932    20398645.337
        56.000          50.000
  24863913.508    -2747057.88143  -2120380.65042  24863916.415    24863917.258
        42.000          36.000
  20659112.581    10245732.34743   7987551.10642  20659113.738    20659111.543
        56.000          49.000
  20455106.860     8699696.15344   6784251.21042  20455107.583    20455105.577
        57.000          50.000
  23531708.815     7567348.60143   5886488.86642  23531709.641    23531708.418
        48.000          41.000
  22441065.359    19029298.61443  14821365.94342  22441066.453    22441066.433
        50.000          44.000
  23903819.332     5905754.90843   4599752.64642  23903821.929    23903822.067
        47.000          41.000
  23294357.119    -9334708.98643  -7255979.01842  23294358.189    23294357.367
        49.000          41.000
  21887853.889    -5710131.03143  -4424700.38742  21887854.771    21887853.973
        55.000          47.000
  24350704.969     2138780.51343   1665680.44842  24350702.885    24350704.893
        46.000          38.000
 02  7  1 17 58 20.0000000  0 10G18G 2G17G15G23G 6G29G 3G21G22
  20399223.214     9120607.97343   7110793.40642  20399225.050    20399221.139
        56.000          50.000
  24865250.028    -2740033.55943  -2114907.22442  24865250.570    24865252.636
        42.000          37.000
  20659816.397    10249431.28343   7990433.39242  20659817.671    20659815.385
        56.000          49.000
  20454048.583     8694134.91644   6779917.77842  20454049.467    20454047.126
        57.000          50.000
  23541856.108     7620672.68243   5928040.05942  23541857.729    23541855.387
        48.000          42.000
  22453347.885    19093843.36243  14871660.47642  22453350.141    22453349.435
        51.000          44.000
  23913958.607     5959035.87743   4641270.25542  23913961.262    23913958.267
        47.000          40.000
  23283618.430    -9391139.72143  -7299950.96242  23283621.959    23283620.049
        49.000          41.000
  21882579.835    -5737845.07343  -4446295.72242  21882581.127    21882579.717
        55.000          47.000
  24357879.083     2176477.83543   1695054.91842  24357880.252    24357877.844
        46.000          38.000
 02  7  1 17 58 40.0000000  0 10G18G 2G17G15G23G 6G29G 3G21G22
  20399829.544     9123793.32843   7113275.50642  20399830.985    20399827.506
        56.000          50.000
  24866618.199    -2732843.05643  -2109304.32042  24866619.616    24866623.027
        43.000          37.000
  20660540.378    10253235.00743   7993397.33142  20660541.179    20660538.886
        56.000          49.000
  20453011.372     8688685.03144   6775671.11442  20453012.475    20453010.090
        57.000          50.000
  23552004.111     7674000.18943   5969593.94342  23552005.674    23552005.049
        48.000          42.000
  22465653.599    19158509.35343  14922049.48242  22465654.963    22465655.805
        50.000          43.000
  23924124.032     6012462.98943   4682901.74142  23924127.938    23924126.255
        46.000          40.000
  23272906.563    -9447434.05443  -7343816.63642  23272907.366    23272908.412
        48.000          41.000
  21877328.418    -5765442.98043  -4467800.56442  21877329.052    21877328.095
        55.000          47.000
  24365072.252     2214285.85543   1724515.64142  24365072.779    24365071.721
        46.000          38.000
 02  7  1 17 59  0.0000000  0 10G18G 2G17G15G23G 6G29G 3G21G22
  20400466.339     9127140.14843   7115883.42042  20400467.923    20400464.327
        55.000          50.000
  24868019.661    -2725484.32343  -2103570.29342  24868021.076    24868023.792
        43.000          37.000
  20661284.667    10257146.44743   7996445.20442  20661285.874    20661283.258
        56.000          49.000
  20451996.102     8683349.37244   6771513.46142  20451997.234    20451994.849
        57.000          50.000
  23562152.964     7727333.24543   6011152.12742  23562155.323    23562154.186
        49.000          42.000
  22477982.266    19223298.32943  14972534.32542  22477984.382    22477983.419
        51.000          43.000
  23934320.389     6066038.06743   4724648.51842  23934323.072    23934318.878
        46.000          40.000
  23262219.675    -9503588.97543  -7387573.65242  23262221.519    23262220.015
        48.000          41.000
  21872098.838    -5792922.84743  -4489213.42442  21872100.358    21872098.676
        55.000          47.000
  24372287.701     2252206.18743   1754063.89142  24372286.802    24372292.261
        45.000          38.000
 02  7  1 17 59 20.0000000  0 10G18G 2G17G15G23G 6G29G 3G21G22
  20401133.964     9130648.31143   7118617.05942  20401135.640    20401131.685
        56.000          50.000
  24869451.683    -2717957.53143  -2097705.32242  24869452.728    24869456.064
        43.000          37.000
  20662049.712    10261166.16243   7999577.44842  20662050.504    20662048.465
        55.000          49.000
  20451002.572     8678128.44944   6767445.21142  20451003.482    20451001.428
        57.000          50.000
  23572302.752     7780671.80843   6052714.60742  23572305.622    23572304.371
        49.000          42.000
  22490334.952    19288210.02443  15023114.78442  22490336.322    22490335.622
        50.000          44.000
  23944541.948     6119760.65643   4766510.25242  23944544.670    23944545.140
        45.000          39.000
  23251560.270    -9559603.36743  -7431221.16042  23251561.425    23251562.233
        48.000          41.000
  21866892.173    -5820284.28843  -4510534.00542  21866893.000    21866892.029
        55.000          47.000
  24379525.875     2290238.47243   1783699.36042  24379526.799    24379528.531
        45.000          38.000
 02  7  1 17 59 40.0000000  0 10G18G 2G17G15G23G 6G29G 3G21G22
  20401832.086     9134316.69943   7121475.54742  20401833.646    20401829.733
        56.000          50.000
  24870915.575    -2710263.54443  -2091710.04842  24870917.878    24870919.552
        44.000          37.000
  20662835.177    10265293.74943   8002793.74642  20662836.038    20662833.833
        56.000          49.000
  20450030.933     8673021.83844   6763466.03642  20450031.805    20450029.347
        57.000          50.000
  23582453.749     7834014.86543   6094280.59342  23582456.775    23582455.575
        49.000          42.000
  22502710.382    19353243.05243  15073789.78742  22502711.162    22502711.660
        50.000          43.000
  23954793.892     6173629.41743   4808485.88242  23954797.812    23954796.793
        46.000          39.000
  23240928.279    -9615477.16743  -7474759.15542  23240929.278    23240928.744
        48.000          41.000
  21861707.620    -5847528.50343  -4531763.24442  21861708.826    21861707.519
        55.000          47.000
  24386784.431     2328381.15143   1813420.87642  24386784.253    24386786.658
        44.000          38.000
 02  7  1 18  0  0.0000000  0 10G18G 2G17G15G23G 6G29G 3G21G22
  20402559.971     9138142.64243   7124456.80942  20402561.833    20402557.852
        55.000          50.000
  24872411.910    -2702405.35043  -2085586.82542  24872413.155    24872415.742
        44.000          37.000
  20663640.596    10269526.85143   8006092.26442  20663641.736    20663639.443
        55.000          49.000
  20449080.456     8668027.20744   6759574.11642  20449081.470    20449079.164
        57.000          50.000
  23592604.920     7887359.40743   6135847.74942  23592606.659    23592605.772
        49.000          42.000
  22515108.433    19418394.17943  15124556.82242  22515110.330    22515109.465
        50.000          43.000
  23965070.683     6227641.05643   4850572.84342  23965075.738    23965072.486
        45.000          39.000
  23230323.849    -9671212.40443  -7518189.13842  23230322.547    23230321.763
        49.000          41.000
  21856545.333    -5874657.52343  -4552902.71442  21856546.416    21856544.083
        55.000          47.000
  24394064.502     2366630.65643   1843225.60442  24394062.690    24394065.017
        46.000          38.000
 02  7  1 18  0 20.0000000  0 10G18G 2G17G15G23G 6G29G 3G21G22
  20403318.669     9142128.86343   7127562.96242  20403320.274    20403316.448
        56.000          50.000
  24873938.759    -2694380.10243  -2079333.43842  24873941.439    24873942.822
        44.000          37.000
  20664467.016    10273869.25243   8009475.95342  20664467.670    20664465.366
        56.000          49.000
  20448151.934     8663148.24144   6755772.32942  20448153.081    20448150.700
        57.000          50.000
  23602756.654     7940708.38043   6177418.32742  23602758.086    23602756.469
        48.000          42.000
  22527529.176    19483666.03043  15175417.91642  22527530.740    22527531.002
        50.000          43.000
  23975377.851     6281798.25143   4892773.20742  23975378.781    23975376.591
        45.000          39.000
  23219742.836    -9726804.81643  -7561507.85042  23219744.958    23219744.072
        48.000          41.000
  21851405.309    -5901668.08543  -4573949.88842  21851406.360    21851405.408
        55.000          47.000
  24401362.667     2404989.80143   1873115.78042  24401363.222    24401364.148
        46.000          38.000
 02  7  1 18  0 40.0000000  0  9G18G17G15G23G 6G29G 3G21G22
  20404108.351     9146279.01643   7130796.85442  20404109.958    20404106.068
        55.000          50.000
  20665314.835    10278325.04543   8012948.00242  20665315.889    20665313.409
        55.000          49.000
  20447246.518     8658389.03444   6752063.86142  20447247.065    20447244.942
        57.000          50.000
  23612910.779     7994065.31443   6218995.12542  23612911.673    23612912.606
        48.000          42.000
  22539973.575    19549061.88443  15226375.64442  22539975.613    22539975.136
        50.000          44.000
  23985712.322     6336104.29443   4935089.56742  23985716.105    23985713.719
        45.000          39.000
  23209192.190    -9782249.62543  -7604711.53142  23209193.692    23209193.181
        47.000          41.000
  21846288.674    -5928556.72643  -4594902.05742  21846290.063    21846288.445
        55.000          47.000
  24408683.519     2443461.56743   1903093.69942  24408683.003    24408683.879
        45.000          37.000
 02  7  1 18  1  0.0000000  0 10G18G17G15G23G 6G29G 3G14G21G22
  20404925.593     9150573.44343   7134143.16742  20404927.134    20404923.426
        56.000          50.000
  20666180.681    10282875.15043   8016493.53942  20666181.895    20666179.335
        56.000          49.000
  20446359.867     8653730.47244   6748433.81342  20446360.989    20446358.727
        57.000          50.000
  23623061.955     8047410.61643   6260562.85942  23623062.720    23623062.714
        48.000          41.000
  22552437.697    19614561.58443  15277414.28542  22552439.773    22552439.164
        50.000          43.000
  23996070.234     6390538.91443   4977506.13842  23996071.816    23996072.659
        44.000          39.000
  23198665.759    -9837565.41443  -7647814.67842  23198668.777    23198666.419
        49.000          41.000
  24654504.699    -4507508.20153  -2673859.11052  24654507.980    24654507.887
        44.000          36.000
  21841191.276    -5955342.99843  -4615774.45542  21841192.428    21841191.238
        55.000          47.000
  24416020.772     2482025.79043   1933143.68242  24416020.301    24416021.816
        44.000          37.000
 02  7  1 18  1 20.0000000  0 10G18G17G15G23G 6G29G 3G14G21G22
  20405775.083     9155037.64343   7137621.77042  20405776.695    20405773.077
        55.000          50.000
  20667069.496    10287545.66243   8020132.90142  20667070.413    20667068.223
        55.000          49.000
  20445497.331     8649198.74844   6744902.60442  20445498.454    20445496.340
        57.000          50.000
  23633215.797     8100769.83043   6302141.42042  23633217.839    23633215.181
        48.000          41.000
  22564926.868    19680190.32043  15328553.47342  22564929.383    22564927.464
        50.000          43.000
  24006459.554     6445127.43743   5020042.61642  24006461.083    24006457.492
        45.000          39.000
  23188169.548    -9892725.57843  -7690796.58542  23188171.744    23188171.544
        48.000          41.000
  24640046.368    -4583484.88943  -2733061.58242  24640047.516    24640051.961
        44.000          36.000
  21836118.430    -5982001.01543  -4636546.91542  21836119.920    21836118.057
        55.000          47.000
  24423383.278     2520707.46143   1963285.15742  24423382.609    24423383.822
        44.000          38.000
 02  7  1 18  1 40.0000000  0 10G18G17G15G23G 6G29G 3G14G21G22
  20406654.266     9159658.31643   7141222.29842  20406655.847    20406652.056
        56.000          50.000
  20667978.794    10292324.04643   8023856.31642  20667979.832    20667977.787
        56.000          49.000
  20444656.814     8644781.04844   6741460.24442  20444657.742    20444655.732
        57.000          50.000
  23643370.282     8154129.55543   6343720.38342  23643371.356    23643370.991
        47.000          41.000
  22577437.644    19745934.39843  15379782.54142  22577439.753    22577439.590
        51.000          43.000
  24016873.761     6499856.14843   5062688.30942  24016875.390    24016873.749
        46.000          39.000
  23177700.778    -9947742.47043  -7733666.83842  23177701.171    23177701.080
        49.000          41.000
  24625589.021    -4659460.63143  -2792263.33342  24625591.328    24625592.972
        44.000          36.000
  21831067.320    -6008544.13043  -4657229.83642  21831068.569    21831067.089
        55.000          47.000
  24430764.516     2559492.93243   1993507.51942  24430762.267    24430766.739
        45.000          38.000
 02  7  1 18  2  0.0000000  0 10G18G17G15G23G 6G29G 3G14G21G22
  20407563.612     9164436.89243   7144945.86642  20407565.212    20407561.385
        56.000          50.000
  20668908.891    10297212.32543   8027665.35742  20668909.860    20668907.591
        56.000          49.000
  20443838.308     8640479.56444   6738108.44642  20443839.494    20443837.082
        57.000          50.000
  23653524.609     8207491.27443   6385300.90642  23653524.760    23653524.073
        48.000          41.000
  22589970.454    19811794.98943  15431102.38542  22589971.173    22589972.176
        50.000          43.000
  24027315.593     6554726.17443   5105444.15242  24027317.306    24027315.403
        46.000          40.000
  23167257.967   -10002613.61743  -7776423.52342  23167258.601    23167257.383
        49.000          41.000
  24611131.434    -4735432.81143  -2851462.30642  24611132.453    24611137.377
        43.000          37.000
  21826038.782    -6034970.32943  -4677821.66042  21826040.044    21826038.062
        55.000          47.000
  24438165.782     2598383.00343   2023811.39542  24438163.817    24438167.236
        44.000          38.000
 02  7  1 18  2 20.0000000  0 10G18G17G15G23G 6G29G 3G14G21G22
  20408503.609     9169375.52643   7148794.15842  20408504.898    20408501.516
        56.000          50.000
  20669860.563    10302213.14943   8031562.10942  20669861.853    20669859.098
        56.000          49.000
  20443042.358     8636296.90944   6734849.24242  20443043.255    20443041.332
        57.000          50.000
  23663680.174     8260856.92243   6426884.49242  23663681.467    23663679.912
        48.000          41.000
  22602525.572    19877773.71743  15482514.29342  22602527.224    22602526.962
        50.000          43.000
  24037784.544     6609739.15043   5148311.35442  24037785.587    24037785.969
        46.000          40.000
  23156845.766   -10057335.86943  -7819064.17342  23156847.351    23156845.366
        49.000          41.000
  24596675.720    -4811398.25243  -2910656.04342  24596678.904    24596680.656
        44.000          36.000
  21821032.683    -6061277.46043  -4698320.69642  21821033.442    21821032.027
        55.000          47.000
  24445585.001     2637379.33043   2054198.06142  24445585.783    24445588.134
        45.000          38.000
 02  7  1 18  2 40.0000000  0 10G18G17G15G23G 6G29G 3G14G21G22
  20409472.162     9174466.24543   7152760.95242  20409473.478    20409470.464
        55.000          50.000
  20670832.194    10307319.37143   8035540.98242  20670833.569    20670831.058
        55.000          49.000
  20442267.700     8632226.01844   6731677.12842  20442268.618    20442266.592
        57.000          50.000
  23673834.324     8314218.78843   6468465.13342  23673836.608    23673834.781
        49.000          41.000
  22615102.145    19943862.60843  15534012.04342  22615103.444    22615104.127
        51.000          43.000
  24048278.646     6664886.96443   5191283.65942  24048280.085    24048279.225
        47.000          40.000
  23146458.038   -10111915.88643  -7861594.00042  23146461.739    23146459.724
        49.000          42.000
  24582219.043    -4887363.69443  -2969849.75642  24582221.758    24582224.296
        42.000          36.000
  21816047.670    -6087472.91743  -4718732.71542  21816049.356    21816047.384
        55.000          47.000
  24453024.728     2676473.74143   2084661.17142  24453025.100    24453027.253
        45.000          38.000
 02  7  1 18  3  0.0000000  0 10G18G17G15G23G 6G29G 3G14G21G22
  20410471.084     9179715.53943   7156851.31742  20410472.671    20410468.845
        56.000          50.000
  20671825.375    10312538.04143   8039607.46842  20671826.145    20671824.052
        56.000          49.000
  20441515.649     8628273.89044   6728597.55442  20441516.635    20441514.116
        57.000          50.000
  23683988.834     8367583.37843   6510047.90342  23683989.313    23683989.059
        49.000          41.000
  22627700.821    20010067.78643  15585600.39842  22627702.244    22627702.014
        50.000          43.000
  24058800.170     6720175.69243   5234365.72442  24058802.353    24058801.005
        47.000          40.000
  23136101.660   -10166346.06143  -7904007.10542  23136102.845    23136101.752
        49.000          41.000
  24567765.331    -4963321.42043  -3029037.47642  24567767.306    24567770.222
        42.000          36.000
  21811085.430    -6113549.89343  -4739052.41042  21811086.785    21811085.271
        55.000          47.000
  24460484.341     2715672.12543   2115205.29042  24460483.096    24460483.392
        45.000          38.000
 02  7  1 18  3 20.0000000  0 10G18G17G15G23G 6G29G 3G14G21G22
  20411499.663     9185120.54243   7161063.00842  20411501.150    20411497.722
        56.000          50.000
  20672839.506    10317867.11343   8043759.98542  20672840.743    20672837.959
        56.000          49.000
  20440785.889     8624438.40444   6725608.87542  20440786.714    20440784.409
        57.000          50.000
  23694143.147     8420947.87543   6551630.59742  23694144.691    23694144.186
        48.000          41.000
  22640320.432    20076386.08043  15637276.90542  22640321.749    22640322.630
        51.000          43.000
  24069346.735     6775602.22343   5277555.19342  24069349.266    24069347.513
        47.000          40.000
  23125771.884   -10220628.17443  -7946304.77942  23125773.915    23125771.547
        49.000          42.000
  24553311.991    -5039273.02443  -3088220.41542  24553313.285    24553316.840
        42.000          36.000
  21806145.132    -6139511.39343  -4759282.12442  21806145.970    21806144.332
        55.000          47.000
  24467962.393     2754971.33543   2145827.93542  24467963.342    24467964.423
        45.000          38.000
 02  7  1 18  3 40.0000000  0 10G18G17G15G23G 6G29G 3G14G21G22
  20412556.895     9190676.67343   7165392.46342  20412558.439    20412554.800
        55.000          50.000
  20673873.757    10323302.67543   8047995.48142  20673875.111    20673872.410
        55.000          49.000
  20440077.399     8620715.61744   6722708.00942  20440078.328    20440075.512
        57.000          50.000
  23704297.847     8474307.74543   6593209.68342  23704300.734    23704298.263
        48.000          41.000
  22652961.168    20142812.50543  15689037.65542  22652964.221    22652961.920
        50.000          43.000
  24079919.342     6831161.65943   5320848.22742  24079921.132    24079920.487
        47.000          40.000
  23115469.171   -10274765.62243  -7988489.77442  23115470.076    23115468.479
        49.000          42.000
  24538859.198    -5115222.07043  -3147401.35242  24538861.811    24538863.876
        42.000          36.000
  21801225.928    -6165361.68743  -4779425.18842  21801226.863    21801225.903
        55.000          47.000
  24475460.836     2794366.17243   2176525.14642  24475458.343    24475461.054
        45.000          38.000
 02  7  1 18  4  0.0000000  0 10G18G17G15G23G 6G29G 3G14G21G22
  20413644.746     9196393.23843   7169846.93342  20413646.367    20413642.692
        56.000          50.000
  20674930.429    10328854.46243   8052321.54342  20674931.497    20674929.339
        56.000          49.000
  20439392.160     8617115.19544   6719902.49142  20439392.968    20439390.909
        57.000          50.000
  23714452.440     8527672.10043   6634792.27342  23714453.671    23714455.593
        48.000          41.000
  22665624.311    20209355.90743  15740889.56842  22665625.599    22665626.808
        50.000          43.000
  24090517.511     6886862.79143   5364251.65042  24090521.105    24090521.037
        46.000          40.000
  23105196.343   -10328748.25243  -8030554.09542  23105197.414    23105196.642
        49.000          42.000
  24524409.113    -5191158.29143  -3206572.31842  24524411.673    24524413.948
        42.000          36.000
  21796329.567    -6191091.08443  -4799474.04542  21796331.063    21796329.367
        55.000          47.000
  24482976.568     2833865.43743   2207303.72742  24482975.729    24482977.704
        46.000          38.000
 02  7  1 18  4 20.0000000  0 10G18G17G15G23G 6G29G 3G14G21G22
  20414761.470     9202261.83643   7174419.86842  20414763.032    20414759.520
        55.000          50.000
  20676007.317    10334514.65043   8056732.07142  20676008.334    20676005.896
        55.000          49.000
  20438728.851     8613629.44844   6717186.33242  20438729.902    20438727.732
        57.000          50.000
  23724606.606     8581032.62343   6676371.87942  23724608.482    23724607.225
        48.000          41.000
  22678307.544    20276007.56343  15792825.82642  22678309.483    22678309.343
        50.000          43.000
  24101143.298     6942696.93543   5407758.77042  24101145.324    24101144.839
        47.000          40.000
  23094952.021   -10382583.19843  -8072503.36042  23094953.273    23094954.192
        49.000          42.000
  24509959.703    -5267088.86643  -3265738.87142  24509961.948    24509965.079
        41.000          36.000
  21791454.880    -6216708.24543  -4819435.44742  21791456.352    21791454.773
        55.000          47.000
  24490511.698     2873460.19643   2238156.68442  24490512.461    24490513.769
        46.000          38.000
 02  7  1 18  4 40.0000000  0 10G18G17G15G23G 6G29G 3G14G21G22
  20415908.097     9208287.09843   7179114.88342  20415909.498    20415905.988
        56.000          50.000
  20677106.351    10340288.68543   8061231.30942  20677107.190    20677104.852
        56.000          49.000
  20438088.476     8610263.76044   6714563.72942  20438089.143    20438087.066
        57.000          50.000
  23734761.900     8634394.01343   6717952.13942  23734762.381    23734761.551
        48.000          41.000
  22691012.169    20342771.75243  15844849.77642  22691013.661    22691014.342
        49.000          43.000
  24111794.250     6998668.22543   5451372.70742  24111796.692    24111794.189
        46.000          40.000
  23084737.317   -10436264.85843  -8114333.19442  23084740.593    23084737.580
        49.000          42.000
  24495512.790    -5343008.10243  -3324896.59042  24495513.929    24495517.717
        41.000          36.000
  21786602.652    -6242207.76843  -4839305.18042  21786603.876    21786602.489
        55.000          47.000
  24498064.841     2913154.79443   2269087.45442  24498064.419    24498068.557
        46.000          39.000
 02  7  1 18  5  0.0000000  0 10G18G17G15G23G 6G29G 3G14G21G22
  20417083.872     9214464.98643   7183928.82342  20417085.351    20417081.241
        56.000          50.000
  20678225.950    10346173.25843   8065816.68542  20678226.906    20678224.572
        56.000          49.000
  20437470.104     8607014.81744   6712032.09342  20437470.835    20437468.959
        57.000          50.000
  23744915.455     8687752.27743   6759529.97142  23744915.453    23744917.167
        47.000          41.000
  22703737.960    20409644.07243  15896957.98142  22703738.665    22703739.825
        50.000          43.000
  24122471.561     7054772.51943   5495090.27542  24122472.330    24122471.044
        45.000          40.000
  23074550.026   -10489796.03043  -8156045.74142  23074551.378    23074549.965
        49.000          42.000
  24481067.224    -5418918.77443  -3384047.63942  24481069.968    24481073.925
        42.000          37.000
  21781771.646    -6267593.48043  -4859086.23542  21781773.299    21781771.672
        55.000          47.000
  24505633.576     2952944.76243   2300092.53842  24505633.796    24505637.835
        44.000          38.000
 02  7  1 18  5 20.0000000  0 10G18G17G15G23G 6G29G 3G14G21G22
  20418288.933     9220797.59143   7188863.32142  20418290.144    20418286.608
        56.000          50.000
  20679367.410    10352170.93943   8070490.19642  20679368.583    20679366.064
        56.000          49.000
  20436874.437     8603885.12444   6709593.37642  20436875.371    20436873.108
        57.000          50.000
  23755068.429     8741109.43443   6801106.92042  23755069.272    23755069.073
        47.000          41.000
  22716484.276    20476626.19343  15949151.73742  22716485.941    22716486.246
        49.000          42.000
  24133173.419     7111011.26043   5538912.63742  24133175.442    24133174.983
        46.000          40.000
  23064392.618   -10543173.61743  -8197638.62242  23064395.070    23064393.674
        49.000          42.000
  24466623.788    -5494817.76243  -3443189.59942  24466625.664    24466630.312
        42.000          37.000
  21776963.151    -6292863.34243  -4878777.01242  21776964.377    21776962.770
        55.000          47.000
  24513227.495     2992831.44743   2331172.97842  24513224.950    24513227.057
        45.000          38.000
 02  7  1 18  5 40.0000000  0 10G18G17G15G23G 6G29G 3G14G21G22
  20419522.906     9227282.16543   7193916.23642  20419524.223    20419520.544
        56.000          50.000
  20680529.631    10358279.70743   8075250.26442  20680530.884    20680528.522
        55.000          49.000
  20436301.230     8600872.64844   6707245.99742  20436302.122    20436300.015
        57.000          50.000
  23765221.648     8794462.84643   6842680.96342  23765223.249    23765221.265
        47.000          41.000
  22729250.868    20543715.23043  16001428.81642  22729252.817    22729252.072
        49.000          43.000
  24143900.217     7167381.51743   5582837.46942  24143903.083    24143900.380
        46.000          39.000
  23054263.492   -10596399.29443  -8239113.11842  23054265.985    23054263.434
        48.000          41.000
  24452182.921    -5570706.73343  -3502323.74242  24452184.925    24452187.773
        42.000          37.000
  21772175.895    -6318019.97643  -4898379.56442  21772176.732    21772175.889
        55.000          47.000
  24520835.309     3032811.87843   2362326.48642  24520834.159    24520835.625
        45.000          38.000
 02  7  1 18  6  0.0000000  0 10G18G17G15G23G 6G29G 3G14G21G22
  20420786.120     9233921.05243   7199089.39942  20420787.656    20420783.991
        56.000          50.000
  20681713.850    10364502.45743   8080099.15442  20681715.002    20681712.725
        56.000          49.000
  20435750.945     8597980.36344   6704992.27142  20435751.813    20435749.393
        57.000          50.000
  23775374.460     8847814.82843   6884253.89542  23775375.431    23775376.303
        46.000          41.000
  22742038.025    20610913.08743  16053790.68442  22742040.295    22742040.620
        49.000          43.000
  24154652.445     7223885.33943   5626866.34442  24154655.491    24154652.765
        46.000          39.000
  23044165.591   -10649469.53943  -8280466.51542  23044166.631    23044167.622
        49.000          42.000
  24437744.526    -5646582.07243  -3561447.27142  24437746.223    24437749.103
        43.000          37.000
  21767410.684    -6343060.73043  -4917891.82042  21767412.015    21767410.147
        55.000          47.000
  24528460.549     3072887.76743   2393554.34742  24528460.905    24528462.652
        45.000          38.000
 02  7  1 18  6 20.0000000  0 10G18G17G15G23G 6G29G 3G14G21G22
  20422078.658     9240713.29143   7204382.05142  20422080.153    20422076.383
        56.000          50.000
  20682919.603    10370838.87343   8085036.61642  20682920.460    20682918.077
        55.000          49.000
  20435223.321     8595207.95144   6702831.95942  20435224.391    20435221.865
        57.000          50.000
  23785525.327     8901164.50443   6925825.04042  23785528.285    23785527.925
        47.000          41.000
  22754845.943    20678218.45943  16106236.33442  22754848.128    22754849.388
        49.000          42.000
  24165429.093     7280521.34143   5670998.25442  24165429.692    24165430.505
        44.000          39.000
  23034096.181   -10702384.42643  -8321698.86242  23034097.786    23034094.902
        49.000          42.000
  24423308.355    -5722443.54943  -3620560.00742  24423309.850    24423313.490
        44.000          38.000
  21762667.697    -6367986.10743  -4937314.16742  21762668.817    21762667.385
        55.000          47.000
  24536103.025     3113057.74443   2424855.54142  24536102.831    24536104.536
        44.000          37.000
 02  7  1 18  6 40.0000000  0 10G18G17G15G23G 6G29G 3G14G21G22
  20423399.983     9247657.42543   7209793.06542  20423401.574    20423397.937
        56.000          50.000
  20684146.885    10377288.42543   8090062.23742  20684147.869    20684146.136
        55.000          49.000
  20434718.372     8592554.66844   6700764.46942  20434719.320    20434716.819
        57.000          50.000
  23795678.154     8954510.64243   6967393.40242  23795680.029    23795677.107
        48.000          41.000
  22767674.201    20745629.63143  16158764.41342  22767675.880    22767676.186
        49.000          42.000
  24176230.498     7337287.71143   5715231.76742  24176232.575    24176233.547
        44.000          39.000
  23024056.548   -10755144.04243  -8362810.18742  23024059.193    23024057.392
        49.000          42.000
  24408875.295    -5798291.54543  -3679662.22942  24408876.945    24408880.538
        44.000          38.000
  21757946.200    -6392797.30043  -4956647.54242  21757947.534    21757946.054
        55.000          47.000
  24543766.730     3153319.98843   2456228.62542  24543765.351    24543768.165
        45.000          38.000
 02  7  1 18  7  0.0000000  0 10G18G17G15G23G 6G29G 3G14G21G22
  20424750.301     9254753.37743   7215322.38342  20424751.907    20424748.398
        56.000          50.000
  20685396.030    10383851.54843   8095176.35442  20685397.089    20685394.573
        56.000          49.000
  20434236.427     8590021.00544   6698790.18942  20434237.078    20434234.880
        57.000          50.000
  23805829.450     9007853.11443   7008958.92942  23805830.328    23805830.397
        48.000          41.000
  22780522.081    20813146.16043  16211374.59042  22780524.857    22780524.508
        49.000          42.000
  24187057.299     7394184.16243   5759566.60442  24187058.860    24187058.069
        43.000          38.000
  23014045.701   -10807747.45443  -8403799.82142  23014048.343    23014046.467
        50.000          42.000
  24394444.510    -5874124.94243  -3738753.08142  24394444.605    24394448.613
        45.000          38.000
  21753246.505    -6417494.68643  -4975892.24042  21753247.735    21753246.386
        55.000          47.000
  24551444.522     3193673.98043   2487673.16942  24551444.513    24551447.268
        44.000          37.000
 02  7  1 18  7 20.0000000  0 10G18G17G15G23G 6G29G 3G14G21G22
  20426129.034     9261998.36043   7220967.82742  20426130.574    20426127.002
        56.000          50.000
  20686666.009    10390525.98343   8100377.20842  20686666.886    20686664.743
        56.000          48.000
  20433776.783     8587604.88144   6696907.49542  20433777.456    20433775.359
        57.000          50.000
  23815978.855     9061189.16443   7050519.46242  23815980.351    23815977.154
        48.000          41.000
  22793389.738    20880764.90243  16264064.42442  22793391.801    22793390.747
        49.000          42.000
  24197909.785     7451207.33843   5804000.21742  24197909.696    24197910.107
        43.000          39.000
  23004064.509   -10860196.36143  -8444669.03742  23004066.150    23004066.782
        49.000          42.000
  24380016.523    -5949945.31943  -3797833.79242  24380017.763    24380021.647
        45.000          38.000
  21748568.014    -6442080.37743  -4995049.90042  21748568.312    21748567.667
        55.000          47.000
  24559142.851     3234116.35343   2519186.64342  24559140.985    24559143.600
        45.000          38.000
 02  7  1 18  7 40.0000000  0 10G18G17G15G23G 6G29G 3G14G21G22
  20427537.096     9269397.77243   7226733.60542  20427538.199    20427534.959
        56.000          50.000
  20687958.516    10397318.01043   8105669.69142  20687959.438    20687957.255
        55.000          49.000
  20433340.204     8585312.37744   6695121.13142  20433341.143    20433338.814
        57.000          50.000
  23826127.306     9114524.20743   7092079.18042  23826128.880    23826128.900
        48.000          40.000
  22806277.734    20948490.92543  16316837.83842  22806277.664    22806279.431
        49.000          42.000
  24208786.903     7508362.50743   5848536.66042  24208788.301    24208787.990
        45.000          38.000
  22994115.148   -10912484.25143  -8485412.81042  22994117.207    22994116.543
        49.000          42.000
  24365591.899    -6025746.23443  -3856899.33442  24365593.334    24365595.611
        45.000          39.000
  21743911.615    -6466548.96543  -5014116.31142  21743913.001    21743911.028
        55.000          47.000
  24566854.940     3274652.19843   2550772.92442  24566855.186    24566857.394
        44.000          38.000
 02  7  1 18  8  0.0000000  0 10G18G17G15G23G 6G29G 3G14G21G22
  20428973.298     9276945.79443   7232615.18242  20428974.924    20428971.179
        56.000          50.000
  20689272.404    10404222.41643   8111049.74742  20689273.283    20689271.085
        55.000          49.000
  20432926.367     8583138.27844   6693427.02842  20432927.234    20432925.518
        57.000          50.000
  23836275.279     9167852.57143   7133633.73642  23836275.779    23836276.480
        48.000          40.000
  22819184.594    21016318.10643  16369690.08442  22819186.740    22819187.704
        48.000          42.000
  24219686.790     7565643.42043   5893171.09542  24219687.701    24219686.217
        45.000          38.000
  22984194.653   -10964615.70843  -8526034.68742  22984197.275    22984195.726
        48.000          42.000
  24351170.280    -6101532.26143  -3915953.28542  24351172.461    24351173.791
        45.000          39.000
  21739276.723    -6490905.98843  -5033095.78842  21739278.045    21739276.508
        55.000          47.000
  24574585.887     3315275.22943   2582427.11942  24574586.311    24574590.002
        44.000          38.000
 02  7  1 18  8 20.0000000  0 10G18G17G15G23G 6G29G 3G14G21G22
  20430438.551     9284645.10843   7238614.64942  20430440.172    20430436.373
        56.000          50.000
  20690608.354    10411242.34043   8116519.81342  20690609.180    20690606.758
        56.000          48.000
  20432535.989     8581085.66744   6691827.59142  20432536.719    20432534.395
        57.000          50.000
  23846422.680     9221176.78843   7175185.04742  23846421.188    23846421.002
        47.000          40.000
  22832111.756    21084248.53943  16422622.77842  22832113.457    22832112.657
        49.000          42.000
  24230611.743     7623052.35743   5937905.27042  24230612.932    24230612.662
        44.000          38.000
  22974304.582   -11016587.26943  -8566531.94642  22974306.140    22974304.198
        49.000          42.000
  24336751.996    -6177299.85543  -3974992.86742  24336753.572    24336755.652
        46.000          38.000
  21734663.563    -6515148.54543  -5051986.07242  21734664.749    21734663.404
        55.000          47.000
  24582333.326     3355987.42243   2614150.81342  24582332.527    24582336.341
        44.000          38.000
 02  7  1 18  8 40.0000000  0 10G18G17G15G23G 6G29G 3G14G21G22
  20431931.738     9292491.77043   7244728.93342  20431933.303    20431929.614
        56.000          50.000
  20691965.447    10418374.75443   8122077.53542  20691966.556    20691964.260
        55.000          49.000
  20432167.916     8579151.73344   6690320.62742  20432169.019    20432166.513
        57.000          50.000
  23856569.478     9274493.25043   7216730.31542  23856571.011    23856569.715
        48.000          40.000
  22845057.185    21152278.30843  16475632.87642  22845057.997    22845060.677
        49.000          42.000
  24241559.638     7680585.27943   5982736.07642  24241561.692    24241560.004
        45.000          38.000
  22964445.074   -11068401.46243  -8606906.61542  22964446.436    22964447.438
        49.000          42.000
  24322336.839    -6253051.45343  -4034019.99542  24322338.246    24322341.062
        46.000          38.000
  21730071.369    -6539280.25143  -5070789.98242  21730072.956    21730070.615
        55.000          47.000
  24590098.661     3396784.71843   2645940.80542  24590097.645    24590098.263
        45.000          38.000
 02  7  1 18  9  0.0000000  0 10G18G17G15G23G 6G29G 3G14G21G22
  20433454.261     9300492.75643   7250963.46942  20433455.787    20433452.250
        56.000          50.000
  20693345.630    10425627.19943   8127728.79342  20693346.289    20693344.829
        55.000          49.000
  20431823.965     8577343.84844   6688911.88442  20431824.798    20431822.549
        57.000          50.000
  23866714.165     9327808.82443   7258274.88442  23866717.712    23866715.545
        47.000          40.000
  22858023.103    21220413.86643  16528725.40442  22858023.874    22858023.964
        49.000          42.000
  24252532.439     7738248.63843   6027668.54342  24252534.327    24252534.031
        46.000          38.000
  22954617.130   -11120050.42643  -8647152.51942  22954617.256    22954617.482
        49.000          42.000
  24307926.447    -6328778.99843  -4093028.37842  24307928.196    24307930.006
        46.000          38.000
  21725501.697    -6563294.20543  -5089502.13342  21725502.522    21725501.323
        55.000          47.000
  24597875.652     3437673.40643   2677802.05942  24597876.838    24597878.447
        43.000          37.000
 02  7  1 18  9 20.0000000  0 10G18G17G15G23G 6G29G 3G14G21G22
  20435004.790     9308641.39643   7257313.06242  20435006.508    20435002.541
        56.000          50.000
  20694747.447    10432993.64843   8133468.88042  20694748.536    20694746.038
        55.000          49.000
  20431502.640     8575656.05544   6687596.72042  20431503.686    20431501.449
        57.000          50.000
  23876857.655     9381116.94443   7299813.65642  23876859.888    23876860.295
        47.000          39.000
  22871007.958    21288648.28343  16581894.97242  22871009.636    22871009.324
        49.000          42.000
  24263529.307     7796035.27043   6072697.03842  24263530.499    24263530.032
        45.000          38.000
  22944818.260   -11171539.52343  -8687273.82842  22944820.052    22944819.005
        50.000          42.000
  24293519.269    -6404488.12643  -4152022.39842  24293521.305    24293522.835
        46.000          38.000
  21720953.151    -6587196.48443  -5108127.26742  21720954.719    21720953.220
        55.000          48.000
  24605673.521     3478646.52843   2709729.06942  24605673.396    24605675.713
        44.000          37.000
 02  7  1 18  9 40.0000000  0 10G18G17G15G23G 6G29G 3G14G21G22
  20436583.532     9316936.95543   7263777.13942  20436584.910    20436581.582
        56.000          50.000
  20696170.790    10440474.17543   8139297.86242  20696171.722    20696170.108
        55.000          49.000
  20431204.337     8574088.28744   6686375.08242  20431205.272    20431203.241
        57.000          50.000
  23887000.686     9434416.93843   7341346.09142  23887003.217    23887002.050
        46.000          39.000
  22884011.071    21356980.52443  16635140.75742  22884012.591    22884013.306
        48.000          42.000
  24274549.785     7853944.32643   6117820.93342  24274550.445    24274548.215
        45.000          38.000
  22935049.615   -11222868.65043  -8727270.50542  22935052.462    22935050.938
        49.000          42.000
  24279115.713    -6480178.31443  -4211001.67342  24279118.090    24279120.516
        45.000          38.000
  21716425.959    -6610987.81843  -5126665.95142  21716427.058    21716425.352
        55.000          48.000
  24613486.903     3519702.81043   2741720.88342  24613487.235    24613487.262
        43.000          37.000
 02  7  1 18 10  0.0000000  0 10G18G17G15G23G 6G29G 3G14G21G22
  20438190.681     9325382.91743   7270358.40942  20438192.481    20438188.485
        56.000          50.000
  20697616.906    10448072.75743   8145218.83342  20697617.994    20697615.536
        55.000          49.000
  20430929.828     8572644.58144   6685250.11342  20430930.392    20430928.339
        57.000          50.000
  23897142.734     9487712.34643   7382874.94642  23897144.119    23897143.380
        46.000          39.000
  22897033.488    21425413.57943  16688465.09442  22897035.446    22897035.974
        49.000          42.000
  24285593.317     7911978.96543   6163042.68642  24285595.290    24285592.411
        46.000          38.000
  22925315.109   -11274033.19843  -8767138.94842  22925316.846    22925314.542
        49.000          42.000
  24264717.049    -6555844.89643  -4269962.55242  24264720.351    24264720.848
        46.000          38.000
  21711920.356    -6634664.30143  -5145115.14342  21711921.410    21711920.284
        55.000          48.000
  24621315.646     3560845.18943   2773779.76342  24621316.143    24621318.269
        43.000          37.000
 02  7  1 18 10 20.0000000  0 10G18G17G15G23G 6G29G 3G14G21G22
  20439825.601     9333974.23143   7277052.94442  20439827.165    20439823.295
        56.000          50.000
  20699084.490    10455785.03743   8151228.39842  20699085.425    20699082.824
        55.000          49.000
  20430677.926     8571320.44944   6684218.31842  20430678.483    20430676.361
        57.000          50.000
  23907282.684     9540998.15643   7424396.31642  23907284.093    23907282.548
        46.000          40.000
  22910074.296    21493942.04043  16741863.78442  22910076.357    22910075.205
        49.000          42.000
  24296658.177     7970133.57443   6208357.94342  24296662.541    24296658.942
        45.000          38.000
  22915609.337   -11325037.01243  -8806882.13942  22915611.483    22915609.033
        50.000          42.000
  24250321.699    -6631491.78843  -4328908.08742  24250323.589    24250326.665
        46.000          38.000
  21707435.873    -6658230.65643  -5163478.51942  21707436.865    21707434.930
        55.000          48.000
  24629163.368     3602068.18343   2805901.47542  24629161.496    24629162.619
        44.000          37.000
 02  7  1 18 10 40.0000000  0 10G18G17G15G23G 6G29G 3G14G21G22
  20441489.092     9342716.28343   7283864.93842  20441490.781    20441486.940
        56.000          50.000
  20700574.926    10463617.01343   8157331.23542  20700576.030    20700573.535
        56.000          49.000
  20430449.662     8570122.09144   6683284.53042  20430450.682    20430448.140
        57.000          50.000
  23917421.735     9594279.83143   7465914.46142  23917422.788    23917423.547
        46.000          40.000
  22923134.023    21562570.94743  16795340.73642  22923135.406    22923134.969
        49.000          42.000
  24307747.423     8028413.19543   6253770.58642  24307749.701    24307747.918
        44.000          38.000
  22905934.500   -11375873.52943  -8846494.95142  22905934.769    22905935.889
        49.000          42.000
  24235931.087    -6707112.60243  -4387833.30242  24235933.594    24235936.184
        46.000          38.000
  21702973.337    -6681681.60543  -5181751.96842  21702974.422    21702972.803
        55.000          48.000
  24637021.214     3643376.82443   2838089.94542  24637020.829    24637023.662
        45.000          37.000
 02  7  1 18 11  0.0000000  0 10G18G17G15G23G 6G29G 3G14G21G22
  20443180.181     9351602.70843   7290789.42842  20443181.621    20443177.983
        56.000          50.000
  20702086.872    10471563.24843   8163523.09942  20702088.028    20702086.039
        55.000          49.000
  20430244.552     8569043.89644   6682444.37542  20430245.475    20430243.472
        57.000          50.000
  23927558.539     9647551.17143   7507424.54642  23927560.585    23927559.347
        45.000          40.000
  22936211.677    21631293.85143  16848890.93842  22936214.011    22936214.822
        48.000          42.000
  24318862.222     8086811.39043   6299275.63942  24318863.673    24318863.695
        45.000          39.000
  22896291.982   -11426548.09143  -8885981.59842  22896292.264    22896292.400
        49.000          42.000
  24221545.030    -6782712.35343  -4446742.08842  24221546.049    24221549.999
        45.000          37.000
  21698531.465    -6705023.19743  -5199940.20342  21698532.417    21698530.866
        55.000          48.000
  24644896.963     3684764.24243   2870339.75742  24644897.456    24644901.333
        43.000          37.000
 02  7  1 18 11 20.0000000  0 10G18G17G15G23G 6G29G 3G14G21G22
  20444899.715     9360638.33743   7297830.17942  20444901.123    20444897.158
        56.000          50.000
  20703621.834    10479628.96643   8169808.06642  20703622.818    20703620.731
        55.000          49.000
  20430063.251     8568091.12144   6681701.94942  20430064.197    20430061.959
        57.000          50.000
  23937695.421     9700816.97743   7548930.31042  23937698.261    23937696.620
        46.000          40.000
  22949307.876    21700115.01643  16902517.68342  22949310.683    22949311.499
        48.000          42.000
  24329999.177     8145332.50143   6344876.43542  24330000.089    24329998.831
        46.000          39.000
  22886681.051   -11477054.83543  -8925337.43642  22886681.073    22886680.959
        49.000          42.000
  24207164.148    -6858285.14243  -4505629.86442  24207165.567    24207167.817
        45.000          37.000
  21694111.573    -6728250.46243  -5218039.35542  21694113.110    21694110.819
        55.000          48.000
  24652790.137     3726234.77543   2902654.36242  24652790.343    24652790.904
        44.000          37.000
 02  7  1 18 11 40.0000000  0 10G18G17G15G23G 6G29G 3G14G21G22
  20446646.464     9369818.07543   7304983.22842  20446648.105    20446644.245
        56.000          50.000
  20705178.464    10487809.81043   8176182.74742  20705179.674    20705177.473
        55.000          48.000
  20429904.999     8567259.42644   6681053.87342  20429905.791    20429903.789
        57.000          50.000
  23947830.220     9754072.32443   7590427.93942  23947831.963    23947830.714
        47.000          41.000
  22962421.944    21769029.09043  16956216.84542  22962422.796    22962425.333
        49.000          42.000
  24341157.569     8203970.98843   6390568.70042  24341159.757    24341157.224
        45.000          39.000
  22877100.081   -11527397.75943  -8964565.64242  22877101.687    22877101.798
        49.000          42.000
  24192787.102    -6933834.73943  -4564499.56142  24192789.910    24192792.550
        45.000          37.000
  21689712.260    -6751368.22243  -5236053.17542  21689713.626    21689711.511
        55.000          48.000
  24660696.654     3767782.95043   2935029.44942  24660696.158    24660699.642
        45.000          37.000
 02  7  1 18 12  0.0000000  0 10G18G17G15G23G 6G29G 3G14G21G22
  20448421.607     9379147.37943   7312252.82042  20448423.325    20448419.437
        56.000          50.000
  20706758.449    10496111.93443   8182651.92642  20706759.431    20706757.305
        55.000          48.000
  20429770.896     8566554.89944   6680504.88942  20429771.820    20429769.759
        57.000          50.000
  23957963.026     9807322.79843   7631921.76242  23957964.890    23957964.913
        47.000          41.000
  22975554.724    21838041.13143  17009992.35942  22975556.132    22975554.446
        49.000          42.000
  24352336.704     8262732.12843   6436356.58642  24352340.777    24352340.311
        44.000          38.000
  22867553.301   -11577570.40643  -9003661.18742  22867553.691    22867551.956
        50.000          42.000
  24178415.990    -7009354.59643  -4623346.08942  24178418.925    24178420.170
        45.000          37.000
  21685335.111    -6774370.84443  -5253977.27442  21685335.900    21685334.624
        55.000          48.000
  24668617.340     3809413.66443   2967468.87342  24668617.109    24668619.374
        44.000          37.000
 02  7  1 18 12 20.0000000  0 10G18G17G15G23G 6G29G 3G14G21G22
  20450224.087     9388618.77343   7319633.13642  20450225.578    20450221.870
        56.000          50.000
  20708359.918    10504528.32643   8189210.14742  20708361.167    20708358.523
        55.000          48.000
  20429659.852     8565970.71044   6680049.67042  20429660.484    20429658.560
        57.000          50.000
  23968093.888     9860560.93543   7673405.99742  23968095.730    23968095.979
        47.000          41.000
  22988704.807    21907143.30643  17063838.06942  22988706.692    22988705.176
        49.000          42.000
  24363541.041     8321607.88743   6482233.74042  24363542.183    24363544.485
        44.000          38.000
  22858037.015   -11627579.23543  -9042629.05042  22858038.439    22858037.017
        50.000          42.000
  24164048.898    -7084851.23543  -4682174.50842  24164050.379    24164053.111
        44.000          37.000
  21680978.234    -6797265.47743  -5271817.23242  21680979.554    21680977.988
        55.000          48.000
  24676555.696     3851119.00943   2999966.41142  24676554.656    24676556.383
        44.000          37.000
 02  7  1 18 12 40.0000000  0 10G18G17G15G23G 6G29G 3G14G21G22
  20452053.925     9398234.89443   7327126.22042  20452055.659    20452051.780
        56.000          50.000
  20709984.009    10513062.54943   8195860.18342  20709985.196    20709982.592
        55.000          48.000
  20429571.914     8565510.22844   6679690.84642  20429572.986    20429570.825
        57.000          50.000
  23978223.732     9913789.44743   7714882.72342  23978223.771    23978225.063
        48.000          41.000
  23001871.835    21976337.91743  17117755.81342  23001873.856    23001873.586
        49.000          42.000
  24374767.965     8380600.76943   6528202.15542  24374768.838    24374768.813
        44.000          38.000
  22848551.911   -11677420.35643  -9081466.24242  22848553.951    22848552.369
        50.000          42.000
  24149687.717    -7160320.68743  -4740981.73842  24149689.081    24149692.879
        43.000          37.000
  21676642.590    -6820049.36143  -5289570.88942  21676644.062    21676642.403
        55.000          48.000
  24684504.717     3892901.17943   3032523.82542  24684505.038    24684507.691
        43.000          37.000
 02  7  1 18 13  0.0000000  0 10G18G17G15G23G 6G29G 3G14G21G22
  20453912.238     9408001.17043   7334736.31042  20453914.100    20453910.284
        56.000          50.000
  20711631.821    10521720.87343   8202606.92342  20711632.702    20711630.347
        55.000          48.000
  20429509.116     8565179.79544   6679433.36442  20429509.827    20429508.228
        57.000          50.000
  23988351.404     9967014.10443   7756356.44542  23988354.009    23988352.069
        47.000          41.000
  23015058.059    22045630.25043  17171749.71642  23015058.179    23015059.088
        50.000          42.000
  24386017.238     8439715.87443   6574265.83542  24386019.183    24386018.479
        44.000          38.000
  22839101.176   -11727087.04043  -9120167.52342  22839102.745    22839101.822
        50.000          42.000
  24135332.171    -7235756.13743  -4799762.47742  24135333.923    24135337.765
        44.000          37.000
  21672329.069    -6842716.54043  -5307233.60442  21672330.135    21672329.232
        55.000          48.000
  24692472.954     3934765.28243   3065145.07742  24692472.678    24692474.610
        44.000          37.000
 02  7  1 18 13 20.0000000  0 10G18G17G15G23G 6G29G 3G14G21G22
  20455797.390     9417907.13743   7342455.24942  20455798.857    20455795.233
        56.000          50.000
  20713300.995    10530493.18643   8209442.48542  20713301.979    20713300.022
        55.000          48.000
  20429469.170     8564969.22344   6679269.28142  20429470.058    20429467.872
        57.000          50.000
  23998476.808    10020224.33043   7797818.92942  23998477.790    23998477.708
        47.000          40.000
  23028260.345    22115009.31343  17225811.18842  23028262.805    23028263.693
        49.000          42.000
  24397287.444     8498942.30843   6620416.24042  24397289.033    24397291.724
        43.000          38.000
  22829680.639   -11776588.94243  -9158740.38742  22829681.830    22829679.619
        50.000          42.000
  24120981.792    -7311167.00643  -4858524.03542  24120983.019    24120986.541
        44.000          37.000
  21668036.121    -6865277.43543  -5324813.50742  21668037.139    21668035.758
        55.000          48.000
  24700451.629     3976700.40743   3097821.69542  24700452.011    24700455.325
        44.000          37.000
 02  7  1 18 13 40.0000000  0 10G18G17G15G23G 6G29G 3G14G21G22
  20457709.932     9427958.03743   7350287.12242  20457711.527    20457707.746
        56.000          50.000
  20714993.094    10539385.56443   8216371.60542  20714994.098    20714992.137
        55.000          48.000
  20429453.146     8564884.63244   6679203.36442  20429454.188    20429451.373
        57.000          50.000
  24008600.837    10073425.51843   7839274.34042  24008601.863    24008600.875
        47.000          40.000
  23041480.362    22184480.05843  17279944.10842  23041481.836    23041481.462
        49.000          42.000
  24408580.731     8558285.06643   6666657.30942  24408581.122    24408581.741
        43.000          38.000
  22820293.056   -11825919.62943  -9197179.84442  22820294.605    22820294.296
        50.000          43.000
  24106637.478    -7386546.92143  -4917261.45942  24106639.042    24106642.167
        44.000          37.000
  21663764.109    -6887726.76643  -5342306.47242  21663765.221    21663763.357
        55.000          48.000
  24708447.140     4018711.23043   3130557.28742  24708446.630    24708447.669
        43.000          37.000
 02  7  1 18 14  0.0000000  0 10G18G17G15G23G 6G29G 3G14G21G22
  20459649.926     9438152.24543   7358230.66242  20459651.360    20459647.484
        56.000          50.000
  20716708.001    10548396.87443   8223393.39742  20716708.676    20716706.618
        55.000          48.000
  20429460.768     8564924.82644   6679234.67942  20429461.490    20429459.415
        57.000          50.000
  24018722.118    10126616.00743   7880721.42642  24018723.021    24018722.004
        46.000          40.000
  23054717.134    22254040.44543  17334146.87042  23054717.338    23054721.929
        48.000          42.000
  24419896.576     8617742.14443   6712987.42142  24419897.144    24419896.040
        44.000          38.000
  22810938.888   -11875079.74143  -9235486.39942  22810940.956    22810938.954
        50.000          43.000
  24092298.887    -7461896.35143  -4975975.12042  24092301.252    24092304.477
        44.000          37.000
  21659512.855    -6910066.12543  -5359713.74642  21659514.039    21659512.537
        55.000          48.000
  24716454.176     4060795.55843   3163350.13942  24716455.274    24716457.271
        44.000          37.000
 02  7  1 18 14 20.0000000  0 11G18G17G15G23G 6G29G26G 3G14G21G22
  20461617.482     9448492.20243   7366287.77742  20461619.158    20461615.320
        56.000          50.000
  20718446.105    10557530.31843   8230510.35742  20718446.827    20718444.638
        55.000          48.000
  20429492.683     8565093.02844   6679365.74242  20429493.737    20429491.311
        57.000          50.000
  24028841.892    10179798.30443   7922162.13442  24028842.533    24028842.970
        46.000          39.000
  23067971.590    22323692.60143  17388421.14742  23067973.939    23067973.964
        48.000          42.000
  24431231.728     8677315.39243   6759408.10942  24431234.356    24431233.155
        44.000          38.000
  23391183.524     -716133.27213   -563423.96512  23391185.079    23391183.764
        46.000          42.000
  22801617.530   -11924065.74143  -9273657.26342  22801618.826    22801616.829
        50.000          43.000
  24077966.870    -7537211.78743  -5034662.29742  24077968.918    24077971.597
        43.000          37.000
  21655283.524    -6932292.56443  -5377033.03742  21655284.556    21655282.919
        55.000          48.000
  24724479.771     4102955.50743   3196201.92542  24724478.446    24724480.372
        44.000          37.000
 02  7  1 18 14 40.0000000  0 11G18G17G15G23G 6G29G26G 3G14G21G22
  20463612.005     9458972.85043   7374454.51642  20463613.780    20463609.672
        56.000          50.000
  20720206.454    10566781.57943   8237719.12842  20720207.278    20720205.207
        55.000          48.000
  20429548.447     8565384.80044   6679593.09442  20429548.923    20429546.913
        57.000          50.000
  24038959.415    10232967.66243   7963592.77542  24038961.615    24038961.271
        45.000          39.000
  23081242.470    22393431.23743  17442762.79942  23081245.035    23081244.884
        49.000          41.000
  24442588.116     8736999.78243   6805915.36542  24442590.239    24442589.621
        43.000          38.000
  23402909.250
        46.000
  22792327.368   -11972881.53343  -9311695.50642  22792329.467    22792329.037
        50.000          43.000
  24063640.498    -7612497.06643  -5093325.93942  24063643.019    24063644.620
        44.000          37.000
  21651074.447    -6954410.99643  -5394268.16142  21651075.937    21651074.037
        55.000          48.000
  24732513.888     4145185.62343   3229108.39642  24732515.210    24732515.723
        44.000          37.000
 02  7  1 18 15  0.0000000  0 11G18G17G15G23G 6G29G26G 3G14G21G22
  20465633.605     9469596.91343   7382733.01142  20465635.238    20465631.126
        56.000          50.000
  20721989.972    10576154.01843   8245022.32142  20721990.995    20721988.852
        55.000          48.000
  20429627.966     8565803.62644   6679919.45342  20429628.818    20429626.686
        57.000          50.000
  24049076.693    10286126.87043   8005015.49142  24049078.432    24049077.432
        46.000          39.000
  23094530.191    22463258.61743  17497173.60842  23094533.130    23094534.916
        48.000          41.000
  24453968.608     8796797.48643   6852510.95242  24453970.368    24453969.415
        44.000          38.000
  23414668.073     -592721.31513                  23414667.464
        46.000
  22783071.034   -12021523.31643  -9349598.16142  22783072.377    22783071.273
        50.000          43.000
  24049320.094    -7687748.19143  -5151962.98442  24049321.579    24049325.333
        43.000          37.000
  21646886.551    -6976418.28843  -5411416.68242  21646887.941    21646886.314
        55.000          48.000
  24740563.494     4187488.13543   3262071.25242  24740562.994    24740565.020
        43.000          37.000
 02  7  1 18 15 20.0000000  0 11G18G17G15G23G 6G29G26G 3G14G21G22
  20467682.188     9480362.27243   7391121.60242  20467684.164    20467680.289
        56.000          50.000
  20723796.280    10585646.09343   8252418.74042  20723797.500    20723794.913
        55.000          48.000
  20429731.500     8566347.97244   6680343.61542  20429732.439    20429730.195
        57.000          50.000
  24059189.830    10339273.79543   8046428.63042  24059190.937    24059189.840
        45.000          39.000
  23107834.541    22533172.30943  17551651.67442  23107835.514    23107837.523
        47.000          41.000
  24465369.491     8856706.13643   6899192.94342  24465372.217    24465369.500
        45.000          38.000
  23426455.836     -530770.02643   -695364.18552  23426458.165    23426458.552
        45.000          40.000
  22773848.320   -12069992.20243  -9387366.09042  22773850.030    22773848.055
        50.000          43.000
  24035006.359    -7762966.23443  -5210574.23542  24035008.535    24035010.805
        44.000          37.000
  21642719.247    -6998316.93843  -5428480.55342  21642720.856    21642718.813
        55.000          48.000
  24748627.343     4229860.32043   3295088.40442  24748627.617    24748629.811
        44.000          37.000
 02  7  1 18 15 40.0000000  0 11G18G17G15G23G 6G29G26G 3G14G21G22
  20469758.265     9491271.15643   7399622.03042  20469759.628    20469756.123
        56.000          50.000
  20725625.921    10595260.73543   8259910.66442  20725626.887    20725624.342
        55.000          48.000
  20429859.475     8567020.65544   6680867.78342  20429860.413    20429858.299
        57.000          50.000
  24069300.921    10392410.83843   8087834.08442  24069301.108    24069301.869
        44.000          39.000
  23121155.616    22603174.09743  17606198.37342  23121157.027    23121157.360
        48.000          41.000
  24476790.421     8916727.39843   6945962.74042  24476793.804    24476792.944
        45.000          38.000
  23438276.904     -468654.37143   -646962.41942  23438279.799    23438278.515
        47.000          40.000
  22764657.247   -12118284.74643  -9424996.59242  22764658.716    22764660.491
        50.000          43.000
  24020700.026    -7838147.72243  -5269156.99942  24020700.505    24020702.744
        45.000          37.000
  21638573.547    -7020104.16543  -5445457.59642  21638574.721    21638573.412
        55.000          48.000
  24756704.463     4272304.09143   3328161.36242  24756703.636    24756705.257
        43.000          37.000
 02  7  1 18 16  0.0000000  0 11G18G17G15G23G 6G29G26G 3G14G21G22
  20471860.464     9502318.82843   7408230.60842  20471862.002    20471858.145
        56.000          50.000
  20727477.922    10604993.96343   8267494.98942  20727479.179    20727477.084
        55.000          48.000
  20430011.253     8567817.81944   6681488.95042  20430012.211    20430010.251
        57.000          50.000
  24079410.656    10445533.48143   8129228.30442  24079413.168    24079411.036
        46.000          39.000
  23134492.430    22673259.05843  17660809.88942  23134493.837    23134494.851
        48.000          41.000
  24488231.870     8976856.46343   6992816.52142  24488234.152    24488233.736
        45.000          38.000
  23450127.210     -406379.53943   -598436.62142  23450128.632    23450128.149
        47.000          40.000
  22755501.242   -12166404.54143  -9462492.50642  22755503.098    22755502.064
        50.000          43.000
  24006399.815    -7913296.09343  -5327713.94842  24006401.044    24006404.497
        44.000          38.000
  21634447.795    -7041784.37243  -5462351.24842  21634449.083    21634447.551
        55.000          48.000
  24764793.952     4314814.32543   3361286.08742  24764794.002    24764798.378
        44.000          37.000
 02  7  1 18 16 20.0000000  0 11G18G17G15G23G 6G29G26G 3G14G21G22
  20473989.842     9513509.34343   7416950.48842  20473991.428    20473987.578
        56.000          50.000
  20729353.619    10614850.67543   8275175.53742  20729354.751    20729352.315
        55.000          48.000
  20430187.591     8568744.18944   6682210.79742  20430188.357    20430186.052
        57.000          50.000
  24089518.021    10498645.92943   8170614.57542  24089519.911    24089516.607
        46.000          39.000
  23147845.984    22743430.87543  17715489.07742  23147847.304    23147848.820
        48.000          41.000
  24499696.692     9037097.23143   7039757.33642  24499698.602    24499696.931
        45.000          38.000
  23462009.398     -343941.83943   -549783.89142  23462011.294    23462008.306
        47.000          41.000
  22746377.676   -12214346.47343  -9499849.80542  22746378.641    22746379.483
        49.000          43.000
  23992106.815    -7988406.09943  -5386241.00442  23992108.387    23992112.010
        45.000          38.000
  21630343.347    -7063353.00643  -5479157.96442  21630344.429    21630343.036
        55.000          48.000
  24772895.462     4357394.63343   3394465.41842  24772895.648    24772898.309
        42.000          37.000
 02  7  1 18 16 40.0000000  0 11G18G17G15G23G 6G29G26G 3G14G21G22
  20476145.842     9524839.04543   7425778.82742  20476147.551    20476143.486
        56.000          50.000
  20731252.301    10624827.47743   8282949.66242  20731253.238    20731251.060
        55.000          48.000
  20430387.675     8569796.62044   6683030.87042  20430388.398    20430386.556
        57.000          50.000
  24099622.315    10551744.50543   8211990.05342  24099622.894    24099623.037
        46.000          39.000
  23161214.727    22813685.42143  17770232.74042  23161217.025    23161217.113
        48.000          41.000
  24511180.877     9097445.33343   7086781.82342  24511184.412    24511181.492
        46.000          38.000
  23473921.803     -281345.50843   -501007.58642  23473923.487    23473920.846
        48.000          41.000
  22737289.394   -12262113.27243  -9537070.66042  22737290.610    22737289.394
        50.000          43.000
  23977819.956    -8063480.31943  -5444740.17542  23977822.196    23977823.190
        44.000          38.000
  21626259.531    -7084813.59243  -5495880.48742  21626260.381    21626259.219
        55.000          48.000
  24781011.190     4400040.86643   3427696.10042  24781011.824    24781015.300
        43.000          37.000
 02  7  1 18 17  0.0000000  0 11G18G17G15G23G 6G29G26G 3G14G21G22
  20478329.022     9536311.40243   7434718.32442  20478330.616    20478326.677
        56.000          50.000
  20733174.390    10634928.58843   8290820.64842  20733175.301    20733173.152
        55.000          48.000
  20430612.720     8570979.27244   6683952.41442  20430613.997    20430611.668
        57.000          50.000
  24109725.410    10604832.70843   8253357.44642  24109726.001    24109726.990
        47.000          40.000
  23174600.494    22884025.79943  17825043.27342  23174602.584    23174604.167
        47.000          41.000
  24522684.174     9157903.82543   7133892.27342  24522687.319    24522682.728
        45.000          37.000
  23485863.318     -218587.75543   -452105.48542  23485865.872    23485864.180
        48.000          41.000
  22728233.303   -12309700.56443  -9574151.62242  22728234.662    22728233.826
        50.000          43.000
  23963541.752    -8138514.27543  -5503207.97242  23963545.260    23963545.383
        45.000          38.000
  21622196.868    -7106162.73043  -5512516.16642  21622198.164    21622196.553
        55.000          48.000
  24789139.857     4442755.93343   3460980.43242  24789139.078    24789144.935
        42.000          37.000
 02  7  1 18 17 20.0000000  0 11G18G17G15G23G 6G29G26G 3G14G21G22
  20480538.163     9547920.58043   7443764.44042  20480539.684    20480536.054
        56.000          50.000
  20735119.256    10645149.05543   8298784.64742  20735120.229    20735118.054
        55.000          48.000
  20430861.724     8572287.05744   6684971.46642  20430862.706    20430860.389
        57.000          50.000
  24119824.993    10657905.07743   8294712.49642  24119825.743    24119825.232
        47.000          40.000
  23188001.205    22954446.09443  17879916.07442  23188003.023    23188003.612
        48.000          41.000
  24534208.362     9218466.74443   7181084.18242  24534210.049    24534211.275
        44.000          38.000
  23497836.796     -155674.65343   -403082.31142  23497838.663    23497835.293
        48.000          41.000
  22719210.259   -12357112.79643  -9611096.17142  22719212.104    22719211.942
        50.000          43.000
  23949269.723    -8213512.51743  -5561647.93442  23949271.902    23949273.845
        45.000          38.000
  21618154.516    -7127405.83043  -5529069.21942  21618155.709    21618154.706
        55.000          48.000
  24797280.173     4485533.70043   3494313.63142  24797279.782    24797282.481
        43.000          37.000
 02  7  1 18 17 40.0000000  0 11G18G17G15G23G 6G29G26G 3G14G21G22
  20482773.972     9559669.63343   7452919.54942  20482775.470    20482771.557
        56.000          50.000
  20737087.837    10655492.66643   8306844.59242  20737088.878    20737086.759
        55.000          48.000
  20431135.023     8573723.65044   6686090.88642  20431136.046    20431133.668
        57.000          50.000
  24129920.922    10710964.82343   8336057.70442  24129922.279    24129921.295
        47.000          40.000
  23201417.188    23024948.88143  17934853.16642  23201417.897    23201420.373
        48.000          41.000
  24545755.672     9279136.94543   7228359.57542  24545756.664    24545754.651
        46.000          38.000
  23509838.090      -92603.62243   -353936.10742  23509839.958    23509839.216
        48.000          41.000
  22710221.936   -12404345.73743  -9647901.01242  22710224.372    22710223.480
        50.000          43.000
  23935005.914    -8288470.60143  -5620056.60342  23935007.335    23935008.632
        46.000          39.000
  21614132.759    -7148539.85243  -5545537.27442  21614133.789    21614132.313
        55.000          48.000
  24805433.682     4528376.75343   3527697.69342  24805432.212    24805435.934
        42.000          37.000
 02  7  1 18 18  0.0000000  0 11G18G17G15G23G 6G29G26G 3G14G21G22
  20485035.889     9571555.69043   7462181.41442  20485037.406    20485033.444
        56.000          50.000
  20739078.879    10665957.09443   8314998.68642  20739079.704    20739077.746
        55.000          48.000
  20431432.514     8575286.78144   6687308.90842  20431433.394    20431431.053
        57.000          50.000
  24140016.775    10764009.07943   8377390.85642  24140017.272    24140017.029
        48.000          41.000
  23214848.706    23095530.91443  17989851.99242  23214850.932    23214850.834
        48.000          41.000
  24557320.053     9339911.06643   7275716.01742  24557323.152    24557320.353
        45.000          38.000
  23521869.729      -29378.08243   -304669.46442  23521871.283    23521868.970
        48.000          41.000
  22701267.596   -12451401.30043  -9684567.64642  22701269.413    22701269.064
        51.000          43.000
  23920749.146    -8363390.34643  -5678435.40042  23920750.672    23920752.738
        46.000          39.000
  21610131.503    -7169567.15443  -5561922.17242  21610132.375    21610130.630
        55.000          48.000
  24813597.113     4571281.75543   3561130.01042  24813599.836    24813601.075
        43.000          37.000
 02  7  1 18 18 20.0000000  0 11G18G17G15G23G 6G29G26G 3G14G21G22
  20487324.821     9583584.65143   7471554.62742  20487326.489    20487322.673
        56.000          50.000
  20741094.598    10676549.03643   8323252.13942  20741095.648    20741093.532
        55.000          48.000
  20431755.449     8576983.27844   6688630.84642  20431756.182    20431754.047
        57.000          50.000
  24150108.382    10817043.96043   8418716.68742  24150109.466    24150109.550
        48.000          41.000
  23228296.780    23166197.93143  18044917.05042  23228298.842    23228299.292
        47.000          41.000
  24568904.190     9400794.97943   7323158.00342  24568906.371    24568905.603
        43.000          37.000
  23533932.305       34007.52743   -255278.13442  23533934.043    23533931.433
        48.000          41.000
  22692348.533   -12498272.53443  -9721090.64442  22692349.826    22692348.536
        51.000          43.000
  23906500.770    -8438264.52043  -5736778.69642  23906503.046    23906504.376
        46.000          39.000
  21606151.553    -7190481.53343  -5578219.07942  21606153.102    21606151.341
        55.000          48.000
  24821776.236     4614254.33543   3594614.99042  24821777.441    24821780.368
        44.000          37.000
 02  7  1 18 18 40.0000000  0 11G18G17G15G23G 6G29G26G 3G14G21G22
  20489639.356     9595747.88643   7481032.47142  20489641.034    20489637.164
        56.000          50.000
  20743132.764    10687260.49343   8331598.71942  20743133.720    20743131.768
        55.000          48.000
  20432102.226     8578805.12044   6690050.45942  20432103.133    20432100.791
        57.000          50.000
  24160196.842    10870060.93943   8460028.59942  24160197.422    24160197.894
        47.000          40.000
  23241758.578    23236940.87543  18100041.26642  23241759.739    23241762.696
        47.000          41.000
  24580510.414     9461779.35543   7370678.23942  24580512.532    24580510.326
        44.000          38.000
  23546021.284       97543.92443   -205769.28242  23546023.120    23546023.366
        47.000          41.000
  22683463.215   -12544966.94043  -9757475.86142  22683464.268    22683463.804
        51.000          43.000
  23892259.825    -8513100.71043  -5795092.39042  23892261.934    23892262.837
        47.000          39.000
  21602191.433    -7211291.76543  -5594434.83242  21602192.973    21602190.845
        55.000          48.000
  24829964.107     4657285.28943   3628145.44942  24829965.309    24829967.233
        43.000          37.000
 02  7  1 18 19  0.0000000  0 11G18G17G15G23G 6G29G26G 3G14G21G22
  20491980.729     9608051.14443   7490619.42542  20491982.421    20491978.371
        56.000          50.000
  20745195.223    10698097.82643   8340043.38542  20745196.040    20745194.035
        55.000          48.000
  20432473.847     8580758.53544   6691572.59842  20432474.742    20432472.342
        57.000          50.000
  24170283.707    10923065.79943   8501331.00942  24170285.117    24170283.761
        47.000          41.000
  23255235.600    23307765.02843  18155228.77342  23255238.589    23255239.825
        47.000          41.000
  24592136.264     9522869.63743   7418281.02842  24592138.024    24592136.105
        45.000          37.000
  23558141.353      161236.40943   -156138.80242  23558143.165    23558143.140
        46.000          40.000
  22674612.426   -12591477.79443  -9793718.03742  22674613.173    22674614.380
        50.000          43.000
  23878027.657    -8587892.07543  -5853371.16242  23878029.490    23878029.654
        47.000          39.000
  21598252.284    -7231992.11943  -5610564.96242  21598253.848    21598251.423
        55.000          48.000
  24838165.411     4700379.81643   3661725.45542  24838165.682    24838168.051
        43.000          37.000
 02  7  1 18 19 20.0000000  0 11G18G17G15G23G 6G29G26G 3G14G21G22
  20494347.466     9620488.40143   7500310.79542  20494349.009    20494345.079
        56.000          50.000
  20747280.306    10709055.71043   8348581.98942  20747281.465    20747279.011
        55.000          48.000
  20432869.545     8582838.17544   6693193.09442  20432870.404    20432868.389
        57.000          50.000
  24180365.178    10976052.75843   8542619.49542  24180368.242    24180368.077
        46.000          40.000
  23268727.605    23378664.08743  18210474.62342  23268727.771    23268731.471
        47.000          40.000
  24603778.121     9584059.55143   7465961.41542  24603781.031    24603780.361
        43.000          38.000
  23570290.259      225078.49543   -106391.75342  23570291.838    23570291.378
        46.000          40.000
  22665795.268   -12637809.99243  -9829821.01642  22665797.984    22665794.881
        50.000          43.000
  23863802.436    -8662643.40243  -5911618.74742  23863804.775    23863805.248
        47.000          40.000
  21594333.221    -7252588.10043  -5626613.76742  21594334.212    21594332.710
        55.000          48.000
  24846376.290     4743531.57843   3695350.06742  24846375.842    24846380.440
        43.000          37.000
 02  7  1 18 19 40.0000000  0 11G18G17G15G23G 6G29G26G 3G14G21G22
  20496740.636     9633065.11643   7510110.83042  20496742.383    20496738.747
        56.000          50.000
  20749389.884    10720140.15343   8357219.20242  20749390.828    20749388.660
        55.000          48.000
  20433290.535     8585050.26044   6694916.79242  20433291.429    20433289.016
        57.000          50.000
  24190446.359    11029027.40543   8583898.41542  24190447.964    24190449.150
        46.000          40.000
  23282234.865    23449643.17543  18265782.85142  23282236.562    23282238.476
        47.000          40.000
  24615444.439     9645354.13943   7513723.42842  24615445.646    24615445.787
        45.000          38.000
  23582467.145      289075.07343    -56524.34042  23582469.429    23582469.895
        46.000          40.000
  22657014.737   -12683957.03243  -9865779.71042  22657015.259    22657014.318
        50.000          43.000
  23849586.767    -8737348.10443  -5969829.99542  23849589.229    23849591.249
        46.000          40.000
  21590434.885    -7273073.87243  -5642576.69242  21590436.002    21590434.324
        55.000          48.000
  24854601.064     4786745.43643   3729023.04642  24854600.933    24854603.305
        44.000          37.000
 02  7  1 18 20  0.0000000  0 11G18G17G15G23G 6G29G26G 3G14G21G22
  20499159.698     9645777.54443   7520016.61842  20499161.240    20499157.742
        56.000          50.000
  20751522.554    10731348.21943   8365952.74942  20751523.663    20751521.424
        55.000          48.000
  20433736.056     8587391.68544   6696741.27942  20433737.024    20433734.468
        57.000          50.000
  24200523.581    11081985.98343   8625164.79642  24200525.584    24200525.049
        46.000          39.000
  23295756.575    23520698.15543  18321150.19242  23295756.606    23295760.597
        47.000          40.000
  24627127.316     9706749.43043   7561563.81542  24627130.561    24627128.951
        44.000          38.000
  23594675.016      353221.93443     -6539.81142  23594676.357    23594675.709
        46.000          39.000
  22648267.753   -12729921.76343  -9901596.36342  22648268.484    22648267.535
        50.000          43.000
  23835378.860    -8812008.66543  -6028006.86642  23835380.817    23835381.092
        47.000          40.000
  21586556.696    -7293453.20443  -5658456.67442  21586558.032    21586556.367
        55.000          48.000
  24862835.986     4830017.27443   3762741.20942  24862835.247    24862839.134
        44.000          36.000
 02  7  1 18 20 20.0000000  0 10G18G17G15G23G 6G29G26G 3G14G21
  20501606.498     9658635.73843   7530035.98642  20501608.070    20501604.547
        56.000          50.000
  20753681.102    10742690.61043   8374790.96542  20753682.151    20753679.632
        55.000          48.000
  20434208.308     8589873.11244   6698674.85742  20434209.424    20434206.980
        57.000          50.000
  24210599.733    11134938.68743   8666426.58042  24210601.797    24210601.379
        45.000          39.000
  23309294.149    23591838.72743  18376584.24742  23309295.460    23309297.700
        46.000          40.000
  24638829.973     9768255.01743   7609490.26042  24638831.252    24638832.431
        43.000          38.000
  23606913.150      417528.59143     43569.20742  23606915.216    23606911.833
        46.000          40.000
  22639556.954   -12775692.93543  -9937262.17842  22639559.312    22639557.007
        50.000          43.000
  23821182.061    -8886613.79843  -6086140.53742  23821183.241    23821185.431
        47.000          40.000
  21582700.862    -7313716.25743  -5674246.05442  21582701.639    21582700.222
        55.000          48.000
 02  7  1 18 20 40.0000000  0 10G18G17G15G23G 6G29G26G 3G14G21
  20504077.538     9671620.63743   7540154.08642  20504078.976    20504075.411
        56.000          50.000
  20755861.367    10754148.88443   8383719.48042  20755862.626    20755860.213
        55.000          48.000
  20434703.611     8592476.27744   6700703.29442  20434704.262    20434702.089
        57.000          50.000
  24220672.319    11187866.67243   8707669.12542  24220671.959    24220672.982
        45.000          39.000
  23322844.039    23663045.55443  18432069.91342  23322845.541    23322847.930
        47.000          40.000
  24650552.931     9829851.54643   7657487.46342  24650553.271    24650554.071
        43.000          38.000
  23619176.180      481975.58943     93787.63842  23619178.069    23619177.677
        46.000          39.000
  22630879.953   -12821288.64843  -9972791.27142  22630883.194    22630880.686
        50.000          43.000
  23806991.621    -8961181.49043  -6144245.05042  23806993.523    23806995.777
        47.000          40.000
  21578863.455    -7333881.33043  -5689959.08442  21578864.511    21578863.225
        55.000          48.000
 02  7  1 18 21  0.0000000  0 10G18G17G15G23G 6G29G26G 3G14G21
  20506574.248     9684741.18543   7550377.88842  20506575.818    20506572.075
        56.000          50.000
  20758065.707    10765732.71843   8392745.83342  20758066.398    20758064.144
        55.000          48.000
  20435223.938     8595210.62844   6702833.95642  20435225.061    20435222.614
        57.000          50.000
  24230741.140    11240779.12743   8748899.56242  24230741.829    24230741.838
        45.000          39.000
  23336408.793    23734327.26543  18487613.93142  23336410.265    23336411.560
        47.000          40.000
  24662293.228     9891547.67743   7705562.35242  24662296.042    24662295.631
        44.000          38.000
  23631469.309      546571.37043    144121.97242  23631470.890    23631469.869
        46.000          40.000
  22622238.859   -12866698.75043 -10008175.75142  22622240.380    22622239.285
        50.000          43.000
  23792811.023    -9035701.45943  -6202312.38142  23792812.072    23792814.484
        47.000          40.000
  21575046.494    -7353939.39943  -5705588.73342  21575047.450    21575045.687
        55.000          48.000
 02  7  1 18 21 20.0000000  0 10G18G17G15G23G 6G29G26G 3G14G21
  20509096.270     9697995.15143   7560705.65342  20509097.837    20509093.897
        56.000          50.000
  20760293.701    10777440.61343   8401868.85842  20760294.444    20760292.723
        55.000          48.000
  20435769.022     8598074.58744   6705065.61142  20435770.069    20435767.925
        57.000          50.000
  24240805.437    11293673.94043   8790116.27442  24240806.856    24240807.935
        44.000          38.000
  23349987.264    23805681.21143  18543214.24542  23349987.976    23349991.264
        47.000          40.000
  24674051.009     9953340.84843   7753712.79742  24674054.032    24674052.161
        43.000          38.000
  23643788.889      611313.21643    194570.15642  23643789.717    23643788.107
        46.000          39.000
  22613632.238   -12911924.40343 -10043416.48842  22613633.528    22613633.007
        50.000          43.000
  23778639.044    -9110174.75943  -6260343.34742  23778640.476    23778642.705
        47.000          40.000
  21571249.471    -7373892.30343  -5721136.43742  21571250.861    21571248.947
        55.000          48.000
 02  7  1 18 21 40.0000000  0 10G18G17G15G23G 6G29G26G 3G14G21
  20511644.532     9711383.62543   7571138.23042  20511645.932    20511641.772
        56.000          50.000
  20762545.629    10789274.20343   8411089.82742  20762546.506    20762544.396
        55.000          48.000
  20436339.159     8601069.88144   6707399.60442  20436339.848    20436337.609
        57.000          50.000
  24250869.092    11346552.15943   8831320.01842  24250868.436    24250871.030
        44.000          39.000
  23363579.614    23877107.95643  18598871.27842  23363580.640    23363582.316
        47.000          40.000
  24685830.375    10015231.64643   7801939.36142  24685831.242    24685831.914
        44.000          38.000
  23656135.934      676201.56543    245132.46342  23656137.360    23656136.534
        45.000          39.000
  22605062.601   -12956963.56543 -10078511.91742  22605063.949    22605062.610
        50.000          43.000
  23764476.368    -9184599.36343  -6318336.37442  23764477.277    23764479.841
        47.000          40.000
  21567472.985    -7393738.74543  -5736601.18042  21567474.327    21567472.363
        55.000          48.000
 02  7  1 18 22  0.0000000  0 10G18G17G15G23G 6G29G26G 3G14G21
  20514217.839     9724908.13443   7581676.80742  20514219.433    20514215.263
        56.000          50.000
  20764821.692    10801235.65943   8420410.43142  20764822.510    20764820.517
        55.000          48.000
  20436934.354     8604198.94644   6709837.83842  20436935.196    20436933.075
        57.000          50.000
  24260928.715    11399415.66843   8872512.31842  24260928.718    24260930.432
        44.000          38.000
  23377185.799    23948608.95443  18654586.16342  23377187.369    23377189.463
        47.000          40.000
  24697625.392    10077221.58443   7850243.12342  24697627.902    24697625.887
        43.000          38.000
  23668512.418      741237.66143    295809.90942  23668513.658    23668512.747
        46.000          39.000
  22596528.201   -13001813.51943 -10113459.90042  22596529.067    22596527.030
        51.000          43.000
  23750323.408    -9258972.46943  -6376289.27942  23750325.617    23750325.634
        46.000          40.000
  21563716.599    -7413477.13243  -5751981.72742  21563717.956    21563716.035
        55.000          48.000
 02  7  1 18 22 20.0000000  0 10G18G17G15G23G 6G29G26G 3G14G21
  20516816.225     9738563.10643   7592317.03942  20516817.870    20516813.808
        56.000          50.000
  20767121.450    10813320.21543   8429826.95842  20767122.423    20767120.158
        55.000          48.000
  20437554.386     8607456.84244   6712376.45342  20437555.183    20437552.820
        57.000          50.000
  24270986.466    11452259.06843   8913688.96642  24270986.110    24270986.127
        45.000          39.000
  23390805.371    24020178.24743  18710354.26342  23390807.035    23390809.366
        47.000          41.000
  24709439.637    10139304.43243   7898619.36142  24709441.418    24709441.974
        44.000          38.000
  23680914.680      806415.37643    346597.67842  23680916.897    23680916.911
        46.000          40.000
  22588028.678   -13046478.94343 -10148264.10442  22588030.500    22588027.833
        51.000          43.000
  23736179.787    -9333298.40543  -6434205.44042  23736182.278    23736183.763
        46.000          40.000
  21559980.245    -7433112.80443  -5767282.23442  21559981.200    21559979.109
        55.000          48.000
 02  7  1 18 22 40.0000000  0 10G18G17G15G23G 6G29G26G 3G14G21
  20519440.503     9752353.63643   7603062.90542  20519442.115    20519438.462
        56.000          50.000
  20769445.452    10825533.43843   8439343.74642  20769446.373    20769444.350
        55.000          48.000
  20438199.977     8610849.14744   6715019.80942  20438200.831    20438198.603
        57.000          50.000
  24281039.799    11505087.54643   8954853.92542  24281041.449    24281036.763
        47.000          39.000
  23404438.451    24091820.53943  18766179.25142  23404440.376    23404443.027
        47.000          40.000
  24721272.859    10201485.23143   7947071.85742  24721275.292    24721274.086
        45.000          38.000
  23693345.778      871739.25043    397499.37442  23693348.061    23693346.300
        46.000          40.000
  22579565.078   -13090953.65743 -10182919.69542  22579567.642    22579564.068
        51.000          44.000
  23722046.024    -9407570.76143  -6492079.84542  23722049.885    23722048.551
        46.000          40.000
  21556264.315    -7452640.62343  -5782498.70142  21556265.573    21556263.852
        55.000          48.000
 02  7  1 18 23  0.0000000  0 10G18G17G15G23G 6G29G26G 3G14G21
  20522089.661     9766275.54843   7613911.14642  20522091.391    20522087.502
        56.000          50.000
  20771793.435    10837872.19543   8448958.35542  20771794.864    20771792.525
        55.000          48.000
  20438870.508     8614372.55644   6717765.32542  20438871.351    20438868.922
        57.000          50.000
  24291087.717    11557897.13743   8996004.24642  24291090.193    24291089.087
        46.000          39.000
  23418084.650    24163531.42243  18822057.68342  23418084.449    23418088.746
        47.000          41.000
  24733121.100    10263759.33343   7995597.12242  24733124.473    24733124.163
        42.000          37.000
  23705803.180      937204.79443    448511.44442  23705805.505    23705804.193
        47.000          40.000
  22571136.963   -13135240.56543 -10217428.94842  22571138.393    22571136.619
        50.000          43.000
  23707922.237    -9481792.51143  -6549914.82542  23707923.906    23707925.150
        46.000          39.000
  21552567.952    -7472064.62243  -5797634.27042  21552569.061    21552567.490
        55.000          48.000
 02  7  1 18 23 20.0000000  0 10G18G17G15G23G 6G29G26G 3G14G21
  20524764.263     9780330.65443   7624863.17642  20524765.802    20524761.844
        56.000          50.000
  20774165.746    10850338.74643   8458672.54242  20774166.455    20774164.558
        55.000          48.000
  20439566.272     8618029.62244   6720614.98742  20439567.359    20439564.899
        57.000          50.000
  24301134.282    11610689.90543   9037141.43942  24301135.870    24301135.120
        47.000          39.000
  23431744.393    24235312.50243  18877990.80742  23431746.868    23431747.952
        47.000          41.000
  24744991.986    10326128.38143   8044196.32042  24744993.201    24744992.268
        44.000          38.000
  23718288.213     1002813.30343    499634.90742  23718290.108    23718289.770
        46.000          40.000
  22562746.630   -13179336.86443 -10251789.67142  22562747.642    22562745.888
        51.000          43.000
  23693808.282    -9555960.60943  -6607708.00542  23693811.363    23693812.526
        46.000          39.000
  21548891.852    -7491382.40343  -5812687.07242  21548892.862    21548891.345
        55.000          48.000
 02  7  1 18 23 40.0000000  0 10G18G17G15G23G 6G29G26G 3G14G21
  20527464.047     9794517.92943   7635918.19042  20527465.503    20527461.815
        56.000          50.000
  20776562.280    10862932.82643   8468486.09942  20776563.786    20776561.139
        55.000          48.000
  20440287.386     8621819.90144   6723568.45142  20440288.274    20440286.193
        57.000          50.000
  24311175.373    11663464.99243   9078264.85142  24311178.201    24311177.501
        46.000          39.000
  23445416.956    24307162.12443  18933977.33642  23445419.604    23445421.335
        48.000          41.000
  24756876.804    10388590.97343   8092868.43842  24756879.405    24756880.216
        43.000          37.000
  23730800.626     1068563.19743    550868.55142  23730802.793    23730802.641
        47.000          41.000
  22554390.657   -13223242.70943 -10286001.98242  22554392.475    22554391.537
        51.000          43.000
  23679704.438    -9630075.14543  -6665459.46542  23679707.158    23679706.816
        46.000          39.000
  21545235.782    -7510595.02843  -5827657.93942  21545236.918    21545235.179
        55.000          48.000
 02  7  1 18 24  0.0000000  0 10G18G17G15G23G 6G29G26G 3G14G21
  20530188.692     9808836.12043   7647075.22142  20530190.294    20530186.620
        56.000          50.000
  20778983.193    10875653.71843   8478398.47242  20778984.076    20778981.799
        55.000          48.000
  20441034.093     8625742.65544   6726625.14442  20441034.938    20441032.598
        57.000          50.000
  24321215.662    11716221.13243   9119373.48942  24321217.860    24321217.477
        46.000          39.000
  23459102.545    24379078.63543  18990015.98342  23459103.993    23459106.039
        47.000          41.000
  24768780.345    10451145.31043   8141612.04642  24768782.495    24768782.292
        42.000          37.000
  23743338.914     1134452.69943    602210.98742  23743341.905    23743339.779
        46.000          41.000
  22546072.775   -13266958.33443 -10320066.07742  22546074.145    22546072.018
        51.000          44.000
  23665611.567    -9704136.17743  -6723169.21642  23665613.619    23665613.857
        47.000          39.000
  21541599.477    -7529703.81543  -5842547.88842  21541600.955    21541598.711
        55.000          48.000
 02  7  1 18 24 20.0000000  0 10G18G17G15G23G 6G29G26G 3G14G21
  20532938.917     9823288.10943   7658336.51042  20532940.608    20532936.765
        56.000          50.000
  20781428.692    10888504.93243   8488412.39542  20781429.615    20781427.236
        55.000          48.000
  20441806.575     8629801.40244   6729787.80442  20441807.292    20441805.045
        57.000          50.000
  24331251.596    11768961.38343   9160469.76942  24331253.804    24331252.095
        46.000          39.000
  23472800.776    24451064.47043  19046108.64542  23472802.782    23472805.099
        47.000          41.000
  24780702.390    10513793.98743   8190429.12442  24780705.044    24780704.045
        43.000          37.000
  23755904.948     1200484.09343    653663.97042  23755906.097    23755905.150
        47.000          40.000
  22537790.327   -13310479.94643 -10353978.98542  22537791.621    22537791.016
        51.000          44.000
  23651529.070    -9778139.65043  -6780834.12542  23651530.129    23651531.664
        46.000          39.000
  21537983.550    -7548705.41843  -5857354.31842  21537985.074    21537983.251
        55.000          48.000
 02  7  1 18 24 40.0000000  0 10G18G17G15G23G 6G29G26G 3G14G21
  20535713.186     9837867.50643   7669697.07642  20535714.943    20535711.114
        56.000          50.000
  20783897.806    10901480.83843   8498523.48242  20783898.915    20783896.686
        55.000          48.000
  20442603.577     8633990.54144   6733052.06742  20442604.498    20442602.291
        57.000          50.000
  24341283.334    11821679.53043   9201548.79442  24341284.759    24341284.267
        45.000          39.000
  23486511.647    24523113.15843  19102250.28742  23486513.333    23486516.853
        48.000          41.000
  24792639.548    10576530.19243   8239314.44542  24792641.912    24792644.500
        42.000          36.000
  23768496.229     1266650.60343    705222.25042  23768497.754    23768497.506
        47.000          41.000
  22529543.982   -13353812.67043 -10387744.71642  22529546.100    22529545.718
        51.000          43.000
  23637456.356    -9852090.61343  -6838458.11342  23637458.266    23637456.867
        47.000          40.000
  21534387.178    -7567605.87943  -5872081.93442  21534388.187    21534386.804
        55.000          48.000
 02  7  1 18 25  0.0000000  0 10G18G17G15G23G 6G29G26G 3G14G21
  20538512.644     9852578.40343   7681160.11342  20538514.043    20538510.449
        56.000          50.000
  20786391.645    10914586.36543   8508735.57142  20786393.021    20786390.563
        55.000          48.000
  20443426.480     8638315.01544   6736421.78542  20443427.374    20443425.345
        57.000          50.000
  24351312.816    11874380.06343   9242614.10542  24351314.367    24351314.730
        46.000          39.000
  23500235.004    24595228.58543  19158443.93342  23500238.176    23500238.558
        47.000          41.000
  24804597.453    10639358.11243   8288271.21142  24804598.785    24804596.658
        42.000          36.000
  23781113.902     1332956.01643    756888.76742  23781115.361    23781114.903
        47.000          41.000
  22521334.929   -13396951.30743 -10421359.20042  22521337.259    22521334.810
        51.000          44.000
  23623395.037    -9925983.62943  -6896036.96542  23623396.002    23623398.345
        47.000          39.000
  21530810.394    -7586400.80043  -5886727.31342  21530811.862    21530809.636
        56.000          48.000
 02  7  1 18 25 20.0000000  0 10G18G17G15G23G 6G29G26G 3G14G21
  20541336.626     9867418.09443   7692723.50742  20541338.046    20541334.223
        56.000          50.000
  20788909.854    10927819.37743   8519046.99842  20788910.946    20788908.541
        55.000          48.000
  20444274.847     8642772.66144   6739895.27842  20444275.741    20444273.647
        57.000          50.000
  24361336.731    11927060.28243   9283663.59042  24361337.905    24361338.818
        45.000          39.000
  23513969.982    24667407.53043  19214687.06542  23513972.369    23513975.489
        48.000          41.000
  24816569.167    10702274.64043   8337297.04642  24816570.411    24816570.911
        43.000          36.000
  23793757.147     1399397.05043    808660.97542  23793758.238    23793756.923
        46.000          40.000
  22513163.156   -13439897.61843 -10454823.83742  22513164.811    22513162.721
        51.000          44.000
  23609344.275    -9999820.39043  -6953571.97842  23609345.725    23609347.223
        47.000          39.000
  21527253.387    -7605093.10843  -5901292.73542  21527254.626    21527252.740
        55.000          48.000
 02  7  1 18 25 40.0000000  0 10G18G17G15G23G 6G29G26G 3G14G21
  20544185.712     9882390.24443   7704390.11642  20544187.341    20544183.301
        56.000          50.000
  20791453.251    10941184.17443   8529461.11542  20791454.071    20791451.906
        55.000          48.000
  20445149.141     8647367.76844   6743475.88042  20445150.217    20445147.841
        57.000          50.000
  24371358.576    11979724.04843   9324700.22542  24371359.979    24371359.126
        45.000          39.000
  23527718.178    24739653.27243  19270982.24742  23527719.385    23527721.234
        47.000          41.000
  24828559.026    10765282.77243   8386394.25042  24828560.549    24828561.427
        42.000          36.000
  23806428.207     1465976.88043    860541.28442  23806428.874    23806425.813
        47.000          40.000
  22505028.168   -13482646.96043 -10488134.97242  22505028.902    22505027.447
        51.000          44.000
  23595305.065   -10073595.95043  -7011059.31442  23595305.062    23595308.098
        47.000          39.000
  21523716.645    -7623678.68043  -5915774.98442  21523718.390    21523715.805
        55.000          48.000
 02  7  1 18 26  0.0000000  0 10G18G17G15G23G 6G29G26G 3G14G21
  20547058.841     9897489.10043   7716155.45842  20547060.271    20547056.736
        56.000          50.000
  20794020.309    10954675.56543   8539973.87842  20794021.545    20794019.385
        55.000          48.000
  20446048.729     8652095.23844   6747159.62242  20446049.568    20446047.502
        57.000          50.000
  24381375.752    12032365.74643   9365719.68942  24381376.468    24381377.556
        45.000          39.000
  23541477.908    24811959.74143  19327324.75142  23541479.140    23541481.861
        48.000          41.000
  24840566.672    10828376.64343   8435558.23342  24840567.833    24840567.205
        43.000          36.000
  23819121.556     1532689.10543    912524.77842  23819122.880    23819122.671
        45.000          39.000
  22496929.554   -13525204.09543 -10521296.34542  22496931.053    22496929.659
        51.000          44.000
  23581276.767   -10147314.97043  -7068502.60142  23581277.218    23581278.523
        47.000          39.000
  21520199.073    -7642163.17943  -5930178.47442  21520200.242    21520198.268
        56.000          48.000
 02  7  1 18 26 20.0000000  0 10G18G17G15G23G 6G29G26G 3G14G21
  20549956.426     9912715.98543   7728020.56342  20549958.063    20549954.348
        56.000          50.000
  20796612.145    10968295.97543   8550587.17242  20796613.240    20796611.342
        55.000          48.000
  20446974.023     8656957.34144   6750948.27242  20446974.756    20446972.635
        57.000          50.000
  24391390.245    12084987.01543   9406723.22242  24391390.763    24391389.350
        44.000          39.000
  23555249.190    24884328.15943  19383715.52342  23555249.889    23555254.045
        47.000          41.000
  24852589.138    10891557.56643   8484790.11742  24852590.599    24852590.327
        42.000          36.000
  23831842.458     1599534.92543    964612.40342  23831844.175    23831843.206
        46.000          39.000
  22488868.253   -13567566.22443 -10554305.77342  22488869.838    22488869.210
        51.000          44.000
  23567259.841   -10220974.69243  -7125899.66342  23567262.001    23567260.849
        47.000          40.000
  21516701.233    -7660544.87343  -5944501.85642  21516702.489    21516700.898
        55.000          48.000
 02  7  1 18 26 40.0000000  0 10G18G17G15G23G 6G29G26G 3G14G21
  20552878.585     9928072.51843   7739986.69342  20552879.971    20552876.462
        56.000          50.000
  20799229.096    10982047.30143   8561302.48342  20799230.319    20799228.254
        55.000          48.000
  20447925.221     8661956.00844   6754843.33242  20447926.085    20447923.802
        57.000          50.000
  24401398.863    12137589.58043   9447712.18742  24401401.760    24401402.480
        44.000          38.000
  23569032.327    24956759.61843  19440155.41142  23569035.106    23569036.432
        47.000          41.000
  24864628.902    10954826.50343   8534090.53142  24864631.670    24864630.054
        42.000          36.000
  23844587.098     1666515.12943   1016804.70742  23844590.734    23844586.971
        45.000          39.000
  22480844.289   -13609730.89643 -10587161.32842  22480846.426    22480843.678
        51.000          44.000
  23553254.233   -10294572.55143  -7183248.53342  23553256.994    23553256.043
        47.000          40.000
  21513223.235    -7678821.92643  -5958743.69842  21513224.296    21513222.626
        56.000          48.000
 02  7  1 18 27  0.0000000  0 10G18G17G15G23G 6G29G26G 3G14G21
  20555825.309     9943557.27343   7752052.73342  20555827.031    20555823.143
        56.000          50.000
  20801870.935    10995928.79243   8572119.22042  20801871.867    20801869.516
        55.000          48.000
  20448902.275     8667090.37944   6758844.13942  20448903.395    20448900.999
        57.000          50.000
  24411405.715    12190172.08543   9488685.51042  24411407.203    24411407.906
        44.000          38.000
  23582827.376    25029252.26743  19496642.99042  23582829.235    23582832.036
        47.000          41.000
  24876685.581    11018181.58543   8583458.06242  24876687.684    24876687.121
        43.000          36.000
  23857358.517     1733627.83843   1069100.29342  23857360.873    23857358.223
        45.000          39.000
  22472857.997   -13651698.69943 -10619863.48542  22472859.733    22472859.468
        51.000          44.000
  23539260.739   -10368108.78443  -7240549.37342  23539261.740    23539264.682
        47.000          40.000
  21509764.828    -7696996.14743  -5972905.41442  21509766.060    21509764.489
        56.000          48.000
 02  7  1 18 27 20.0000000  0  9G18G17G15G23G 6G26G 3G14G21
  20558797.495     9959176.25943   7764223.37242  20558799.184    20558795.468
        56.000          50.000
  20804538.283    11009947.11243   8583042.58242  20804539.714    20804537.281
        55.000          48.000
  20449906.363     8672367.14344   6762955.90142  20449907.442    20449905.240
        57.000          50.000
  24421410.081    12242740.82443   9529648.11942  24421411.457    24421411.471
        44.000          38.000
  23596635.133    25101811.73243  19553182.60742  23596637.225    23596639.719
        46.000          40.000
  23870155.621     1800878.53443   1121503.38642  23870158.079    23870157.074
        45.000          38.000
  22464910.374   -13693462.70443 -10652406.84742  22464912.471    22464911.449
        51.000          44.000
  23525279.987   -10441576.35043  -7297796.71442  23525281.906    23525280.483
        47.000          40.000
  21506327.041    -7715061.04643  -5986981.94042  21506328.299    21506326.613
        55.000          48.000
 02  7  1 18 27 40.0000000  0  9G18G17G15G23G 6G26G 3G14G21
  20561792.187     9974913.81943   7776486.40342  20561793.793    20561790.118
        56.000          50.000
  20807229.171    11024087.40943   8594060.98742  20807230.294    20807227.891
        55.000          48.000
  20450934.842     8677771.55644   6767167.13042  20450935.632    20450933.366
        57.000          50.000
  24431407.103    12295280.36743   9570587.96642  24431409.059    24431408.156
        45.000          38.000
  23610452.609    25174422.12343  19609761.93142  23610454.117    23610456.830
        47.000          40.000
  23882976.702     1868251.27743   1174001.61442  23882978.277    23882975.962
        45.000          38.000
  22456999.521   -13735037.33843 -10684802.63942  22457000.737    22456999.578
        51.000          44.000
  23511309.912   -10514989.36043  -7355001.53442  23511312.232    23511312.835
        47.000          40.000
  21502907.455    -7733031.69943  -6000985.03142  21502908.616    21502906.946
        56.000          48.000
 02  7  1 18 28  0.0000000  0  9G18G17G15G23G 6G26G 3G14G21
  20564811.457     9990780.21243   7788849.82542  20564813.140    20564809.589
        56.000          50.000
  20809945.403    11038360.60243   8605182.94742  20809946.261    20809944.216
        55.000          48.000
  20451989.642     8683314.44744   6771486.25942  20451990.447    20451988.273
        57.000          50.000
  24441401.120    12347801.06943   9611513.16242  24441402.344    24441402.974
        44.000          38.000
  23624281.637    25247093.29643  19666388.59342  23624282.792    23624286.264
        46.000          40.000
  23895821.921     1935755.71043   1226602.41742  23895823.105    23895822.884
        45.000          39.000
  22449126.403   -13776411.46343 -10717042.19742  22449128.042    22449127.062
        51.000          44.000
  23497352.096   -10588336.48243  -7412155.03442  23497354.000    23497355.016
        47.000          40.000
  21499507.517    -7750898.06643  -6014906.85942  21499508.576    21499507.044
        56.000          48.000
 02  7  1 18 28 20.0000000  0  9G18G17G15G23G 6G26G 3G14G21
  20567854.397    10006770.90843   7801310.10742  20567856.005    20567852.649
        56.000          50.000
  20812686.035    11052762.68343   8616405.33542  20812686.659    20812684.658
        55.000          48.000
  20453069.992     8688992.02744   6775910.34342  20453070.973    20453068.627
        57.000          50.000
  24451391.263    12400298.65943   9652420.29542  24451391.764    24451391.885
        45.000          38.000
  23638121.239    25319820.40343  19723058.83542  23638121.243    23638127.182
        46.000          40.000
  23908693.068     2003386.82743   1279301.96242  23908694.475    23908693.341
        46.000          39.000
  22441291.205   -13817588.47243 -10749128.14942  22441293.064    22441290.858
        51.000          44.000
  23483406.252   -10661621.02143  -7469259.74242  23483408.008    23483410.414
        47.000          40.000
  21496126.804    -7768664.23843  -6028750.61542  21496128.012    21496126.157
        56.000          48.000
 02  7  1 18 28 40.0000000  0  9G18G17G15G23G 6G26G 3G14G21
  20570921.441    10022887.96043   7813868.84842  20570923.045    20570919.187
        56.000          50.000
  20815451.493    11067296.47543   8627730.35842  20815452.335    20815450.571
        55.000          48.000
  20454176.589     8694807.01744   6780441.50042  20454177.407    20454175.283
        57.000          50.000
  24461377.351    12452775.29143   9693311.16142  24461379.365    24461379.676
        45.000          38.000
  23651972.243    25392605.09843  19779773.96642  23651973.045    23651977.327
        46.000          39.000
  23921586.986     2071146.14143   1332101.39842  23921588.866    23921588.565
        46.000          38.000
  22433492.794   -13858565.34743 -10781058.15242  22433494.687    22433492.918
        51.000          44.000
  23469473.222   -10734839.93543  -7526313.32642  23469474.884    23469474.968
        47.000          40.000
  21492765.371    -7786328.19043  -6042514.71942  21492766.675    21492764.688
        56.000          48.000
 02  7  1 18 29  0.0000000  0  9G18G17G15G23G 6G26G 3G14G21
  20574012.924    10039133.95943   7826528.06942  20574014.544    20574010.946
        56.000          50.000
  20818242.925    11081965.31543   8639160.61842  20818244.208    20818241.790
        55.000          48.000
  20455309.888     8700762.73544   6785082.31342  20455310.856    20455308.589
        57.000          50.000
  24471360.149    12505233.96543   9734187.99542  24471362.652    24471361.527
        45.000          38.000
  23665833.750    25465449.68943  19836535.75042  23665835.738    23665839.609
        45.000          39.000
  23934506.691     2139035.88143   1385002.42842  23934508.283    23934505.150
        47.000          39.000
  22425733.938   -13899338.35643 -10812829.30142  22425735.269    22425733.530
        52.000          44.000
  23455552.876   -10807989.28443  -7583312.68842  23455554.721    23455556.996
        47.000          40.000
  21489424.060    -7803886.83543  -6056196.76542  21489425.048    21489423.276
        55.000          48.000
 02  7  1 18 29 20.0000000  0  9G18G17G15G23G 6G26G 3G14G21
  20577127.342    10055499.93243   7839280.77742  20577129.048    20577125.173
        56.000          50.000
  20821058.468    11096760.74543   8650689.51642  20821059.306    20821057.106
        55.000          48.000
  20456468.419     8706850.57144   6789826.07642  20456469.170    20456466.935
        57.000          50.000
  24481337.542    12557665.66643   9775043.85842  24481337.715    24481339.181
        45.000          38.000
  23679705.588    25538344.80043  19893336.91042  23679708.391    23679708.832
        45.000          39.000
  23947446.692     2207046.47543   1437997.68042  23947450.108    23947447.334
        46.000          39.000
  22418012.022   -13939915.68243 -10844447.95942  22418013.770    22418012.306
        52.000          44.000
  23441645.151   -10881076.91243  -7640263.95342  23441645.853    23441647.683
        47.000          40.000
  21486101.088    -7821349.28043  -6069803.84842  21486102.360    21486100.249
        56.000          48.000
 02  7  1 18 29 40.0000000  0  9G18G17G15G23G 6G26G 3G14G21
  20580266.116    10071994.90343   7852134.00142  20580268.003    20580264.121
        56.000          50.000
  20823899.870    11111692.42543   8662324.58442  20823900.940    20823898.559
        55.000          48.000
  20457653.936     8713080.31544   6794680.41942  20457655.048    20457652.324
        57.000          50.000
  24491311.596    12610079.71643   9815885.93542  24491313.489    24491313.389
        46.000          38.000
  23693588.341    25611299.08743  19950184.17342  23693591.173    23693592.154
        45.000          39.000
  23960413.588     2275186.48343   1491093.77342  23960416.387    23960414.525
        46.000          39.000
  22410329.397   -13980287.22343 -10875906.28342  22410331.301    22410330.611
        51.000          44.000
  23427750.489   -10954092.59043  -7697159.16842  23427751.319    23427751.690
        47.000          40.000
  21482798.142    -7838706.15843  -6083328.67742  21482799.512    21482797.705
        56.000          48.000
 02  7  1 18 30  0.0000000  0  9G18G17G15G23G 6G26G 3G14G21
  20583428.072    10088611.15443   7865081.73042  20583429.724    20583425.836
        56.000          50.000
  20826765.817    11126753.40543   8674060.40342  20826766.891    20826764.615
        55.000          48.000
  20458865.075     8719444.98044   6799639.89042  20458865.843    20458863.909
        57.000          50.000
  24501280.456    12662468.63443   9856708.43042  24501281.081    24501283.644
        45.000          38.000
  23707481.209    25684304.59543  20007071.35442  23707482.518    23707485.630
        45.000          38.000
  23973402.049     2343447.72443   1544284.29742  23973405.855    23973404.082
        45.000          38.000
  22402685.193   -14020459.45243 -10907209.28742  22402687.052    22402685.527
        51.000          44.000
  23413868.786   -11027042.74643  -7754003.33042  23413871.512    23413869.648
        47.000          40.000
  21479514.032    -7855964.64543  -6096776.83742  21479515.477    21479513.428
        56.000          48.000
 02  7  1 18 30 20.0000000  0  9G18G17G15G23G 6G26G 3G14G21
  20586613.919    10105352.85343   7878127.20742  20586615.542    20586611.893
        56.000          50.000
  20829657.467    11141948.56443   8685900.77542  20829658.576    20829656.433
        55.000          48.000
  20460102.831     8725949.43344   6804708.29142  20460103.752    20460101.495
        57.000          50.000
  24511247.259    12714836.82943   9897514.77742  24511247.857    24511247.212
        46.000          38.000
  23721384.253    25757365.14043  20064001.41542  23721387.116    23721389.360
        44.000          38.000
  23986416.763     2411833.83643   1597572.14142  23986416.527    23986419.259
        45.000          39.000
  22395079.728   -14060427.30743 -10938353.05342  22395080.938    22395080.536
        51.000          44.000
  23399999.981   -11099922.03243  -7810792.26342  23400002.656    23400003.003
        47.000          40.000
  21476249.304    -7873120.71043  -6110145.19042  21476250.566    21476248.486
        55.000          48.000
 02  7  1 18 30 40.0000000  0  9G18G17G15G23G 6G26G 3G14G21
  20589822.669    10122214.51143   7891266.15942  20589824.423    20589820.498
        56.000          50.000
  20832573.649    11157272.98443   8697841.87042  20832574.813    20832572.428
        55.000          48.000
  20461366.275     8732588.93544   6809881.92542  20461367.275    20461364.942
        57.000          50.000
  24521206.503    12767179.04243   9938300.87742  24521209.445    24521207.879
        45.000          38.000
  23735296.868    25830474.88543  20120969.79942  23735298.713    23735299.240
        45.000          38.000
  23999453.360     2480338.95043   1650952.72642  23999454.220    23999455.795
        45.000          39.000
  22387512.538   -14100195.33543 -10969341.09642  22387513.104    22387511.930
        51.000          44.000
  23386144.169   -11172734.79043  -7867529.35642  23386144.738    23386146.309
        48.000          40.000
  21473003.285    -7890179.48943  -6123437.73342  21473003.857    21473002.664
        56.000          48.000
 02  7  1 18 31  0.0000000  0  9G18G17G15G23G 6G26G 3G14G21
  20593055.212    10139201.87043   7904503.05942  20593056.955    20593052.943
        56.000          50.000
  20835515.571    11172733.05043   8709888.66642  20835516.506    20835513.995
        55.000          48.000
  20462656.577     8739369.60944   6815165.56242  20462657.604    20462655.299
        57.000          50.000
  24531163.622    12819500.99543   9979071.22042  24531164.046    24531165.082
        45.000          38.000
  23749219.911    25903638.96943  20177980.54542  23749220.918    23749224.332
        45.000          38.000
  24012513.678     2548968.13543   1704429.94842  24012515.661    24012513.981
        45.000          39.000
  22379983.349   -14139757.08643 -11000168.40642  22379985.713    22379983.496
        52.000          44.000
  23372302.339   -11245474.26843  -7924209.34642  23372304.455    23372305.006
        48.000          41.000
  21469776.457    -7907135.43843  -6136650.15042  21469777.857    21469775.703
        56.000          48.000
 02  7  1 18 31 20.0000000  0  9G18G17G15G23G 6G26G 3G14G21
  20596310.882    10156310.29143   7917834.29342  20596312.416    20596308.802
        56.000          50.000
  20838482.541    11188324.82843   8722038.09942  20838483.288    20838481.715
        55.000          48.000
  20463973.199     8746287.89744   6820556.43342  20463974.009    20463971.842
        57.000          50.000
  24541115.220    12871798.41943  10019822.39342  24541118.565    24541118.010
        45.000          38.000
  23763151.806    25976852.63143  20235029.90342  23763154.382    23763157.350
        44.000          38.000
  24025596.048     2617716.43343   1757999.98742  24025597.793    24025597.239
        45.000          39.000
  22372494.267   -14179115.95143 -11030837.62542  22372495.534    22372494.071
        52.000          44.000
  23358473.522   -11318143.62943  -7980834.70642  23358474.894    23358476.972
        48.000          40.000
  21466568.675    -7923992.90243  -6149785.82042  21466570.122    21466567.961
        56.000          48.000
 02  7  1 18 31 40.0000000  0  9G18G17G15G23G 6G26G 3G14G21
  20599589.900    10173541.89443   7931261.50942  20599591.396    20599588.020
        56.000          50.000
  20841475.070    11204051.01343   8734292.25342  20841476.145    20841474.571
        55.000          48.000
  20465316.387     8753346.38644   6826056.54542  20465317.236    20465314.988
        57.000          50.000
  24551063.265    12924073.62743  10060556.28742  24551065.440    24551064.033
        45.000          38.000
  23777093.995    26050117.62343  20292119.26142  23777095.714    23777099.789
        44.000          38.000
  24038701.003     2686585.42443   1811664.10742  24038703.625    24038702.779
        44.000          39.000
  22365043.116   -14218268.62643 -11061346.18442  22365044.816    22365042.870
        51.000          44.000
  23344658.746   -11390739.66743  -8037402.93042  23344661.531    23344661.001
        48.000          40.000
  21463379.925    -7940749.28943  -6162842.73642  21463381.135    21463379.301
        56.000          48.000
 02  7  1 18 32  0.0000000  0  9G18G17G15G23G 6G26G 3G14G21
  20602892.415    10190896.59543   7944784.65042  20602893.992    20602890.468
        56.000          50.000
  20844493.750    11219912.28643   8746651.67442  20844494.638    20844492.427
        55.000          48.000
  20466686.189     8760545.44744   6831666.19642  20466687.079    20466685.211
        57.000          50.000
  24561006.469    12976326.71643  10101272.95342  24561008.995    24561007.383
        45.000          38.000
  23791045.910    26123433.47143  20349248.24542  23791046.644    23791051.027
        45.000          38.000
  24051829.565     2755574.49643   1865421.76842  24051830.204    24051830.333
        45.000          39.000
  22357633.037   -14257214.51943 -11091693.61342  22357633.837    22357631.562
        52.000          44.000
  23330858.581   -11463261.33243  -8093913.20742  23330860.625    23330861.804
        48.000          41.000
  21460210.567    -7957404.64943  -6175820.92842  21460211.857    21460209.831
        56.000          48.000
 02  7  1 18 32 20.0000000  0  9G18G17G15G23G 6G26G 3G14G21
  20606217.904    10208371.34343   7958401.33242  20606219.550    20606215.658
        56.000          50.000
  20847537.071    11235906.28043   8759114.51942  20847538.535    20847536.029
        55.000          48.000
  20468082.623     8767882.89444   6837383.67842  20468083.572    20468081.131
        57.000          50.000
  24570945.481    13028554.99743  10141970.25342  24570946.197    24570947.980
        45.000          38.000
  23805006.515    26196796.87143  20406414.27842  23805008.366    23805012.409
        45.000          38.000
  24064979.631     2824680.22443   1919270.34742  24064981.405    24064982.360
        44.000          39.000
  22350259.679   -14295955.50743 -11121881.37042  22350261.169    22350260.268
        51.000          44.000
  23317071.795   -11535710.38443  -8150366.88742  23317074.415    23317074.759
        48.000          41.000
  21457059.755    -7973961.92243  -6188722.68742  21457060.802    21457058.964
        55.000          48.000
 02  7  1 18 32 40.0000000  0  9G18G17G15G23G 6G26G 3G14G21
  20609566.163    10225967.14443   7972112.34242  20609568.010    20609564.154
        56.000          50.000
  20850606.103    11252034.65843   8771682.07842  20850607.088    20850605.377
        55.000          48.000
  20469505.429     8775360.32944   6843210.24242  20469506.402    20469504.101
        57.000          50.000
  24580877.479    13080759.51043  10182649.06142  24580879.441    24580879.392
        43.000          37.000
  23818976.688    26270208.49543  20463617.89442  23818978.700    23818981.493
        45.000          38.000
  24078152.963     2893903.10543   1973210.19442  24078153.960    24078156.274
        45.000          39.000
  22342927.865   -14334489.70243 -11151908.00142  22342929.044    22342927.369
        52.000          44.000
  23303299.172   -11608084.69443  -8206762.34042  23303302.456    23303300.864
        47.000          41.000
  21453927.847    -7990420.05243  -6201547.19342  21453929.151    21453927.407
        56.000          48.000
 02  7  1 18 33  0.0000000  0  9G18G17G15G23G 6G26G 3G14G21
  20612937.781    10243684.67043   7985918.20042  20612939.332    20612935.751
        56.000          50.000
  20853700.985    11268298.54043   8784355.22742  20853702.228    20853700.020
        55.000          48.000
  20470955.302     8782979.06344   6849146.91242  20470956.098    20470953.805
        57.000          50.000
  24590809.619    13132941.10143  10223309.98642  24590810.909    24590810.881
        45.000          39.000
  23832956.103    26343668.61843  20520859.29842  23832958.610    23832961.411
        45.000          38.000
  24091347.544     2963243.29043   2027241.44942  24091350.273    24091347.521
        45.000          39.000
  22335633.570   -14372815.47043 -11181772.20942  22335635.106    22335634.618
        51.000          44.000
  23289541.485   -11680382.45943  -8263098.13842  23289541.662    23289543.417
        48.000          40.000
  21450815.021    -8006777.99943  -6214293.63442  21450816.313    21450814.702
        56.000          48.000
 02  7  1 18 33 20.0000000  0  9G18G17G15G23G 6G26G 3G14G21
  20616331.815    10261520.64843   7999816.36042  20616333.465    20616329.761
        56.000          50.000
  20856821.457    11284695.49743   8797132.07042  20856821.966    20856820.169
        55.000          48.000
  20472431.308     8790736.48644   6855191.64742  20472432.287    20472430.152
        57.000          50.000
  24600732.857    13185096.77343  10263950.71842  24600733.968    24600735.559
        42.000          37.000
  23846943.501    26417173.58943  20578135.65242  23846945.351    23846948.876
        46.000          38.000
  24104563.284     3032697.03143   2081361.20742  24104564.799    24104566.045
        44.000          38.000
  22328380.539   -14410935.07543 -11211475.78342  22328381.539    22328380.465
        52.000          44.000
  23275797.723   -11752605.61743  -8319375.80142  23275798.736    23275798.910
        48.000          41.000
  21447720.849    -8023038.73743  -6226964.32842  21447722.036    21447720.090
        56.000          48.000
 02  7  1 18 33 40.0000000  0  9G18G17G15G23G 6G26G 3G14G21
  20619748.645    10279476.24243   8013807.72942  20619750.361    20619746.610
        56.000          50.000
  20859967.122    11301227.43643   8810014.08942  20859968.621    20859966.383
        55.000          48.000
  20473934.371     8798634.50344   6861345.93742  20473935.354    20473933.543
        57.000          50.000
  24610654.908    13237227.93643  10304572.36342  24610655.366    24610657.094
        45.000          38.000
  23860940.491    26490724.28843  20635447.62742  23860942.379    23860944.753
        46.000          38.000
  24117801.428     3102264.99843   2135569.96442  24117803.254    24117803.117
        44.000          38.000
  22321165.440   -14448846.28443 -11241016.95642  22321167.612    22321166.119
        52.000          44.000
  23262068.494   -11824751.81543  -8375593.47842  23262072.349    23262070.567
        47.000          41.000
  21444645.360    -8039200.76243  -6239558.09642  21444646.547    21444644.720
        56.000          48.000
 02  7  1 18 34  0.0000000  0  9G18G17G15G23G 6G26G 3G14G21
  20623188.286    10297551.58443   8027892.40842  20623190.113    20623186.168
        56.000          50.000
  20863138.961    11317894.90643   8823001.71442  20863139.945    20863138.101
        55.000          48.000
  20475464.257     8806673.85644   6867610.35542  20475464.978    20475462.920
        57.000          50.000
  24620569.356    13289334.98043  10345175.21042  24620570.788    24620571.781
        43.000          38.000
  23874945.197    26564320.41743  20692794.99742  23874946.733    23874949.459
        46.000          38.000
  24131062.054     3171946.81843   2189867.44342  24131062.935    24131063.087
        44.000          39.000
  22313991.887   -14486548.04743 -11270394.93942  22313993.705    22313991.803
        52.000          44.000
  23248354.503   -11896819.80143  -8431750.22842  23248356.287    23248357.590
        48.000          41.000
  21441588.605    -8055263.76743  -6252074.71442  21441589.940    21441587.754
        56.000          48.000
 02  7  1 18 34 20.0000000  0  9G18G17G15G23G 6G26G 3G14G21
  20626650.529    10315746.42243   8042070.20242  20626652.427    20626648.352
        56.000          50.000
  20866336.746    11334698.29543   8836095.24842  20866337.704    20866335.263
        55.000          48.000
  20477020.897     8814854.78044   6873985.09142  20477021.987    20477019.586
        57.000          50.000
  24630481.076    13341417.74843  10385759.11842  24630482.406    24630483.463
        45.000          38.000
  23888958.600    26637961.32843  20750177.26142  23888960.433    23888964.429
        46.000          39.000
  24144345.155     3241741.71543   2244253.00142  24144345.797    24144343.704
        46.000          38.000
  22306856.546   -14524039.84343 -11299609.29742  22306858.643    22306857.864
        52.000          44.000
  23234655.023   -11968808.82843  -8487845.44842  23234657.121    23234658.308
        48.000          41.000
  21438550.595    -8071228.11443  -6264514.45042  21438552.122    21438549.738
        56.000          48.000
